[[{"header":{"parameterUnit":"m.s-1","parameterCategory":1,"la1":31.0,"la2":29.5877,"lo1":-88.7671,"lo2":-86.6584,"dx":0.0162,"dy":0.0185,"nx":115,"ny":88,"refTime":"2023-01-14T06:00:00:Z","depth":0,"parameterNumber":2,"parameterNumberName":"U-component_of_WINDS"},"data":[0.0,0.0,0.0,0.0,0.0,0.0,0.0,0.0,0.0,0.0,0.0,0.0,0.0,0.0,0.0,0.0,0.0,0.0,0.0,0.0,0.0,0.0,0.0,0.0,0.0,0.0,0.0,0.0,0.0,0.0,0.0,0.0,0.0,0.0,0.0,0.0,0.0,0.0,0.0,0.0,0.0,0.0,0.0,0.0,0.0,0.0,0.0,0.0,0.0,0.0,0.0,0.0,0.0,0.0,0.0,0.0,0.0,0.0,0.0,0.0,0.0,0.0,0.0,0.0,0.0,0.0,0.0,0.0,0.0,0.0,0.0,0.0,0.0,0.0,0.0,0.0,0.0,0.0,0.0,0.0,0.0,0.0,0.0,0.0,0.0,0.0,0.0,0.0,0.0,0.0,0.0,0.0,0.0,0.0,0.0,0.0,0.0,0.0,0.0,0.0,0.0,0.0,0.0,0.0,0.0,0.0,0.0,0.0,0.0,0.0,0.0,0.0,0.0,0.0,0.0,0.0,0.0,0.0,0.0,0.0,0.0,0.0,0.0,0.0,0.0,0.0,0.0,0.0,0.0,0.0,0.0,0.0,0.0,0.0,0.0,0.0,0.0,0.0,0.0,0.0,0.0,0.0,0.0,0.0,0.0,0.0,0.0,0.0,0.0,0.0,0.0,0.0,0.0,0.0,0.0,0.0,0.0,0.0,0.0,0.0,0.0,0.0,0.0,0.0,0.0,0.0,0.0,0.0,0.0,0.0,0.0,0.0,0.0,0.0,0.0,0.0,0.0,0.0,0.0,0.0,0.0,0.0,0.0,0.0,0.0,0.0,0.0,0.0,0.0,0.0,0.0,0.0,0.0,0.0,0.0,0.0,0.0,0.0,0.0,0.0,0.0,0.0,0.0,0.0,0.0,0.0,0.0,0.0,0.0,0.0,0.0,0.0,0.0,0.0,0.0,0.0,0.0,0.0,0.0,0.0,0.0,0.0,0.0,0.0,0.0,0.0,0.0,0.0,0.0,0.0,0.0,0.0,0.0,0.0,0.0,0.0,0.0,0.0,0.0,0.0,0.0,0.0,0.0,0.0,0.0,0.0,0.0,0.0,0.0,0.0,0.0,0.0,0.0,0.0,0.0,0.0,0.0,0.0,0.0,0.0,0.0,0.0,0.0,0.0,0.0,0.0,0.0,0.0,0.0,0.0,0.0,0.0,0.0,0.0,0.0,0.0,0.0,0.0,0.0,0.0,0.0,0.0,0.0,0.0,0.0,0.0,0.0,0.0,0.0,0.0,0.0,0.0,0.0,0.0,0.0,0.0,0.0,0.0,0.0,0.0,0.0,0.0,0.0,0.0,0.0,0.0,0.0,0.0,0.0,0.0,0.0,0.0,0.0,0.0,0.0,0.0,0.0,0.0,0.0,0.0,0.0,0.0,0.0,0.0,0.0,0.0,0.0,0.0,0.0,0.0,0.0,0.0,0.0,0.0,0.0,0.0,0.0,0.0,0.0,0.0,0.0,0.0,0.0,0.0,0.0,0.0,0.0,0.0,0.0,0.0,0.0,0.0,0.0,0.0,0.0,0.0,0.0,0.0,0.0,0.0,0.0,0.0,0.0,0.0,0.0,0.0,0.0,0.0,0.0,0.0,0.0,0.0,0.0,0.0,0.0,0.0,0.0,0.0,0.0,0.0,0.0,0.0,0.0,0.0,0.0,0.0,0.0,0.0,0.0,0.0,0.0,0.0,0.0,0.0,0.0,0.0,0.0,0.0,0.0,0.0,0.0,0.0,0.0,0.0,0.0,0.0,0.0,0.0,0.0,0.0,0.0,0.0,0.0,0.0,0.0,0.0,0.0,0.0,0.0,0.0,0.0,0.0,0.0,0.0,0.0,0.0,0.0,0.0,0.0,0.0,0.0,0.0,0.0,0.0,0.0,0.0,0.0,0.0,0.0,0.0,0.0,0.0,0.0,0.0,0.0,0.0,0.0,0.0,0.0,0.0,0.0,0.0,0.0,0.0,0.0,0.0,0.0,0.0,0.0,0.0,0.0,0.0,0.0,0.0,0.0,0.0,0.0,0.0,0.0,0.0,0.0,0.0,0.0,0.0,0.0,0.0,0.0,0.0,0.0,0.0,0.0,0.0,0.0,0.0,0.0,0.0,0.0,0.0,0.0,0.0,0.0,0.0,0.0,0.0,0.0,0.0,0.0,0.0,0.0,0.0,0.0,0.0,0.0,0.0,0.0,0.0,0.0,0.0,0.0,0.0,0.0,0.0,0.0,0.0,0.0,0.0,0.0,0.0,0.0,0.0,0.0,0.0,0.0,0.0,0.0,0.0,0.0,0.0,0.0,0.0,0.0,0.0,0.0,0.0,0.0,0.0,0.0,0.0,0.0,0.0,0.0,0.0,0.0,0.0,0.0,0.0,0.0,0.0,0.0,0.0,0.0,0.0,0.0,0.0,0.0,0.0,0.0,0.0,0.0,0.0,0.0,0.0,0.0,0.0,0.0,0.0,0.0,0.0,0.0,0.0,0.0,0.0,0.0,0.0,0.0,0.0,0.0,0.0,0.0,0.0,0.0,0.0,0.0,0.0,0.0,0.0,0.0,0.0,0.0,0.0,0.0,0.0,0.0,0.0,0.0,0.0,0.0,0.0,0.0,0.0,0.0,0.0,0.0,0.0,0.0,0.0,0.0,0.0,0.0,0.0,0.0,0.0,0.0,0.0,0.0,0.0,0.0,0.0,0.0,0.0,0.0,0.0,0.0,0.0,0.0,0.0,0.0,0.0,0.0,0.0,0.0,0.0,0.0,0.0,0.0,0.0,0.0,0.0,0.0,0.0,0.0,0.0,0.0,0.0,0.0,0.0,0.0,0.0,0.0,0.0,0.0,0.0,0.0,0.0,0.0,0.0,0.0,0.0,0.0,0.0,0.0,0.0,0.0,0.0,0.0,0.0,0.0,0.0,0.0,0.0,0.0,0.0,0.0,0.0,0.0,0.0,0.0,0.0,0.0,0.0,0.0,0.0,0.0,0.0,0.0,0.0,0.0,0.0,0.0,0.0,0.0,0.0,0.0,0.0,0.0,0.0,0.0,0.0,0.0,0.0,0.0,0.0,0.0,0.0,0.0,0.0,0.0,0.0,0.0,0.0,0.0,0.0,0.0,0.0,0.0,0.0,0.0,0.0,0.0,0.0,0.0,0.0,0.0,0.0,0.0,0.0,0.0,0.0,0.0,0.0,0.0,0.0,0.0,0.0,0.0,0.0,0.0,0.0,0.0,0.0,0.0,0.0,0.0,0.0,0.0,0.0,0.0,0.0,0.0,0.0,0.0,0.0,0.0,0.0,0.0,0.0,0.0,0.0,0.0,0.0,0.0,0.0,0.0,0.0,0.0,0.0,0.0,0.0,0.0,0.0,0.0,0.0,0.0,0.0,0.0,0.0,0.0,0.0,0.0,0.0,0.0,0.0,0.0,0.0,0.0,0.0,0.0,0.0,0.0,0.0,0.0,0.0,0.0,0.0,0.0,0.0,0.0,0.0,0.0,0.0,0.0,0.0,0.0,0.0,0.0,0.0,0.0,0.0,0.0,0.0,0.0,0.0,0.0,0.0,0.0,0.0,0.0,0.0,0.0,0.0,0.0,0.0,0.0,0.0,0.0,0.0,0.0,0.0,0.0,0.0,0.0,0.0,0.0,0.0,0.0,0.0,0.0,0.0,0.0,0.0,0.0,0.0,0.0,0.0,0.0,0.0,0.0,0.0,0.0,0.0,0.0,0.0,0.0,0.0,0.0,0.0,0.0,0.0,0.0,0.0,0.0,0.0,0.0,0.0,0.0,0.0,0.0,0.0,0.0,0.0,0.0,0.0,0.0,0.0,0.0,0.0,0.0,0.0,0.0,0.0,0.0,0.0,0.0,0.0,0.0,0.0,0.0,0.0,0.0,0.0,0.0,0.0,0.0,0.0,0.0,0.0,0.0,0.0,0.0,0.0,0.0,0.0,0.0,0.0,0.0,0.0,0.0,0.0,0.0,0.0,0.0,0.0,0.0,0.0,0.0,0.0,0.0,0.0,0.0,0.0,0.0,0.0,0.0,0.0,0.0,0.0,0.0,0.0,0.0,0.0,0.0,0.0,0.0,0.0,0.0,0.0,0.0,0.0,0.0,0.0,0.0,0.0,0.0,0.0,0.0,0.0,0.0,0.0,0.0,0.0,0.0,0.0,0.0,0.0,0.0,0.0,0.0,0.0,0.0,0.0,0.0,0.0,0.0,0.0,0.0,0.0,-4.1612,0.0,0.0,0.0,0.0,0.0,0.0,0.0,0.0,0.0,0.0,0.0,0.0,0.0,0.0,0.0,0.0,0.0,0.0,0.0,0.0,0.0,0.0,0.0,0.0,0.0,0.0,0.0,0.0,0.0,0.0,0.0,0.0,0.0,0.0,0.0,0.0,0.0,0.0,0.0,0.0,0.0,0.0,0.0,0.0,0.0,0.0,0.0,0.0,0.0,0.0,0.0,0.0,0.0,0.0,0.0,0.0,0.0,0.0,0.0,0.0,0.0,0.0,0.0,0.0,0.0,0.0,0.0,0.0,0.0,0.0,0.0,0.0,0.0,0.0,0.0,0.0,0.0,0.0,0.0,0.0,0.0,0.0,0.0,0.0,0.0,0.0,0.0,0.0,0.0,0.0,0.0,0.0,0.0,0.0,0.0,0.0,0.0,0.0,0.0,0.0,0.0,0.0,0.0,0.0,0.0,0.0,0.0,0.0,0.0,0.0,-4.2837,-4.2506,-4.244,-4.244,-4.2572,0.0,0.0,0.0,0.0,0.0,0.0,0.0,0.0,0.0,0.0,0.0,0.0,0.0,0.0,0.0,0.0,0.0,0.0,0.0,0.0,0.0,0.0,0.0,0.0,0.0,0.0,0.0,0.0,0.0,0.0,0.0,0.0,0.0,0.0,0.0,0.0,0.0,0.0,0.0,0.0,0.0,0.0,0.0,0.0,0.0,0.0,0.0,0.0,0.0,0.0,0.0,0.0,0.0,0.0,0.0,0.0,0.0,0.0,0.0,0.0,0.0,0.0,0.0,0.0,0.0,0.0,0.0,0.0,0.0,0.0,0.0,0.0,0.0,0.0,0.0,0.0,0.0,0.0,0.0,0.0,0.0,0.0,0.0,0.0,0.0,0.0,0.0,0.0,0.0,0.0,0.0,0.0,0.0,0.0,0.0,0.0,0.0,0.0,0.0,0.0,0.0,0.0,0.0,0.0,0.0,0.0,0.0,0.0,0.0,0.0,0.0,0.0,-4.2109,-4.2406,-4.3499,0.0,0.0,0.0,0.0,0.0,0.0,0.0,0.0,0.0,0.0,0.0,0.0,0.0,0.0,0.0,0.0,0.0,0.0,0.0,0.0,0.0,0.0,0.0,0.0,0.0,0.0,0.0,0.0,0.0,0.0,0.0,0.0,0.0,0.0,0.0,0.0,0.0,0.0,0.0,0.0,0.0,0.0,0.0,0.0,0.0,0.0,0.0,0.0,0.0,0.0,0.0,0.0,0.0,0.0,0.0,0.0,0.0,0.0,0.0,0.0,0.0,0.0,0.0,0.0,0.0,0.0,0.0,0.0,0.0,0.0,0.0,0.0,0.0,0.0,0.0,0.0,0.0,0.0,0.0,0.0,0.0,0.0,0.0,0.0,0.0,0.0,0.0,0.0,0.0,0.0,0.0,0.0,0.0,0.0,0.0,0.0,0.0,0.0,0.0,0.0,0.0,0.0,0.0,0.0,0.0,0.0,0.0,0.0,0.0,0.0,-4.3168,-4.2539,-4.3069,0.0,-4.3499,0.0,0.0,0.0,0.0,0.0,0.0,0.0,0.0,0.0,0.0,0.0,0.0,0.0,0.0,0.0,0.0,0.0,0.0,0.0,0.0,0.0,0.0,0.0,0.0,0.0,0.0,0.0,0.0,0.0,0.0,0.0,0.0,0.0,0.0,0.0,0.0,0.0,0.0,0.0,0.0,0.0,0.0,0.0,0.0,0.0,0.0,0.0,0.0,0.0,0.0,0.0,0.0,0.0,0.0,0.0,0.0,0.0,0.0,0.0,0.0,0.0,0.0,0.0,0.0,0.0,0.0,0.0,0.0,0.0,0.0,0.0,0.0,0.0,0.0,0.0,0.0,0.0,0.0,0.0,0.0,0.0,0.0,0.0,0.0,0.0,0.0,0.0,0.0,0.0,0.0,0.0,0.0,0.0,0.0,0.0,0.0,0.0,0.0,0.0,0.0,0.0,0.0,0.0,0.0,0.0,0.0,0.0,0.0,0.0,0.0,-4.3466,-4.3168,-4.3433,-4.337,0.0,0.0,0.0,0.0,0.0,0.0,0.0,0.0,0.0,0.0,0.0,0.0,0.0,0.0,0.0,0.0,0.0,0.0,0.0,0.0,0.0,0.0,0.0,0.0,0.0,0.0,0.0,0.0,0.0,0.0,0.0,0.0,0.0,0.0,0.0,0.0,0.0,0.0,0.0,0.0,0.0,0.0,0.0,0.0,0.0,0.0,0.0,0.0,0.0,0.0,0.0,0.0,0.0,0.0,0.0,0.0,0.0,0.0,0.0,0.0,0.0,0.0,0.0,0.0,0.0,0.0,0.0,0.0,0.0,0.0,0.0,0.0,0.0,0.0,0.0,0.0,0.0,0.0,0.0,0.0,0.0,0.0,0.0,0.0,0.0,0.0,0.0,0.0,0.0,0.0,0.0,0.0,0.0,0.0,0.0,0.0,0.0,0.0,0.0,0.0,0.0,0.0,0.0,0.0,0.0,0.0,0.0,0.0,0.0,0.0,-4.3386,-4.3568,-4.3598,-4.3568,-4.3215,-4.2631,0.0,0.0,0.0,0.0,0.0,0.0,0.0,0.0,0.0,0.0,0.0,0.0,0.0,0.0,0.0,0.0,0.0,0.0,0.0,0.0,0.0,0.0,0.0,0.0,0.0,0.0,0.0,0.0,0.0,0.0,0.0,0.0,0.0,0.0,0.0,0.0,0.0,0.0,0.0,0.0,0.0,0.0,0.0,0.0,0.0,0.0,0.0,0.0,0.0,0.0,0.0,0.0,0.0,0.0,0.0,0.0,0.0,0.0,0.0,0.0,0.0,0.0,0.0,0.0,0.0,0.0,0.0,0.0,0.0,0.0,0.0,0.0,0.0,0.0,0.0,0.0,0.0,0.0,0.0,0.0,0.0,0.0,0.0,0.0,0.0,0.0,0.0,0.0,0.0,0.0,0.0,0.0,0.0,0.0,0.0,0.0,0.0,0.0,0.0,0.0,0.0,0.0,0.0,0.0,0.0,0.0,0.0,0.0,0.0,-4.3295,-4.3479,-4.3598,-4.3479,-4.3386,0.0,0.0,0.0,0.0,0.0,0.0,0.0,0.0,0.0,0.0,0.0,0.0,0.0,0.0,0.0,0.0,0.0,0.0,0.0,0.0,0.0,0.0,0.0,0.0,0.0,0.0,0.0,0.0,0.0,0.0,0.0,0.0,0.0,0.0,0.0,0.0,0.0,0.0,0.0,0.0,0.0,0.0,0.0,0.0,0.0,0.0,0.0,0.0,0.0,0.0,0.0,0.0,0.0,0.0,0.0,0.0,0.0,0.0,0.0,0.0,0.0,0.0,0.0,0.0,0.0,0.0,0.0,0.0,0.0,0.0,0.0,0.0,0.0,0.0,0.0,0.0,0.0,0.0,0.0,0.0,0.0,0.0,0.0,0.0,0.0,0.0,0.0,0.0,0.0,0.0,0.0,0.0,0.0,0.0,0.0,0.0,0.0,0.0,0.0,0.0,0.0,0.0,0.0,0.0,0.0,0.0,0.0,0.0,0.0,-4.2774,-4.3174,-4.3449,-4.3479,-4.3449,-4.3267,0.0,0.0,0.0,0.0,0.0,0.0,0.0,0.0,0.0,0.0,0.0,0.0,0.0,0.0,0.0,0.0,0.0,0.0,0.0,0.0,0.0,0.0,0.0,0.0,0.0,0.0,0.0,0.0,0.0,0.0,0.0,0.0,0.0,0.0,0.0,0.0,0.0,0.0,0.0,0.0,0.0,0.0,0.0,0.0,0.0,0.0,0.0,0.0,0.0,0.0,0.0,0.0,0.0,0.0,0.0,0.0,0.0,0.0,0.0,0.0,0.0,0.0,0.0,0.0,0.0,0.0,0.0,0.0,0.0,0.0,0.0,0.0,0.0,0.0,0.0,0.0,0.0,0.0,0.0,0.0,0.0,0.0,0.0,0.0,0.0,0.0,0.0,0.0,0.0,0.0,0.0,0.0,0.0,0.0,0.0,0.0,0.0,0.0,0.0,0.0,0.0,0.0,0.0,0.0,0.0,0.0,0.0,0.0,0.0,-4.2619,0.0,-4.3328,-4.3295,-4.3174,-4.2959,0.0,0.0,0.0,0.0,0.0,0.0,0.0,0.0,0.0,0.0,0.0,0.0,0.0,0.0,0.0,0.0,0.0,0.0,0.0,0.0,0.0,0.0,0.0,0.0,0.0,0.0,0.0,0.0,0.0,0.0,0.0,0.0,0.0,0.0,0.0,0.0,0.0,0.0,0.0,0.0,0.0,0.0,0.0,0.0,0.0,0.0,0.0,0.0,0.0,0.0,0.0,0.0,0.0,0.0,0.0,0.0,0.0,0.0,0.0,0.0,0.0,0.0,0.0,0.0,0.0,0.0,0.0,0.0,0.0,0.0,0.0,0.0,0.0,0.0,0.0,0.0,0.0,0.0,0.0,0.0,0.0,0.0,0.0,0.0,0.0,0.0,0.0,0.0,0.0,0.0,0.0,0.0,0.0,0.0,0.0,0.0,0.0,0.0,0.0,0.0,0.0,0.0,0.0,0.0,0.0,0.0,0.0,0.0,-4.198,-4.2587,-4.2994,-4.3211,-4.3115,-4.2839,-4.2619,0.0,0.0,0.0,0.0,0.0,0.0,0.0,0.0,0.0,0.0,0.0,0.0,0.0,0.0,0.0,0.0,0.0,0.0,0.0,0.0,0.0,0.0,0.0,0.0,0.0,0.0,0.0,0.0,0.0,0.0,0.0,0.0,0.0,0.0,0.0,0.0,0.0,0.0,0.0,0.0,0.0,0.0,0.0,0.0,0.0,0.0,0.0,0.0,0.0,0.0,0.0,0.0,0.0,0.0,0.0,0.0,0.0,0.0,0.0,0.0,0.0,0.0,0.0,0.0,0.0,0.0,0.0,0.0,0.0,0.0,0.0,0.0,0.0,0.0,0.0,0.0,0.0,0.0,0.0,0.0,0.0,0.0,0.0,0.0,0.0,0.0,0.0,0.0,0.0,0.0,0.0,0.0,0.0,0.0,0.0,0.0,0.0,0.0,0.0,0.0,0.0,0.0,0.0,0.0,0.0,0.0,0.0,0.0,0.0,-4.3363,-4.4073,-4.4397,-4.4397,-4.3718,-4.317,0.0,0.0,0.0,0.0,0.0,0.0,0.0,0.0,0.0,0.0,0.0,0.0,0.0,0.0,0.0,0.0,0.0,0.0,0.0,0.0,0.0,0.0,0.0,0.0,0.0,0.0,0.0,0.0,0.0,0.0,0.0,0.0,0.0,0.0,0.0,0.0,0.0,0.0,0.0,0.0,0.0,0.0,0.0,0.0,0.0,0.0,0.0,0.0,0.0,0.0,0.0,0.0,0.0,0.0,0.0,0.0,0.0,0.0,0.0,0.0,0.0,0.0,0.0,0.0,0.0,0.0,0.0,0.0,0.0,0.0,0.0,0.0,0.0,0.0,0.0,0.0,0.0,0.0,0.0,0.0,0.0,0.0,0.0,0.0,0.0,0.0,0.0,0.0,0.0,0.0,0.0,0.0,0.0,0.0,0.0,0.0,0.0,0.0,0.0,0.0,0.0,0.0,0.0,0.0,0.0,0.0,0.0,0.0,0.0,-4.4166,-4.4658,-4.4919,-4.4919,-4.401,-4.3297,-4.2868,0.0,0.0,0.0,0.0,0.0,0.0,0.0,0.0,0.0,0.0,0.0,0.0,0.0,0.0,0.0,0.0,0.0,0.0,0.0,0.0,0.0,0.0,0.0,0.0,0.0,0.0,0.0,0.0,0.0,0.0,0.0,0.0,0.0,0.0,0.0,0.0,0.0,0.0,0.0,0.0,0.0,0.0,0.0,0.0,0.0,0.0,0.0,0.0,0.0,0.0,0.0,0.0,0.0,0.0,0.0,0.0,0.0,0.0,0.0,0.0,0.0,0.0,0.0,0.0,0.0,0.0,0.0,0.0,0.0,0.0,0.0,0.0,0.0,0.0,0.0,0.0,0.0,0.0,0.0,0.0,0.0,0.0,0.0,0.0,0.0,0.0,0.0,0.0,0.0,0.0,0.0,0.0,0.0,0.0,0.0,0.0,0.0,0.0,0.0,0.0,0.0,0.0,0.0,0.0,0.0,0.0,0.0,0.0,-4.5123,-4.5034,-4.4948,-4.4851,-4.3876,-4.3162,0.0,0.0,0.0,0.0,0.0,0.0,0.0,0.0,0.0,0.0,0.0,0.0,0.0,0.0,0.0,0.0,0.0,0.0,0.0,0.0,0.0,0.0,0.0,0.0,0.0,0.0,0.0,0.0,0.0,0.0,0.0,0.0,0.0,0.0,0.0,0.0,0.0,0.0,0.0,0.0,0.0,0.0,0.0,0.0,0.0,0.0,0.0,0.0,0.0,0.0,0.0,0.0,0.0,0.0,0.0,0.0,0.0,0.0,0.0,0.0,0.0,0.0,0.0,0.0,0.0,0.0,0.0,0.0,0.0,0.0,0.0,0.0,0.0,0.0,0.0,0.0,0.0,0.0,0.0,0.0,0.0,0.0,0.0,0.0,0.0,0.0,0.0,0.0,0.0,0.0,0.0,0.0,0.0,0.0,0.0,0.0,0.0,0.0,0.0,0.0,0.0,0.0,0.0,0.0,0.0,0.0,0.0,0.0,0.0,-4.6811,-4.6945,-4.6629,-4.5751,-4.4808,-4.3927,0.0,0.0,0.0,0.0,0.0,0.0,0.0,0.0,0.0,0.0,0.0,0.0,0.0,0.0,0.0,0.0,0.0,0.0,0.0,0.0,0.0,0.0,0.0,0.0,0.0,0.0,0.0,0.0,0.0,0.0,0.0,0.0,0.0,0.0,0.0,0.0,0.0,0.0,0.0,0.0,0.0,0.0,0.0,0.0,0.0,0.0,0.0,0.0,0.0,0.0,0.0,0.0,0.0,0.0,0.0,0.0,0.0,0.0,0.0,0.0,0.0,0.0,0.0,0.0,0.0,0.0,0.0,0.0,0.0,0.0,0.0,0.0,0.0,0.0,0.0,0.0,0.0,0.0,0.0,0.0,0.0,0.0,0.0,0.0,0.0,0.0,0.0,0.0,0.0,0.0,0.0,0.0,0.0,0.0,0.0,0.0,0.0,0.0,0.0,0.0,0.0,0.0,0.0,0.0,0.0,0.0,0.0,0.0,-4.5828,-4.7324,-4.7502,-4.7202,-4.6459,-4.5483,-4.4526,0.0,0.0,0.0,0.0,0.0,0.0,0.0,0.0,0.0,0.0,0.0,0.0,0.0,0.0,0.0,0.0,0.0,0.0,0.0,0.0,0.0,0.0,0.0,0.0,0.0,0.0,0.0,0.0,0.0,0.0,0.0,0.0,0.0,0.0,0.0,0.0,0.0,0.0,0.0,0.0,0.0,0.0,0.0,0.0,0.0,0.0,0.0,0.0,0.0,0.0,0.0,0.0,0.0,0.0,0.0,0.0,0.0,0.0,0.0,0.0,0.0,0.0,0.0,0.0,0.0,0.0,0.0,0.0,0.0,0.0,0.0,0.0,0.0,0.0,0.0,0.0,0.0,0.0,0.0,0.0,0.0,0.0,0.0,0.0,0.0,0.0,0.0,0.0,0.0,0.0,0.0,0.0,0.0,0.0,0.0,0.0,0.0,0.0,0.0,0.0,0.0,0.0,0.0,0.0,0.0,0.0,0.0,0.0,-4.5873,-4.731,-4.7341,-4.7192,-4.6942,-4.5946,-4.5065,0.0,0.0,0.0,0.0,0.0,0.0,0.0,0.0,0.0,0.0,0.0,0.0,0.0,0.0,0.0,0.0,0.0,0.0,0.0,0.0,0.0,0.0,0.0,0.0,0.0,0.0,0.0,0.0,0.0,0.0,0.0,0.0,0.0,0.0,0.0,0.0,0.0,0.0,0.0,0.0,0.0,0.0,0.0,0.0,0.0,0.0,0.0,0.0,0.0,0.0,0.0,0.0,0.0,0.0,0.0,0.0,0.0,0.0,0.0,0.0,0.0,0.0,0.0,0.0,0.0,0.0,0.0,0.0,0.0,0.0,0.0,0.0,0.0,0.0,0.0,0.0,0.0,0.0,0.0,0.0,0.0,0.0,0.0,0.0,0.0,0.0,0.0,0.0,0.0,0.0,0.0,0.0,0.0,0.0,0.0,0.0,0.0,0.0,0.0,0.0,0.0,0.0,0.0,0.0,0.0,0.0,0.0,0.0,-4.7292,-4.8265,-4.8296,-4.7968,-4.7242,-4.6158,-4.5179,0.0,0.0,0.0,0.0,0.0,0.0,0.0,0.0,0.0,0.0,0.0,0.0,0.0,0.0,0.0,0.0,0.0,0.0,0.0,0.0,0.0,0.0,0.0,0.0,0.0,0.0,0.0,0.0,0.0,0.0,0.0,0.0,0.0,0.0,0.0,0.0,0.0,0.0,0.0,0.0,0.0,0.0,0.0,0.0,0.0,0.0,0.0,0.0,-4.1175,0.0,0.0,0.0,0.0,0.0,0.0,0.0,0.0,0.0,0.0,0.0,0.0,0.0,0.0,0.0,0.0,0.0,0.0,0.0,0.0,0.0,0.0,0.0,0.0,0.0,0.0,0.0,0.0,0.0,0.0,0.0,0.0,0.0,0.0,0.0,0.0,0.0,0.0,0.0,0.0,0.0,0.0,0.0,0.0,0.0,0.0,0.0,0.0,0.0,0.0,0.0,0.0,0.0,0.0,0.0,0.0,0.0,0.0,0.0,-4.7962,-4.876,-4.8791,-4.8565,-4.8072,-4.6803,-4.5614,0.0,0.0,0.0,0.0,0.0,0.0,0.0,0.0,0.0,0.0,0.0,0.0,0.0,0.0,0.0,0.0,0.0,0.0,0.0,0.0,0.0,0.0,0.0,0.0,0.0,0.0,0.0,0.0,0.0,0.0,0.0,0.0,0.0,0.0,0.0,0.0,0.0,0.0,0.0,0.0,0.0,0.0,0.0,0.0,0.0,0.0,0.0,0.0,0.0,0.0,0.0,0.0,0.0,0.0,0.0,0.0,0.0,0.0,0.0,0.0,0.0,0.0,0.0,0.0,0.0,0.0,0.0,0.0,0.0,0.0,0.0,0.0,0.0,0.0,0.0,0.0,0.0,0.0,0.0,0.0,0.0,0.0,0.0,0.0,0.0,0.0,0.0,0.0,0.0,0.0,0.0,0.0,0.0,0.0,0.0,0.0,0.0,0.0,0.0,0.0,0.0,0.0,0.0,0.0,0.0,0.0,0.0,-4.6947,-4.8304,-4.8966,-4.9118,-4.9075,-4.8953,-4.7498,-4.623,-4.5092,0.0,0.0,0.0,0.0,0.0,0.0,0.0,0.0,0.0,0.0,0.0,0.0,0.0,0.0,0.0,0.0,0.0,0.0,0.0,0.0,0.0,0.0,0.0,0.0,0.0,0.0,0.0,0.0,0.0,0.0,0.0,0.0,0.0,0.0,0.0,0.0,0.0,0.0,-4.0726,-4.1414,0.0,0.0,0.0,0.0,0.0,0.0,0.0,0.0,-4.4556,0.0,0.0,0.0,0.0,0.0,0.0,0.0,0.0,0.0,0.0,0.0,0.0,0.0,0.0,0.0,0.0,0.0,0.0,0.0,0.0,0.0,0.0,0.0,0.0,0.0,0.0,0.0,0.0,0.0,0.0,0.0,0.0,0.0,0.0,0.0,0.0,0.0,0.0,0.0,0.0,0.0,0.0,0.0,0.0,0.0,0.0,0.0,0.0,0.0,0.0,0.0,0.0,0.0,0.0,0.0,0.0,-4.5524,-4.7485,-4.8658,-4.8997,-4.9499,-4.9381,-4.8662,-4.7865,-4.6756,-4.5308,0.0,0.0,0.0,0.0,0.0,0.0,0.0,0.0,0.0,0.0,0.0,0.0,0.0,0.0,0.0,0.0,0.0,0.0,0.0,0.0,0.0,0.0,0.0,0.0,0.0,0.0,0.0,0.0,0.0,0.0,0.0,0.0,0.0,0.0,0.0,0.0,0.0,0.0,0.0,-4.3419,-4.4047,0.0,0.0,0.0,0.0,0.0,0.0,0.0,0.0,-4.4945,0.0,0.0,0.0,0.0,0.0,0.0,0.0,0.0,0.0,0.0,0.0,0.0,0.0,0.0,0.0,0.0,0.0,0.0,0.0,0.0,0.0,0.0,0.0,0.0,0.0,0.0,0.0,0.0,0.0,0.0,0.0,0.0,0.0,0.0,0.0,0.0,0.0,0.0,0.0,0.0,0.0,0.0,0.0,0.0,0.0,0.0,0.0,0.0,0.0,0.0,0.0,0.0,0.0,0.0,0.0,-4.6521,-4.8143,-4.9178,-4.9598,-4.993,-4.9885,-4.9419,-4.8459,-4.7319,0.0,0.0,0.0,0.0,0.0,0.0,0.0,0.0,0.0,0.0,0.0,0.0,0.0,0.0,0.0,0.0,0.0,0.0,0.0,0.0,0.0,0.0,0.0,0.0,0.0,0.0,0.0,0.0,0.0,0.0,0.0,0.0,0.0,0.0,0.0,0.0,0.0,0.0,0.0,0.0,-4.3898,-4.4556,-4.5214,0.0,0.0,0.0,0.0,0.0,0.0,-4.6112,-4.5992,0.0,0.0,0.0,0.0,0.0,0.0,0.0,0.0,0.0,0.0,0.0,0.0,0.0,0.0,0.0,0.0,0.0,0.0,0.0,0.0,0.0,0.0,0.0,0.0,0.0,0.0,0.0,0.0,0.0,0.0,0.0,0.0,0.0,0.0,0.0,0.0,0.0,0.0,0.0,0.0,0.0,0.0,0.0,0.0,0.0,0.0,0.0,0.0,0.0,0.0,0.0,0.0,0.0,0.0,0.0,-4.7279,-4.864,-4.9583,-5.0166,-5.0315,-5.0315,-5.0166,-4.9105,-4.7818,0.0,0.0,0.0,0.0,0.0,0.0,0.0,0.0,0.0,0.0,0.0,0.0,0.0,0.0,0.0,0.0,0.0,0.0,0.0,0.0,0.0,0.0,0.0,0.0,0.0,0.0,0.0,0.0,0.0,0.0,0.0,0.0,0.0,0.0,0.0,0.0,0.0,0.0,0.0,0.0,0.0,-4.5005,-4.5783,-4.5903,0.0,0.0,0.0,0.0,-4.6518,-4.695,0.0,0.0,0.0,0.0,0.0,0.0,0.0,0.0,0.0,0.0,0.0,0.0,0.0,0.0,0.0,0.0,0.0,0.0,0.0,0.0,0.0,0.0,0.0,0.0,0.0,0.0,0.0,0.0,0.0,0.0,0.0,0.0,0.0,0.0,0.0,0.0,0.0,0.0,0.0,0.0,0.0,0.0,0.0,0.0,0.0,0.0,0.0,0.0,0.0,0.0,0.0,0.0,0.0,0.0,0.0,0.0,-4.7249,-4.8596,-4.9583,-5.0166,-5.081,-5.084,-5.0196,-4.9523,-4.8267,0.0,0.0,0.0,0.0,0.0,0.0,0.0,0.0,0.0,0.0,0.0,0.0,0.0,0.0,0.0,0.0,0.0,0.0,0.0,0.0,0.0,0.0,0.0,0.0,0.0,0.0,0.0,0.0,0.0,0.0,0.0,0.0,0.0,0.0,0.0,0.0,0.0,0.0,0.0,0.0,0.0,-4.6531,-4.7758,-4.7938,-4.7728,0.0,0.0,-4.7848,-4.7279,-4.7249,0.0,0.0,0.0,0.0,0.0,0.0,0.0,0.0,0.0,0.0,0.0,0.0,0.0,0.0,0.0,0.0,0.0,0.0,0.0,0.0,0.0,0.0,0.0,0.0,0.0,0.0,0.0,0.0,0.0,0.0,0.0,0.0,0.0,0.0,0.0,0.0,0.0,0.0,0.0,0.0,0.0,0.0,0.0,0.0,0.0,0.0,0.0,0.0,0.0,0.0,0.0,0.0,0.0,0.0,0.0,-4.6052,-4.8327,-4.903,-4.9763,-5.0704,-5.1079,-5.1033,-5.0734,-4.9793,-4.8686,0.0,0.0,0.0,0.0,0.0,0.0,0.0,0.0,0.0,0.0,0.0,0.0,0.0,0.0,0.0,0.0,0.0,0.0,0.0,0.0,0.0,0.0,0.0,0.0,0.0,0.0,0.0,0.0,0.0,0.0,0.0,0.0,0.0,0.0,0.0,0.0,0.0,0.0,0.0,0.0,0.0,0.0,-4.8117,-4.8297,0.0,0.0,0.0,-4.867,-4.7967,0.0,0.0,0.0,0.0,0.0,0.0,0.0,0.0,0.0,0.0,0.0,0.0,0.0,0.0,0.0,0.0,0.0,0.0,0.0,0.0,0.0,0.0,0.0,0.0,0.0,0.0,0.0,0.0,0.0,0.0,0.0,0.0,0.0,0.0,0.0,0.0,0.0,0.0,0.0,0.0,0.0,0.0,0.0,0.0,0.0,0.0,0.0,0.0,0.0,0.0,0.0,0.0,0.0,0.0,0.0,0.0,0.0,-4.9239,-4.9299,-4.9912,-5.1169,-5.1229,-5.1229,-5.1199,-4.9942,0.0,0.0,0.0,0.0,0.0,0.0,0.0,0.0,0.0,0.0,0.0,0.0,0.0,0.0,0.0,0.0,0.0,0.0,0.0,0.0,0.0,0.0,0.0,0.0,0.0,0.0,0.0,-4.0696,0.0,0.0,0.0,0.0,0.0,0.0,0.0,0.0,0.0,0.0,0.0,0.0,0.0,0.0,-4.7549,-4.8835,-4.8865,-4.8895,0.0,0.0,-4.9284,-4.8626,-4.858,-4.8207,0.0,0.0,0.0,0.0,0.0,0.0,0.0,0.0,0.0,0.0,0.0,0.0,0.0,0.0,0.0,0.0,0.0,0.0,0.0,0.0,0.0,0.0,0.0,0.0,0.0,0.0,0.0,0.0,0.0,0.0,0.0,0.0,0.0,0.0,0.0,0.0,0.0,0.0,0.0,0.0,0.0,0.0,0.0,0.0,0.0,0.0,0.0,0.0,0.0,0.0,0.0,0.0,0.0,0.0,0.0,-4.9179,-4.9299,-4.9912,-5.1169,-5.1229,-5.1229,-5.1199,-4.9942,-4.9,0.0,0.0,0.0,0.0,0.0,0.0,0.0,0.0,0.0,0.0,0.0,0.0,0.0,0.0,0.0,0.0,0.0,0.0,0.0,0.0,0.0,0.0,0.0,0.0,0.0,0.0,0.0,0.0,0.0,0.0,0.0,0.0,0.0,0.0,0.0,0.0,0.0,0.0,0.0,0.0,0.0,-4.9553,-5.084,-5.0465,-4.9912,0.0,0.0,-4.9897,-4.9359,-4.9239,-4.9209,-4.912,0.0,0.0,0.0,0.0,0.0,0.0,0.0,0.0,0.0,0.0,0.0,0.0,0.0,0.0,0.0,0.0,0.0,0.0,0.0,0.0,0.0,0.0,0.0,0.0,0.0,0.0,0.0,0.0,0.0,0.0,0.0,0.0,0.0,0.0,0.0,0.0,0.0,0.0,0.0,0.0,0.0,0.0,0.0,0.0,0.0,0.0,0.0,0.0,0.0,0.0,0.0,0.0,0.0,-4.7429,-4.9269,-4.9673,-5.0301,-5.1169,-5.1229,-5.1229,-5.1229,-5.0331,-4.9553,0.0,0.0,0.0,0.0,0.0,0.0,0.0,0.0,0.0,0.0,0.0,0.0,0.0,0.0,0.0,0.0,0.0,0.0,0.0,0.0,0.0,0.0,0.0,0.0,0.0,0.0,0.0,0.0,-4.5514,-4.6022,-4.6249,0.0,0.0,0.0,0.0,0.0,0.0,0.0,0.0,0.0,0.0,-5.0062,-5.0495,-5.0345,0.0,0.0,-5.069,-5.0631,-4.9972,-4.9853,-4.9883,-4.9853,-4.9105,0.0,0.0,0.0,0.0,0.0,0.0,0.0,0.0,0.0,0.0,0.0,0.0,0.0,0.0,0.0,0.0,0.0,0.0,0.0,0.0,0.0,0.0,0.0,0.0,0.0,0.0,0.0,0.0,0.0,0.0,0.0,0.0,0.0,0.0,0.0,0.0,0.0,0.0,0.0,0.0,0.0,0.0,0.0,0.0,0.0,0.0,0.0,0.0,0.0,0.0,0.0,0.0,-4.7938,-4.9299,-4.9912,-5.0524,-5.1152,-5.1229,-5.1229,-5.1199,-5.0524,-4.9986,0.0,0.0,0.0,0.0,0.0,0.0,0.0,0.0,0.0,0.0,0.0,0.0,0.0,0.0,0.0,0.0,0.0,0.0,0.0,0.0,0.0,0.0,0.0,0.0,0.0,0.0,0.0,0.0,-4.6501,-4.6741,-4.6352,0.0,0.0,0.0,0.0,0.0,0.0,0.0,0.0,0.0,0.0,-5.0554,-5.0734,-5.0764,-5.0943,-5.1439,-5.1678,-5.1648,-5.1199,-5.1109,-5.1109,-5.1109,0.0,0.0,0.0,0.0,0.0,0.0,0.0,0.0,0.0,0.0,0.0,0.0,0.0,0.0,0.0,0.0,0.0,0.0,0.0,0.0,0.0,0.0,0.0,0.0,0.0,0.0,0.0,0.0,0.0,0.0,-4.2767,0.0,0.0,0.0,0.0,0.0,0.0,0.0,0.0,0.0,0.0,0.0,0.0,0.0,0.0,0.0,0.0,0.0,0.0,0.0,0.0,0.0,0.0,-4.7967,-4.9299,-4.9942,-5.0524,-5.1199,-5.1229,-5.1229,-5.1199,-5.0524,-5.0196,-5.0166,0.0,0.0,0.0,0.0,0.0,0.0,0.0,0.0,0.0,0.0,0.0,0.0,0.0,0.0,0.0,0.0,0.0,0.0,0.0,0.0,0.0,0.0,0.0,0.0,0.0,0.0,-4.716,-4.7818,-4.7698,0.0,0.0,0.0,0.0,0.0,0.0,0.0,0.0,0.0,0.0,-5.1122,-5.1439,-5.2067,-5.2157,-5.2127,-5.2187,-5.2695,-5.3114,-5.3054,-5.3084,-5.3114,0.0,0.0,0.0,0.0,0.0,0.0,0.0,0.0,0.0,0.0,0.0,0.0,0.0,0.0,0.0,0.0,0.0,0.0,0.0,0.0,0.0,0.0,0.0,0.0,0.0,0.0,0.0,-4.5734,-4.5387,0.0,0.0,0.0,0.0,0.0,0.0,0.0,0.0,0.0,0.0,0.0,-4.6292,-4.6082,0.0,0.0,0.0,0.0,0.0,0.0,0.0,0.0,0.0,0.0,0.0,0.0,-4.9045,-4.9912,-5.0571,-5.099,-5.1229,-5.1229,-5.1229,-5.1229,-5.0943,-5.0644,-5.0196,0.0,0.0,0.0,0.0,0.0,0.0,0.0,0.0,0.0,0.0,0.0,0.0,0.0,0.0,0.0,0.0,0.0,0.0,0.0,0.0,0.0,0.0,0.0,0.0,0.0,-4.6591,0.0,0.0,0.0,0.0,0.0,0.0,0.0,0.0,0.0,0.0,0.0,-5.1379,-5.1798,-5.2636,-5.3114,-5.2905,-5.2845,-5.2845,0.0,0.0,0.0,0.0,0.0,0.0,0.0,0.0,0.0,0.0,0.0,0.0,0.0,0.0,-5.3147,-5.1726,-5.2137,-5.2733,-5.2997,0.0,0.0,0.0,0.0,0.0,0.0,0.0,0.0,0.0,0.0,0.0,0.0,0.0,0.0,-4.8256,0.0,-4.7389,0.0,0.0,0.0,0.0,0.0,0.0,0.0,0.0,-4.8027,-4.8446,-4.8656,-4.8656,-4.8656,0.0,-4.8865,-4.8297,0.0,0.0,0.0,0.0,0.0,0.0,0.0,0.0,-4.9823,-5.0196,-5.0823,-5.1229,-5.1229,-5.1229,-5.1229,-5.1229,-5.1229,-5.0853,-5.0196,-4.9434,-4.8686,0.0,0.0,0.0,0.0,0.0,0.0,0.0,0.0,0.0,0.0,0.0,0.0,0.0,0.0,0.0,0.0,0.0,0.0,0.0,0.0,0.0,0.0,0.0,-4.7279,0.0,0.0,0.0,0.0,0.0,0.0,0.0,0.0,0.0,-4.9942,-5.1259,-5.2276,-5.2516,-5.3294,-5.3683,-5.3264,0.0,0.0,0.0,0.0,0.0,0.0,0.0,-5.5359,-5.5777,-5.5867,-5.5987,-5.6436,-5.6393,-5.6375,-5.6526,0.0,0.0,-5.47,-5.5121,-5.586,-5.6225,-5.7496,-5.8785,-5.9572,-6.0482,-6.1405,0.0,0.0,0.0,0.0,0.0,0.0,0.0,0.0,-5.1452,-5.1577,0.0,-5.0262,0.0,0.0,0.0,0.0,0.0,-4.8367,0.0,0.0,-5.0062,-5.0614,-5.1229,-5.1259,-5.1259,-5.1259,-5.0584,-5.0285,-5.0226,-4.9673,0.0,0.0,0.0,0.0,0.0,0.0,-5.0196,-5.0285,-5.0913,-5.1259,-5.1289,-5.1289,-5.1289,-5.1319,-5.1289,-5.0913,-5.0315,-5.0226,-4.9972,-4.9359,-4.7866,0.0,0.0,0.0,0.0,0.0,0.0,0.0,0.0,0.0,0.0,0.0,0.0,0.0,0.0,0.0,0.0,0.0,0.0,0.0,0.0,-4.7938,0.0,0.0,0.0,0.0,0.0,0.0,0.0,0.0,0.0,0.0,-5.1319,-5.1887,-5.2516,-5.3174,0.0,0.0,0.0,0.0,-5.5239,-5.5239,-5.6286,-5.7064,-5.7064,-5.7094,-5.7094,-5.7094,0.0,0.0,-5.7296,-5.7505,-5.7773,-5.7743,-5.8471,-5.8684,-5.7916,-5.8546,-5.9535,-6.0289,-6.1381,-6.2395,-6.2892,-6.3518,-6.4178,-5.4295,0.0,0.0,0.0,0.0,-5.2039,-5.2744,-5.4016,-5.3662,-5.3776,-5.4188,-5.351,0.0,0.0,0.0,0.0,0.0,0.0,-5.1439,-5.2067,-5.2247,-5.2426,-5.2606,-5.2636,-5.2606,-5.2606,-5.2426,-5.2336,-5.2336,-5.2157,-5.1156,-4.9359,0.0,0.0,0.0,0.0,-5.0644,-5.1588,-5.1828,-5.2157,-5.2606,-5.2606,-5.2606,-5.2606,-5.2157,-5.1828,-5.1648,-5.1169,-5.0631,-4.9927,-4.9385,0.0,0.0,0.0,0.0,0.0,0.0,0.0,0.0,0.0,0.0,0.0,0.0,0.0,0.0,0.0,0.0,0.0,0.0,0.0,-4.8656,-4.894,-4.909,0.0,0.0,0.0,0.0,0.0,0.0,0.0,0.0,0.0,-5.3234,-5.3503,-5.3862,0.0,0.0,-5.5529,-5.5897,-5.6316,-5.6526,-5.6555,-5.6855,0.0,-5.7094,-5.7513,-5.7812,-5.7842,-5.862,-5.9423,-6.012,-6.0512,-6.0782,-6.0966,-6.155,-6.2053,-6.216,-6.1544,-6.1599,-6.269,-6.3928,-6.4833,-6.5218,-6.5961,-6.6593,-5.7177,-5.5521,-5.4494,-5.4494,-5.5085,-5.4815,-5.528,-5.6283,-5.5921,-5.6025,-5.6463,-5.5868,-5.5473,-5.5084,-5.4179,0.0,0.0,0.0,-5.3061,-5.3593,-5.3593,-5.3713,-5.3952,-5.3982,-5.4102,-5.4391,-5.4102,-5.4102,-5.4371,-5.4371,-5.3443,-5.1695,0.0,0.0,-5.1409,-5.1409,-5.1798,-5.2546,-5.2576,-5.2785,-5.3174,-5.3174,-5.3174,-5.3174,-5.2785,-5.2606,-5.2576,-5.1977,-5.1439,-5.102,-5.0309,-4.9321,0.0,0.0,0.0,0.0,0.0,0.0,0.0,0.0,0.0,0.0,0.0,-4.4785,-4.6357,0.0,0.0,0.0,-4.8895,-4.9314,-5.0002,-4.9823,0.0,0.0,0.0,0.0,0.0,0.0,0.0,-5.1588,-5.2636,-5.3683,-5.4491,-5.5029,-5.5418,-5.5568,-5.6137,-5.6675,-5.7034,0.0,-5.7603,-5.7842,-5.8112,-5.8381,-5.865,-5.9039,-5.9308,-5.9308,-5.9937,-6.0676,-6.1343,-6.174,-6.2099,-6.2395,-6.2986,-6.3713,-6.4538,-6.426,-6.4173,-6.4833,-6.5633,-6.6303,-6.6707,-6.7685,-6.8473,-5.9065,-5.8966,-5.7608,-5.7376,-5.7873,-5.7674,-5.7869,-5.8281,-5.8074,-5.8278,-5.8605,-5.7559,-5.714,-5.7204,-5.5472,0.0,-5.4309,-5.402,-5.4108,-5.4431,-5.4431,-5.476,-5.5329,-5.5329,-5.5658,-5.6278,-5.5628,-5.5658,-5.6248,-5.6278,-5.5978,-5.5329,-5.4102,-5.3414,-5.3313,-5.3204,-5.3204,-5.3264,-5.3264,-5.3294,-5.3354,-5.3354,-5.3324,-5.3354,-5.3294,-5.3264,-5.3234,-5.2636,-5.2247,-5.2157,-5.0815,-4.9991,-4.9842,0.0,0.0,0.0,0.0,0.0,0.0,0.0,0.0,0.0,0.0,0.0,0.0,0.0,0.0,0.0,-5.0122,0.0,-5.1319,-5.0794,0.0,0.0,0.0,-5.1139,-5.0495,-5.2067,-5.2965,-5.2516,0.0,0.0,-5.5329,-5.6406,-5.6974,-5.6466,-5.6855,-5.7214,-5.7334,-5.7902,-5.8501,-5.9159,-5.9757,-6.0356,-6.0745,-6.0924,-6.0954,-6.1044,-6.1194,-6.1336,-6.173,-6.2037,-6.2281,-6.2639,-6.3331,-6.4204,-6.5407,-6.6465,-6.7323,-6.6858,-6.7081,-6.748,-6.8035,-6.9103,-6.9964,-6.0589,-6.0556,-6.0191,-5.9529,-5.8634,-5.8434,-5.8667,-5.921,-5.8909,-5.9121,-5.9719,-5.8868,-5.8423,-5.8169,-5.7703,-5.7312,-5.7041,-5.6788,-5.6543,-5.6406,-5.6406,-5.6496,-5.6645,-5.6645,-5.6705,-5.6855,-5.6705,-5.6735,-5.6855,-5.6885,-5.6795,-5.6615,-5.6316,-5.5418,-5.3982,-5.3443,-5.3443,-5.3952,-5.3952,-5.4221,-5.47,-5.473,-5.47,-5.47,-5.4221,-5.3982,-5.3952,-5.3324,-5.2725,-5.2217,-5.184,-5.1101,-4.9931,-4.886,0.0,0.0,0.0,0.0,0.0,0.0,0.0,0.0,0.0,-4.7837,-5.0037,0.0,-5.1498,0.0,-5.2396,-5.2546,-5.2695,-5.2576,0.0,0.0,-5.2606,-5.2665,-5.2516,-5.2905,-5.3503,-5.4401,-5.491,-5.5568,-5.6526,-5.7363,-5.8022,-5.8351,-5.8112,-5.8231,-5.9189,-5.9488,-5.9847,-6.0475,-6.0745,-6.0924,-6.1104,-6.1104,-6.1313,-6.1792,-6.1882,-6.2202,-6.3248,-6.3451,-6.3675,-6.423,-6.4801,-6.5455,-6.6196,-6.7376,-6.8422,-6.9106,-6.973,-7.0289,-7.0861,-7.1223,-7.1488,-6.1285,-6.1583,-6.1583,-6.1285,-6.0821,-6.0035,-5.9845,-6.0083,-6.0073,-6.0293,-6.0511,-5.9864,-5.938,-5.8975,-5.8708,-5.841,-5.8156,-5.7931,-5.7592,-5.7333,-5.7146,-5.7094,-5.7094,-5.7094,-5.7244,-5.7543,-5.7543,-5.7693,-5.7992,-5.7992,-5.7992,-5.7992,-5.7693,-5.7004,-5.5987,-5.5269,-5.497,-5.5059,-5.479,-5.482,-5.5179,-5.5209,-5.5209,-5.5179,-5.485,-5.464,-5.464,-5.3982,-5.3473,-5.3114,-5.2815,-5.2258,-5.1399,-5.0381,-4.9604,0.0,0.0,0.0,0.0,0.0,0.0,0.0,0.0,0.0,0.0,0.0,-5.2965,-5.3982,-5.3533,-5.3294,-5.3623,-5.3354,-5.3174,-5.3174,-5.3443,-5.3743,-5.4042,-5.4391,-5.491,-5.5927,-5.6316,-5.6765,-5.7483,-5.8381,-5.9129,-5.9488,-5.9488,-5.9727,-6.0356,-6.0535,-6.0775,-6.1433,-6.1553,-6.1672,-6.1912,-6.2002,-6.2091,-6.2421,-6.2625,-6.3003,-6.3876,-6.4075,-6.4356,-6.4832,-6.5351,-6.5915,-6.6512,-6.763,-6.8808,-6.9823,-7.0664,-7.1324,-7.1886,-7.225,-7.2481,-6.1748,-6.2354,-6.2354,-6.2719,-6.3216,-6.1914,-6.1258,-6.1047,-6.1534,-6.1491,-6.117,-6.0706,-6.0214,-5.9759,-5.9309,-5.8938,-5.8634,-5.843,-5.8122,-5.7811,-5.7521,-5.7416,-5.7363,-5.7334,-5.7693,-5.8351,-5.8381,-5.871,-5.9338,-5.9368,-5.9368,-5.9338,-5.88,-5.8471,-5.8351,-5.7782,-5.7094,-5.6338,-5.5718,-5.5418,-5.5448,-5.5418,-5.5448,-5.5448,-5.5418,-5.5388,-5.5299,-5.476,-5.4371,-5.4221,-5.3623,-5.3264,-5.3174,-5.1906,-5.1185,0.0,-4.9229,0.0,0.0,0.0,0.0,0.0,0.0,0.0,0.0,-5.3264,-5.4581,-5.5149,-5.4132,-5.3713,-5.4401,-5.3922,-5.3593,-5.3713,-5.4221,-5.482,-5.5388,-5.5957,-5.6526,-5.7154,-5.7752,-5.8141,-5.8411,-5.9398,-6.0086,-6.0356,-6.0805,-6.1194,-6.1373,-6.1313,-6.1463,-6.2121,-6.2211,-6.2391,-6.2839,-6.3077,-6.3077,-6.3164,-6.3306,-6.3652,-6.3963,-6.4244,-6.4524,-6.4888,-6.5351,-6.5915,-6.6512,-6.763,-6.884,-7.0039,-7.0861,-7.1521,-7.1936,-7.2581,-7.3078,-6.2984,-6.3116,-6.3116,-6.3183,-6.3282,-6.3017,-6.2875,-6.2832,-6.2672,-6.2255,-6.166,-6.1534,-6.115,-6.0756,-6.0738,-6.0476,-6.0031,-5.9958,-5.9666,-5.9168,-5.9084,-5.8924,-5.871,-5.874,-5.9069,-5.9697,-5.9727,-6.0057,-6.0715,-6.0715,-6.0745,-6.0715,-6.0595,-6.0266,-5.9727,0.0,0.0,0.0,-5.6795,-5.6735,-5.6735,-5.6735,-5.6735,-5.6735,-5.6735,0.0,-5.6017,-5.5867,-5.5299,-5.4281,-5.4102,0.0,0.0,0.0,0.0,0.0,0.0,0.0,0.0,0.0,0.0,0.0,-5.2916,-5.3574,-5.3683,-5.4491,-5.5059,-5.5179,-5.494,-5.5089,-5.5748,-5.5688,-5.5807,-5.6286,-5.6466,-5.6615,-5.6735,-5.6855,-5.7184,-5.7842,-5.8052,-5.853,-5.9602,-5.9937,-6.0505,-6.1519,-6.1822,-6.2121,-6.26,-6.2211,-6.2181,-6.275,-6.2899,-6.2929,-6.3107,-6.3166,-6.3254,-6.3367,-6.3451,-6.3736,-6.4158,-6.4356,-6.4524,-6.4863,-6.5351,-6.5978,-6.6543,-6.763,-6.9085,-7.0659,-7.1549,-7.2112,-7.2052,-7.2581,-7.3111,-6.3547,0.0,-6.3835,-6.4001,0.0,-6.4332,-6.4332,-6.4299,-6.3705,-6.3248,-6.2844,-6.2444,-6.2024,-6.168,-6.1356,-6.1052,-6.0794,-6.0534,-6.0402,-6.0441,-6.0281,-6.0247,-6.0276,-6.0276,-6.0401,-6.0595,-6.0595,-6.0775,-6.1104,-6.1104,-6.1104,-6.1104,-6.1104,-6.0924,-6.0595,-6.0266,-5.9279,-5.7633,-5.7274,-5.7094,-5.7094,-5.7094,-5.7094,-5.7094,-5.7094,0.0,0.0,0.0,0.0,0.0,0.0,0.0,0.0,0.0,0.0,-5.3204,-5.2875,-5.2546,-5.2217,-5.2516,-5.2965,-5.3653,-5.488,-5.5508,-5.5179,-5.5478,-5.5807,-5.6107,-5.6137,-5.6256,-5.6585,-5.6615,-5.6765,-5.7064,-5.7094,-5.7214,-5.7543,-5.7708,-5.8234,-5.9135,-5.9476,-5.9891,-6.0941,-6.1338,-6.176,-6.2453,-6.2845,-6.3146,-6.3418,-6.2952,-6.281,-6.3408,-6.3528,-6.3528,-6.3586,-6.3732,-6.3697,-6.3571,-6.3736,-6.4045,-6.4326,-6.4799,-6.5238,-6.5578,-6.6347,-6.7112,-6.7736,-6.8711,-6.9814,-7.0888,-7.1585,-7.2,-7.2019,-7.2846,-7.3641,-6.4001,-6.4564,-6.4564,-6.4862,-6.5425,-6.5425,-6.5425,-6.5315,0.0,0.0,0.0,-6.3341,-6.2808,-6.2432,-6.1839,-6.1494,-6.134,-6.1049,-6.1125,-6.1539,-6.1355,-6.1358,-6.1599,-6.1489,-6.1468,-6.1339,-6.1283,-6.1343,-6.1463,-6.1463,-6.1463,-6.1463,-6.1463,-6.1403,-6.1253,-6.0625,-5.9668,-5.8501,-5.7812,-5.7453,-5.7453,-5.7453,-5.7453,-5.7453,-5.7453,-5.7393,-5.7274,-5.7274,-5.7214,-5.7094,-5.6615,-5.6398,-5.6286,-5.5299,-5.473,-5.47,-5.4192,-5.3862,-5.3862,-5.3862,-5.4391,-5.555,-5.6599,-5.6937,-5.6428,-5.6346,-5.6607,-5.7116,-5.7198,-5.7258,-5.7431,-5.7431,-5.7491,-5.7581,-5.7701,-5.8031,-5.8541,-5.8994,-5.9697,-6.0633,-6.1001,-6.1436,-6.205,-6.2597,-6.3052,-6.3204,-6.3572,-6.4054,-6.4088,-6.3776,-6.37,-6.427,-6.442,-6.442,-6.442,-6.4625,-6.45,-6.4311,-6.4471,-6.4748,-6.5009,-6.5576,-6.6195,-6.6585,-6.7582,-6.835,-6.9072,-6.9732,-7.061,-7.1251,-7.1637,-7.192,-7.2399,-7.331,-7.4038,-6.516,-6.526,-6.5293,-6.5326,-6.5425,-6.5425,-6.5425,-6.5348,-6.509,-6.4819,-6.4564,-6.4053,-6.3437,-6.279,-6.3046,-6.2774,-6.2136,-6.2641,-6.2632,-6.2242,-6.2188,-6.214,-6.1874,-6.1599,-6.179,-6.2277,-6.2055,-6.2241,-6.275,-6.278,-6.281,-6.278,-6.281,-6.251,-6.1972,-6.1313,-6.0595,-5.9817,-5.9159,-5.883,-5.883,-5.88,-5.88,-5.883,-5.88,-5.856,-5.7992,-5.7992,-5.7693,-5.7124,-5.7004,-5.6974,-5.6944,-5.6765,-5.6675,-5.6675,-5.6585,-5.6555,-5.6526,-5.6555,-5.6749,-5.7187,-5.745,-5.7406,-5.7027,-5.6974,-5.7109,-5.7488,-5.7579,-5.7885,-5.8607,-5.8728,-5.9001,-5.9546,-6.0092,-6.0455,-6.0546,-6.1055,-6.1504,-6.1777,-6.1807,-6.2135,-6.2773,-6.3016,-6.329,-6.3746,-6.4132,-6.4293,-6.487,-6.4786,-6.5001,-6.5546,-6.5698,-6.5698,-6.564,-6.5698,-6.5781,-6.5982,-6.5975,-6.6169,-6.6565,-6.692,-6.7355,-6.7825,-6.8453,-6.8952,-6.9489,-6.9974,-7.0921,-7.1924,-7.2393,-7.281,-7.3575,-7.4023,-7.4005,-6.5425,-6.5425,-6.5425,-6.5425,-6.5459,-6.5778,-6.6254,-6.6539,-6.6481,-6.6067,-6.5476,-6.4825,-6.4545,-6.4561,-6.422,-6.3791,-6.3463,-6.3338,-6.3331,-6.3402,-6.3271,-6.3238,-6.3299,-6.3133,-6.3092,-6.3056,-6.2916,-6.2952,-6.3107,-6.3137,-6.3137,-6.3137,-6.3137,-6.275,-6.2121,-6.1792,-6.1313,-6.0655,-5.9967,-5.9458,-5.9129,-5.9099,-5.9099,-5.9099,-5.9099,-5.8979,-5.868,-5.865,-5.8501,-5.8201,-5.7842,-5.7715,-5.7873,-5.7595,-5.7437,-5.7592,-5.7592,-5.7592,-5.7592,-5.7924,-5.8187,-5.8343,-5.8706,-5.9017,-5.9214,-5.8527,-5.8338,-5.8836,-5.8918,-5.9243,-5.9955,-6.01,-6.0373,-6.0988,-6.1376,-6.1528,-6.1558,-6.1934,-6.2354,-6.2689,-6.286,-6.3244,-6.3948,-6.404,-6.4156,-6.4635,-6.4967,-6.5678,-6.6882,-6.6793,-6.6555,-6.6569,-6.6513,-6.6513,-6.6571,-6.6689,-6.6622,-6.646,-6.6686,-6.6941,-6.7342,-6.7784,-6.8513,-6.8965,-6.9681,-7.0458,-7.0995,-7.1577,-7.2241,-7.285,-7.332,-7.3772,-7.4105,-7.4221,-7.4038,-6.5425,-6.5425,-6.5591,-6.5757,-6.5955,-6.6519,-6.7115,-6.7566,-6.7566,-6.7321,-6.6694,-6.5876,-6.577,-6.5983,-6.5386,-6.4996,-6.4772,-6.4288,-6.4293,-6.4621,-6.4329,-6.4334,-6.4574,-6.4437,-6.4158,-6.3736,-6.3565,-6.3484,-6.3374,-6.3346,-6.3378,-6.3498,-6.3378,-6.3049,-6.251,-6.2391,-6.2002,-6.1343,-6.0805,-6.0236,-5.9578,-5.9578,-5.9548,-5.9548,-5.9578,-5.9548,-5.9657,-5.9657,-5.9657,-5.9735,-5.9285,-5.9121,-5.9334,-5.8904,-5.8654,-5.8863,-5.8915,-5.8915,-5.8945,-5.9401,-5.9674,-5.9757,-6.0244,-6.0814,-6.134,-6.0577,-6.0128,-6.0457,-6.0548,-6.0761,-6.1317,-6.1462,-6.1706,-6.2225,-6.2463,-6.2663,-6.2663,-6.2948,-6.3333,-6.3855,-6.408,-6.4467,-6.5139,-6.5479,-6.572,-6.6189,-6.6678,-6.7652,-6.8625,-6.8537,-6.815,-6.777,-6.7535,-6.7535,-6.7535,-6.7711,-6.773,-6.7178,-6.7693,-6.8095,-6.8383,-6.9064,-6.9761,-7.0243,-7.1055,-7.1799,-7.2443,-7.2972,-7.3356,-7.3646,-7.3869,-7.4138,-7.4138,-7.4221,-7.4221,-6.5425,-6.5525,-6.6154,-6.6771,-6.7334,-6.7466,-6.7533,-6.7632,-6.7599,-6.7976,-6.828,-6.7485,-6.6737,-6.6258,-6.671,-6.652,-6.5861,-6.6132,-6.6132,-6.5866,-6.539,-6.518,-6.5132,-6.466,-6.4382,-6.4244,-6.3823,-6.387,-6.4354,-6.4122,-6.4216,-6.4695,-6.4216,-6.3887,-6.3767,-6.3258,-6.269,-6.2032,-6.1942,-6.1583,-6.0984,-6.0924,-6.0924,-6.0924,-6.0924,-6.1036,-6.1192,-6.1253,-6.1418,-6.1722,-6.1601,-6.1655,-6.1625,-6.1595,-6.1588,-6.1558,-6.1588,-6.1649,-6.1588,-6.1679,-6.1812,-6.2035,-6.2058,-6.2396,-6.2999,-6.2929,-6.2655,-6.2342,-6.2211,-6.2258,-6.2595,-6.2893,-6.3114,-6.3331,-6.3947,-6.4471,-6.448,-6.5031,-6.5405,-6.5467,-6.553,-6.5833,-6.6581,-6.7166,-6.7759,-6.8321,-6.8808,-6.9157,-6.9137,-6.9355,-6.9485,-6.9375,-6.9116,-6.8883,-6.8969,-6.9147,-6.9108,-6.9334,-6.974,-6.9929,-7.0123,-7.0521,-7.1186,-7.1464,-7.2025,-7.2529,-7.288,-7.3299,-7.3712,-7.3848,-7.4019,-7.4221,-7.4221,-7.4288,-7.4288,-6.6672,-6.6751,-6.7003,-6.7579,-6.8208,-6.8241,-6.8506,-6.8904,-6.8904,-6.9069,-6.9268,-6.8942,-6.8492,-6.8045,-6.7898,-6.7548,-6.7277,-6.6982,-6.6691,-6.6343,-6.5969,-6.5592,-6.5297,-6.5077,-6.4986,-6.4962,-6.471,-6.4904,-6.5248,-6.5076,-6.505,-6.5231,-6.4784,-6.4605,-6.4575,-6.4366,-6.4096,-6.3827,-6.3438,-6.3194,-6.2979,-6.1759,-6.116,-6.1297,-6.1353,-6.1463,-6.1795,-6.1795,-6.1849,-6.2014,-6.2014,-6.2068,-6.2232,-6.2232,-6.234,-6.2449,-6.2664,-6.2825,-6.3008,-6.3008,-6.3061,-6.3198,-6.3167,-6.3481,-6.4255,-6.4371,-6.4443,-6.4702,-6.3876,-6.3375,-6.3854,-6.4212,-6.4496,-6.4902,-6.5458,-6.5859,-6.5859,-6.6456,-6.6865,-6.6865,-6.7211,-6.7714,-6.8398,-6.8886,-6.9604,-7.0249,-7.0375,-7.0116,-7.0356,-7.0425,-7.03,-7.0331,-7.0104,-6.9875,-6.9761,-6.9818,-6.9933,-7.0161,-7.0501,-7.0925,-7.1037,-7.1557,-7.2079,-7.2294,-7.2721,-7.309,-7.3403,-7.3558,-7.3848,-7.4034,-7.4103,-7.4221,-7.4221,-7.4586,-7.4818,-6.7566,-6.7632,-6.7811,-6.8341,-6.897,-6.9003,-6.9301,-6.9765,-6.9798,-6.9798,-6.9798,-6.9798,-6.967,-6.943,-6.8797,-6.8501,-6.8351,-6.7644,-6.7213,-6.7005,-6.6744,-6.6381,-6.5958,-6.6036,-6.6016,-6.5914,-6.5836,-6.5975,-6.6267,-6.6275,-6.6159,-6.6159,-6.5741,-6.5532,-6.5502,-6.5381,-6.5261,-6.5201,-6.4751,-6.4627,-6.4651,-6.3273,-6.2341,-6.2203,-6.2173,-6.2339,-6.264,-6.2695,-6.2835,-6.289,-6.2969,-6.3078,-6.3295,-6.3295,-6.3402,-6.3671,-6.3969,-6.4181,-6.4497,-6.4497,-6.4497,-6.4497,-6.4497,-6.479,-6.546,-6.566,-6.6164,-6.6996,-6.6026,-6.5418,-6.5176,-6.5639,-6.6112,-6.6585,-6.705,-6.742,-6.7589,-6.8002,-6.8309,-6.8426,-6.9042,-6.9817,-7.0549,-7.1,-7.1438,-7.1943,-7.1552,-7.1096,-7.1561,-7.1314,-7.1029,-7.0949,-7.0949,-7.0726,-7.0331,-7.0388,-7.0501,-7.0726,-7.1116,-7.1479,-7.1534,-7.224,-7.2668,-7.2794,-7.3162,-7.3422,-7.3609,-7.3764,-7.4148,-7.4451,-7.4602,-7.4734,-7.4933,-7.5297,-7.5496,-6.7566,-6.7744,-6.8374,-6.9069,-6.9732,-6.9699,-6.9732,-6.9798,-6.9798,-6.9798,-6.9798,-6.9798,-6.9798,-6.9751,-6.9496,-6.9221,-6.8896,-6.8434,-6.8165,-6.8078,-6.7988,-6.78,-6.7543,-6.7872,-6.7745,-6.7249,-6.6966,-6.6936,-6.7056,-6.7514,-6.7879,-6.7818,-6.7151,-6.6878,-6.6787,-6.6333,-6.5938,-6.6001,-6.588,-6.5936,-6.5905,-6.5784,-6.5025,-6.408,-6.3902,-6.404,-6.429,-6.4568,-6.4789,-6.5149,-6.5305,-6.5521,-6.5553,-6.549,-6.5567,-6.5835,-6.5888,-6.6079,-6.6291,-6.6312,-6.6375,-6.6459,-6.6428,-6.6628,-6.7089,-6.7297,-6.7843,-6.8711,-6.8769,-6.8222,-6.706,-6.7462,-6.7885,-6.8012,-6.8797,-6.9402,-6.9741,-6.9793,-6.9994,-7.0247,-7.0934,-7.1787,-7.308,-7.3393,-7.321,-7.3285,-7.3274,-7.2994,-7.2207,-7.1992,-7.1852,-7.1721,-7.1612,-7.1447,-7.1203,-7.1203,-7.1314,-7.1502,-7.1775,-7.2133,-7.2401,-7.2721,-7.2985,-7.3279,-7.3689,-7.3928,-7.3881,-7.4115,-7.4632,-7.5065,-7.5628,-7.5827,-7.5662,-7.6059,-7.6258,-6.9003,-6.9036,-6.9268,-6.9566,-6.9765,-6.9798,-6.9798,-6.9798,-6.9798,-6.9798,-6.9798,-6.9798,-6.9798,-6.9831,-7.0199,-6.994,-6.9336,-6.9386,-6.9234,-6.8978,-6.9317,-6.9221,-6.8616,-6.8545,-6.8564,-6.8551,-6.8245,-6.8245,-6.8489,-6.8384,-6.8238,-6.8208,-6.7846,-6.7605,-6.7635,-6.7393,-6.7241,-6.727,-6.6847,-6.6721,-6.6925,-6.647,-6.6155,-6.6124,-6.598,-6.598,-6.6201,-6.6703,-6.7065,-6.7175,-6.704,-6.6897,-6.6834,-6.6488,-6.6427,-6.6659,-6.6659,-6.6764,-6.7057,-6.7109,-6.7405,-6.7976,-6.8092,-6.8492,-6.9208,-6.9542,-6.9793,-7.0276,-7.0442,-7.0095,-6.9826,-6.9717,-6.9795,-6.9879,-7.0228,-7.0661,-7.0796,-7.1173,-7.1518,-7.1784,-7.26,-7.3612,-7.3906,-7.4049,-7.4049,-7.4016,-7.3657,-7.3246,-7.2965,-7.2814,-7.2762,-7.2741,-7.2656,-7.2656,-7.2582,-7.2208,-7.21,-7.2262,-7.2476,-7.2859,-7.3122,-7.341,-7.3703,-7.4215,-7.4507,-7.4827,-7.4944,-7.5275,-7.5628,-7.5794,-7.6357,-7.6589,-7.6291,-7.6755,-7.6987,-6.9798,-6.9798,-6.9798,-6.9798,-6.9798,-6.9798,-6.9798,-6.9798,-6.9798,-6.9798,-6.9831,-7.003,-7.0163,-7.0262,-7.0924,-7.0927,-7.027,-7.0486,-7.0385,-7.0098,-7.0731,-7.0591,-6.999,-6.9915,-6.9886,-6.9856,-6.9471,-6.9438,-6.9614,-6.9123,-6.8858,-6.8858,-6.8654,-6.8595,-6.8625,-6.8809,-6.8932,-6.887,-6.8687,-6.8682,-6.8766,-6.8397,-6.844,-6.881,-6.8655,-6.8158,-6.7679,-6.806,-6.839,-6.8436,-6.8381,-6.8426,-6.8468,-6.8086,-6.7935,-6.8196,-6.8248,-6.8351,-6.8576,-6.8659,-6.8904,-6.9561,-6.9626,-7.0058,-7.0819,-7.1037,-7.1236,-7.1552,-7.1801,-7.1834,-7.2064,-7.1978,-7.1727,-7.1495,-7.1611,-7.1927,-7.2011,-7.2488,-7.2901,-7.3281,-7.3793,-7.43,-7.4563,-7.4431,-7.4333,-7.43,-7.3872,-7.3609,-7.3473,-7.3473,-7.3422,-7.3318,-7.3266,-7.3345,-7.3489,-7.3388,-7.3261,-7.3388,-7.3388,-7.3639,-7.3966,-7.4272,-7.4573,-7.5139,-7.5521,-7.5842,-7.6159,-7.649,-7.6622,-7.6655,-7.7086,-7.745,-7.7384,-7.7484,-7.7616,-6.9798,-6.9864,-6.9831,-6.9864,-6.9898,-6.9898,-6.9831,-6.9798,-6.9831,-6.9931,-7.003,-7.0593,-7.0891,-7.1057,-7.1686,-7.1985,-7.1853,-7.1755,-7.1638,-7.1538,-7.2044,-7.1961,-7.144,-7.1884,-7.1745,-7.1076,-7.0582,-7.03,-7.0275,-6.9995,-6.9854,-6.9849,-6.9916,-6.9952,-6.9823,-7.0509,-7.082,-7.0883,-7.1226,-7.1627,-7.1874,-7.1534,-7.1647,-7.206,-7.1755,-7.0645,-6.8595,-6.8798,-6.9101,-6.9307,-6.9776,-7.0111,-7.0222,-7.0125,-7.0377,-7.0485,-7.0634,-7.0819,-7.0989,-7.0924,-7.0808,-7.1138,-7.1189,-7.1204,-7.1552,-7.1703,-7.2051,-7.2628,-7.2911,-7.3293,-7.3822,-7.3889,-7.3455,-7.2653,-7.2831,-7.3262,-7.3548,-7.3731,-7.413,-7.4698,-7.4584,-7.4535,-7.4867,-7.465,-7.4235,-7.4202,-7.4136,-7.4019,-7.3815,-7.3764,-7.3661,-7.3539,-7.367,-7.3985,-7.4314,-7.4557,-7.459,-7.457,-7.4517,-7.4675,-7.5095,-7.5417,-7.562,-7.6068,-7.6518,-7.6821,-7.692,-7.7219,-7.7384,-7.7517,-7.7947,-7.8146,-7.8113,-7.808,-7.8212,-7.0096,-7.0527,-7.056,-7.056,-7.056,-7.056,-7.0295,-6.9898,-7.0295,-7.0527,-7.0693,-7.1322,-7.1653,-7.1819,-7.2415,-7.278,-7.2813,-7.311,-7.3043,-7.2545,-7.3054,-7.3094,-7.2763,-7.2717,-7.239,-7.1798,-7.136,-7.1116,-7.102,-7.1118,-7.1137,-7.1231,-7.1666,-7.1855,-7.1855,-7.2107,-7.2233,-7.2265,-7.2422,-7.2548,-7.2548,-7.2548,-7.2664,-7.301,-7.3073,-7.2844,-7.26,-7.181,-7.1381,-7.1424,-7.1532,-7.1406,-7.1066,-7.0935,-7.0986,-7.1055,-7.1088,-7.1088,-7.1189,-7.1272,-7.1585,-7.2064,-7.2246,-7.2611,-7.3158,-7.3292,-7.3441,-7.3706,-7.384,-7.3972,-7.4155,-7.4221,-7.3988,-7.3638,-7.3836,-7.3917,-7.4019,-7.407,-7.422,-7.4403,-7.4354,-7.4303,-7.4436,-7.4255,-7.4221,-7.4221,-7.4255,-7.4187,-7.4103,-7.4151,-7.4334,-7.4563,-7.4643,-7.4856,-7.5351,-7.5746,-7.5793,-7.5773,-7.5773,-7.5773,-7.6195,-7.6498,-7.6683,-7.6934,-7.7331,-7.7616,-7.7715,-7.7848,-7.798,-7.808,-7.8279,-7.8411,-7.8477,-7.8577,-7.8676,-7.0891,-7.1289,-7.1289,-7.1322,-7.1322,-7.1322,-7.1057,-7.0693,-7.109,-7.1322,-7.1455,-7.2084,-7.2415,-7.2581,-7.3177,-7.3475,-7.3575,-7.3972,-7.3889,-7.3406,-7.3653,-7.3764,-7.3473,-7.3214,-7.3063,-7.2886,-7.2617,-7.2453,-7.2467,-7.2604,-7.2659,-7.2641,-7.2991,-7.3181,-7.3245,-7.3436,-7.3563,-7.3594,-7.3817,-7.3886,-7.3944,-7.4059,-7.4263,-7.4516,-7.4598,-7.4891,-7.5234,-7.43,-7.3584,-7.3258,-7.3004,-7.2671,-7.2312,-7.2363,-7.2279,-7.2279,-7.2363,-7.2363,-7.2312,-7.2428,-7.2578,-7.3158,-7.3257,-7.349,-7.4072,-7.4221,-7.4221,-7.4221,-7.4188,-7.4221,-7.4221,-7.4221,-7.4221,-7.4221,-7.4171,-7.4221,-7.4221,-7.4221,-7.4171,-7.4255,-7.4221,-7.4221,-7.4221,-7.4221,-7.4221,-7.4171,-7.4403,-7.4568,-7.4635,-7.4867,-7.5231,-7.5529,-7.5577,-7.5922,-7.6537,-7.6802,-7.7,-7.7067,-7.7047,-7.7027,-7.7245,-7.7398,-7.753,-7.7662,-7.8047,-7.808,-7.8179,-7.8246,-7.8378,-7.8511,-7.8577,-7.8511,-7.8577,-7.8941,-7.9107,-7.2067,-7.21,-7.21,-7.2133,-7.2133,-7.2051,-7.1985,-7.1918,-7.2051,-7.2051,-7.2216,-7.2846,-7.3177,-7.331,-7.3807,-7.4089,-7.4188,-7.4188,-7.4138,-7.4138,-7.427,-7.4184,-7.3961,-7.3722,-7.3894,-7.4314,-7.4167,-7.4225,-7.4322,-7.4328,-7.4203,-7.4044,-7.4173,-7.4117,-7.4365,-7.4726,-7.5039,-7.5136,-7.556,-7.5816,-7.5848,-7.611,-7.6395,-7.6556,-7.6317,-7.6322,-7.6496,-7.6055,-7.5352,-7.4537,-7.4056,-7.3917,-7.4087,-7.4221,-7.3955,-7.3922,-7.4105,-7.4038,-7.4105,-7.3855,-7.3955,-7.4038,-7.4038,-7.4221,-7.4171,-7.4221,-7.4221,-7.4221,-7.4221,-7.4221,-7.4221,-7.4221,-7.4221,-7.4221,-7.4221,-7.4221,-7.4221,-7.4221,-7.4221,-7.4221,-7.4221,-7.4221,-7.4221,-7.4288,-7.4354,-7.4487,-7.4951,-7.5264,-7.5397,-7.5662,-7.6159,-7.6357,-7.639,-7.6788,-7.7318,-7.7517,-7.7682,-7.7749,-7.7815,-7.7881,-7.7947,-7.808,-7.8146,-7.8312,-7.8544,-7.8577,-7.8577,-7.8643,-7.8742,-7.8842,-7.8776,-7.861,-7.8908,-7.9438,-7.967,-7.2901,-7.3353,-7.3207,-7.3109,-7.306,-7.2912,-7.2515,-7.2117,-7.2614,-7.2813,-7.2978,-7.3575,-7.384,-7.3906,-7.4089,-7.4221,-7.4221,-7.4221,-7.4221,-7.427,-7.4818,-7.4966,-7.4897,-7.4845,-7.5021,-7.5405,-7.5451,-7.539,-7.5298,-7.5712,-7.5886,-7.5896,-7.6177,-7.6493,-7.6678,-7.6688,-7.6874,-7.6874,-7.6948,-7.7111,-7.7111,-7.7167,-7.7278,-7.7356,-7.7468,-7.7566,-7.7663,-7.7251,-7.6418,-7.5157,-7.4944,-7.4683,-7.4237,-7.4221,-7.4221,-7.4221,-7.4221,-7.4221,-7.4221,-7.4221,-7.4221,-7.4221,-7.4221,-7.4221,-7.4221,-7.4221,-7.4221,-7.4221,-7.4221,-7.4221,-7.4221,-7.4221,-7.4221,-7.4221,-7.4221,-7.4221,-7.4221,-7.4221,-7.4221,-7.4221,-7.4221,-7.4288,-7.4387,-7.4668,-7.4966,-7.515,-7.5529,-7.6059,-7.6125,-7.6324,-7.6755,-7.702,-7.7185,-7.7583,-7.7947,-7.8146,-7.8279,-7.8345,-7.8345,-7.8345,-7.8411,-7.8444,-7.8444,-7.8511,-7.8842,-7.8974,-7.8941,-7.8974,-7.9074,-7.9306,-7.9571,-7.9736,-8.0001,-8.0399,-8.0399,-7.3964,-7.4366,-7.4186,-7.4137,-7.4088,-7.394,-7.3608,-7.3276,-7.3492,-7.3642,-7.3691,-7.4023,-7.4221,-7.4221,-7.4221,-7.4221,-7.4204,-7.4553,-7.4686,-7.4818,-7.5397,-7.5695,-7.5728,-7.5728,-7.5988,-7.6479,-7.6492,-7.6531,-7.6646,-7.704,-7.715,-7.7053,-7.7413,-7.761,-7.7489,-7.761,-7.761,-7.7577,-7.761,-7.761,-7.761,-7.7719,-7.7774,-7.7829,-7.8134,-7.8242,-7.823,-7.7973,-7.7219,-7.6026,-7.543,-7.4984,-7.4321,-7.4221,-7.4221,-7.4221,-7.4221,-7.4221,-7.4221,-7.4221,-7.4221,-7.4221,-7.4221,-7.4221,-7.4221,-7.4221,-7.4221,-7.4221,-7.4221,-7.4221,-7.4221,-7.4221,-7.4221,-7.4221,-7.4221,-7.4221,-7.4221,-7.4221,-7.4221,-7.4288,-7.4487,-7.4686,-7.4719,-7.5264,-7.5628,-7.586,-7.6324,-7.6622,-7.6821,-7.702,-7.7252,-7.7583,-7.7782,-7.808,-7.8212,-7.8345,-7.8511,-7.861,-7.8821,-7.8821,-7.9074,-7.9074,-7.9173,-7.9239,-7.9339,-7.9405,-7.9504,-7.9637,-7.9902,-8.02,-8.0564,-8.0697,-8.0796,-8.1128,-8.1161,-7.5067,-7.5067,-7.5018,-7.5018,-7.4984,-7.5018,-7.472,-7.4639,-7.4556,-7.4456,-7.4339,-7.4289,-7.4322,-7.4221,-7.4438,-7.4387,-7.437,-7.5065,-7.543,-7.5695,-7.6159,-7.649,-7.6655,-7.649,-7.6854,-7.7365,-7.755,-7.7688,-7.7825,-7.8035,-7.7959,-7.7763,-7.7741,-7.7719,-7.7774,-7.7774,-7.7719,-7.7774,-7.7774,-7.7829,-7.7829,-7.8025,-7.8134,-7.8188,-7.8296,-7.8457,-7.8424,-7.8279,-7.7616,-7.6357,-7.5728,-7.5032,-7.437,-7.4221,-7.4221,-7.4221,-7.4221,-7.4221,-7.4221,-7.4221,-7.4221,-7.4221,-7.4221,-7.4221,-7.4221,-7.4221,-7.4221,-7.4221,-7.4221,-7.4221,-7.4221,-7.4221,-7.4221,-7.4221,-7.4221,-7.4221,-7.4321,-7.4288,-7.4255,-7.4303,-7.4933,-7.5249,-7.5529,-7.5927,-7.6424,-7.6523,-7.702,-7.7417,-7.7583,-7.7749,-7.798,-7.8212,-7.8345,-7.8444,-7.8477,-7.8511,-7.8589,-7.8722,-7.9152,-7.9417,-7.9935,-8.0067,-8.0167,-8.02,-8.0034,-8.0101,-8.0332,-8.0498,-8.0763,-8.0962,-8.126,-8.1161,-8.1094,-8.1658,-8.1889,-7.5566,-7.5518,-7.5325,-7.5228,-7.5179,-7.5067,-7.4968,-7.4919,-7.4919,-7.487,-7.4821,-7.4821,-7.4705,-7.4589,-7.5105,-7.5236,-7.5234,-7.5813,-7.6357,-7.6954,-7.7053,-7.755,-7.7749,-7.745,-7.7583,-7.808,-7.8279,-7.8325,-7.8403,-7.835,-7.835,-7.8296,-7.8242,-7.8296,-7.8296,-7.8242,-7.8296,-7.8296,-7.8296,-7.8242,-7.8242,-7.8296,-7.8403,-7.8403,-7.8457,-7.8457,-7.8378,-7.7947,-7.7219,-7.6523,-7.6059,-7.5397,-7.4436,-7.4221,-7.4221,-7.4221,-7.4221,-7.4221,-7.4221,-7.4221,-7.4221,-7.4221,-7.4221,-7.4221,-7.4221,-7.4221,-7.4221,-7.4221,-7.4221,-7.4221,-7.4221,-7.4221,-7.4221,-7.4221,-7.4288,-7.4487,-7.48,-7.4553,-7.452,-7.4933,-7.5231,-7.5496,-7.6026,-7.6722,-7.7119,-7.7252,-7.7649,-7.8179,-7.8345,-7.8411,-7.8444,-7.8511,-7.8511,-7.8544,-7.8577,-7.8709,-7.9041,-7.9372,-7.9802,-8.0134,-8.0631,-8.0929,-8.0995,-8.0829,-8.0564,-8.0796,-8.1161,-8.1326,-8.1558,-8.1757,-8.1923,-8.1956,-8.2088,-8.2453,-8.2519,-7.5676,-7.5709,-7.5566,-7.5518,-7.547,-7.5373,-7.5228,-7.5131,-7.5164,-7.5067,-7.5085,-7.5303,-7.5455,-7.5372,-7.604,-7.6357,-7.6371,-7.6783,-7.7357,-7.7782,-7.7947,-7.8093,-7.8378,-7.8179,-7.8126,-7.8511,-7.8511,-7.8511,-7.8511,-7.8511,-7.8457,-7.8511,-7.8511,-7.8457,-7.8511,-7.8511,-7.8457,-7.8457,-7.8511,-7.8511,-7.8511,-7.8511,-7.8511,-7.8511,-7.8511,-7.8511,-7.8477,-7.7815,-7.7086,-7.6424,-7.596,-7.533,-7.4453,-7.4221,-7.4221,-7.4221,-7.4221,-7.4221,-7.4221,-7.4221,-7.4221,-7.4221,-7.4221,-7.4221,-7.4221,-7.4221,-7.4221,-7.4221,-7.4221,-7.4221,-7.4221,-7.4221,-7.4221,-7.4288,-7.4553,-7.4867,-7.5098,-7.4933,-7.4966,-7.5628,-7.6125,-7.6424,-7.692,-7.745,-7.7782,-7.7914,-7.7947,-7.8411,-7.8411,-7.8477,-7.8477,-7.8511,-7.8511,-7.8544,-7.8643,-7.8941,-7.9504,-8.0001,-8.0631,-8.0962,-8.1326,-8.1591,-8.1823,-8.1624,-8.1492,-8.1757,-8.2088,-8.2254,-8.2254,-8.2386,-8.2519,-8.2784,-8.285,-8.2751,-8.2718,-7.5676,-7.5676,-7.5676,-7.5676,-7.5676,-7.5676,-7.5566,-7.5373,-7.5508,-7.5546,-7.55,-7.6088,-7.639,-7.6508,-7.7112,-7.7447,-7.763,-7.7877,-7.835,-7.8418,-7.8485,-7.8498,-7.8477,-7.8444,-7.8444,-7.8511,-7.8511,-7.8511,-7.8511,-7.8511,-7.8511,-7.8511,-7.8511,-7.8511,-7.8511,-7.8511,-7.8511,-7.8511,-7.8511,-7.8511,-7.8511,-7.8511,-7.8511,-7.8511,-7.8511,-7.8511,-7.8312,-7.7682,-7.692,-7.6324,-7.5529,-7.4884,-7.442,-7.4221,-7.4221,-7.4221,-7.4221,-7.4221,-7.4221,-7.4221,-7.4221,-7.4221,-7.4221,-7.4221,-7.4221,-7.4221,-7.4221,-7.4221,-7.4221,-7.4221,-7.4221,-7.4221,-7.4237,-7.4436,-7.4984,-7.5349,-7.5562,-7.5595,-7.596,-7.6357,-7.6788,-7.7086,-7.755,-7.8014,-7.8312,-7.8511,-7.8511,-7.8511,-7.8511,-7.8511,-7.8511,-7.8511,-7.8511,-7.8788,-7.892,-7.9504,-8.0034,-8.0664,-8.1326,-8.1624,-8.1956,-8.2188,-8.2386,-8.2585,-8.2618,-8.2684,-8.2651,-8.2618,-8.2684,-8.2883,-8.2883,-8.2883,-8.2883,-8.2883,-8.2883,-7.5676,-7.5676,-7.5676,-7.5676,-7.5676,-7.5676,-7.5662,-7.5763,-7.6323,-7.6594,-7.6646,-7.7322,-7.7511,-7.7614,-7.8136,-7.8639,-7.8837,-7.9002,-7.8979,-7.8883,-7.883,-7.8777,-7.8564,-7.8564,-7.8511,-7.8511,-7.8511,-7.8511,-7.8511,-7.8511,-7.8511,-7.8511,-7.8511,-7.8511,-7.8511,-7.8511,-7.8511,-7.8511,-7.8511,-7.8511,-7.8511,-7.8511,-7.8511,-7.8511,-7.8511,-7.8477,-7.8146,-7.7252,-7.6424,-7.6192,-7.5065,-7.4487,-7.4255,-7.4221,-7.4221,-7.4221,-7.4221,-7.4221,-7.4221,-7.4221,-7.4221,-7.4221,-7.4221,-7.4221,-7.4221,-7.4221,-7.4221,-7.4221,-7.4221,-7.4221,-7.4221,-7.4321,-7.4535,-7.49,-7.533,-7.5827,-7.6622,-7.6954,-7.6987,-7.7219,-7.745,-7.7616,-7.8014,-7.8312,-7.8411,-7.8511,-7.8511,-7.8511,-7.8511,-7.8511,-7.8511,-7.8511,-7.8511,-7.892,-7.9318,-8.0101,-8.073,-8.1326,-8.1856,-8.2088,-8.2386,-8.2684,-8.2883,-8.2883,-8.2883,-8.2817,-8.285,-8.2883,-8.2883,-8.2883,-8.2883,-8.2883,-8.2883,-8.2883,-8.2883,-7.5676,-7.5676,-7.5676,-7.5676,-7.5676,-7.5676,-7.5946,-7.6352,-7.6724,-7.713,-7.7604,-7.8213,-7.8502,-7.8605,-7.9128,-7.955,-7.9546,-7.9596,-7.944,-7.9232,-7.9179,-7.8988,-7.8724,-7.8724,-7.8617,-7.8511,-7.8511,-7.8511,-7.8511,-7.8511,-7.8511,-7.8511,-7.8511,-7.8511,-7.8511,-7.8511,-7.8511,-7.8511,-7.8511,-7.8511,-7.8511,-7.8511,-7.8511,-7.8511,-7.8477,-7.8345,-7.7782,-7.6987,-7.6159,-7.5662,-7.4818,-7.4321,-7.4221,-7.4221,-7.4221,-7.4221,-7.4221,-7.4221,-7.4221,-7.4221,-7.4221,-7.4221,-7.4221,-7.4221,-7.4221,-7.4221,-7.4221,-7.4221,-7.4255,-7.4387,-7.4752,-7.4785,-7.5098,-7.5695,-7.6092,-7.6622,-7.7252,-7.7715,-7.7881,-7.7914,-7.8014,-7.8146,-7.8279,-7.8477,-7.8511,-7.8511,-7.8511,-7.8511,-7.8511,-7.8511,-7.8544,-7.8809,-7.8974,-7.9736,-8.0233,-8.0829,-8.1393,-8.1923,-8.2254,-8.2486,-8.2651,-8.2817,-8.2883,-8.2883,-8.2883,-8.2883,-8.2883,-8.2883,-8.2883,-8.2883,-8.2883,-8.2883,-8.2883,-8.2883,-8.2883,-7.5676,-7.5676,-7.5676,-7.5777,-7.5946,-7.5946,-7.6386,-7.7029,-7.7333,-7.7705,-7.8247,-7.8957,-7.9329,-7.9464,-7.9786,-8.0057,-7.9904,-7.9904,-7.9699,-7.9544,-7.9492,-7.9303,-7.9094,-7.8988,-7.8883,-7.8671,-7.8617,-7.8564,-7.8511,-7.8511,-7.8511,-7.8511,-7.8511,-7.8511,-7.8511,-7.8511,-7.8511,-7.8511,-7.8511,-7.8511,-7.8511,-7.8511,-7.8511,-7.8511,-7.8511,-7.8179,-7.7517,-7.6755,-7.5993,-7.5363,-7.4635,-7.4221,-7.4221,-7.4221,-7.4221,-7.4221,-7.4221,-7.4221,-7.4221,-7.4221,-7.4221,-7.4221,-7.4221,-7.4221,-7.4221,-7.4221,-7.4288,-7.4387,-7.4487,-7.4767,-7.533,-7.5496,-7.586,-7.6424,-7.702,-7.7484,-7.7749,-7.808,-7.8312,-7.8411,-7.8511,-7.8511,-7.8511,-7.8511,-7.8511,-7.8511,-7.8511,-7.8511,-7.8511,-7.8511,-7.8643,-7.9074,-7.9604,-8.0564,-8.1194,-8.1624,-8.2088,-8.2453,-8.2618,-8.2718,-8.2817,-8.2883,-8.2883,-8.2883,-8.2883,-8.2883,-8.2883,-8.2883,-8.2883,-8.2883,-8.2883,-8.2883,-8.2883,-8.2883,-8.2883,-7.5676,-7.5676,-7.5709,-7.6115,-7.669,-7.6724,-7.7164,-7.7908,-7.8483,-7.8889,-7.9025,-7.9701,-8.0006,-8.004,-8.0107,-8.0209,-8.0158,-8.0107,-8.0006,-7.9801,-7.975,-7.9596,-7.9388,-7.9336,-7.9146,-7.8883,-7.883,-7.8724,-7.8564,-7.8511,-7.8511,-7.8511,-7.8511,-7.8511,-7.8511,-7.8511,-7.8511,-7.8511,-7.8511,-7.8511,-7.8511,-7.8511,-7.8511,-7.8511,-7.8477,-7.8113,-7.7351,-7.6622,-7.596,-7.5231,-7.4586,-7.4255,-7.4221,-7.4221,-7.4221,-7.4221,-7.4221,-7.4221,-7.4221,-7.4221,-7.4221,-7.4221,-7.4221,-7.4221,-7.4321,-7.4387,-7.4586,-7.515,-7.5132,-7.5463,-7.6026,-7.6192,-7.6589,-7.6987,-7.745,-7.7881,-7.8179,-7.8212,-7.8477,-7.8511,-7.8511,-7.8511,-7.8511,-7.8511,-7.8511,-7.8511,-7.8511,-7.8511,-7.861,-7.8643,-7.9239,-7.9802,-8.0299,-8.1194,-8.1757,-8.2287,-8.2519,-8.2883,-8.2883,-8.2883,-8.2883,-8.2883,-8.2883,-8.2883,-8.2883,-8.2883,-8.2883,-8.2883,-8.2883,-8.2883,-8.2883,-8.2883,-8.2883,-8.2883,-8.2883,-7.5676,-7.5743,-7.6183,-7.6589,-7.6927,-7.7333,-7.7942,-7.8585,-7.8957,-7.9363,-7.9735,-8.004,-8.0209,-8.0209,-8.0209,-8.0209,-8.0209,-8.0209,-8.0158,-8.0057,-8.0006,-7.9904,-7.9699,-7.9596,-7.9492,-7.9198,-7.8988,-7.8883,-7.8724,-7.8564,-7.8511,-7.8511,-7.8511,-7.8511,-7.8511,-7.8511,-7.8511,-7.8511,-7.8511,-7.8511,-7.8511,-7.8511,-7.8511,-7.8511,-7.8511,-7.7881,-7.702,-7.6556,-7.5728,-7.49,-7.4321,-7.4221,-7.4221,-7.4221,-7.4221,-7.4221,-7.4221,-7.4221,-7.4221,-7.4221,-7.4221,-7.4255,-7.4288,-7.442,-7.4686,-7.4884,-7.5098,-7.5794,-7.586,-7.6192,-7.6755,-7.692,-7.7351,-7.7749,-7.7914,-7.8113,-7.8378,-7.8444,-7.8511,-7.8511,-7.8511,-7.8511,-7.8511,-7.8511,-7.8511,-7.8511,-7.8544,-7.8577,-7.8776,-7.9041,-7.9836,-8.0863,-8.1293,-8.1823,-8.2254,-8.2684,-8.2651,-8.2883,-8.2883,-8.2883,-8.2883,-8.2883,-8.2883,-8.2883,-8.2883,-8.2883,-8.2883,-8.2883,-8.2883,-8.2883,-8.2883,-8.2883,-8.2883,-8.2883,-8.2883,-7.598,-7.6048,-7.6657,-7.7096,-7.7502,-7.8044,-7.8686,-7.9329,-7.9397,-7.9701,-8.0073,-8.0209,-8.0209,-8.0209,-8.0209,-8.0209,-8.0209,-8.0209,-8.0209,-8.0209,-8.0209,-8.0057,-7.9955,-7.9904,-7.975,-7.9492,-7.9303,-7.9094,-7.8883,-7.8724,-7.8564,-7.8511,-7.8511,-7.8511,-7.8511,-7.8511,-7.8511,-7.8511,-7.8511,-7.8511,-7.8511,-7.8511,-7.8511,-7.8477,-7.8246,-7.7649,-7.6523,-7.6059,-7.533,-7.4502,-7.4255,-7.4221,-7.4221,-7.4221,-7.4221,-7.4221,-7.4221,-7.4303,-7.4337,-7.442,-7.4354,-7.4487,-7.4701,-7.5098,-7.5397,-7.5562,-7.5827,-7.6523,-7.6589,-7.6987,-7.745,-7.7682,-7.7914,-7.8212,-7.8411,-7.8477,-7.8511,-7.8511,-7.8511,-7.8511,-7.8511,-7.8511,-7.8511,-7.8511,-7.8511,-7.8511,-7.8544,-7.8643,-7.9074,-7.9571,-8.0399,-8.1492,-8.1956,-8.2287,-8.2552,-8.285,-8.2883,-8.2883,-8.2883,-8.2883,-8.2883,-8.2883,-8.2883,-8.2883,-8.2883,-8.2883,-8.2883,-8.2883,-8.2883,-8.2883,-8.2883,-8.2883,-8.2883,-8.2883,-8.2883,-7.6826,-7.6826,-7.6927,-7.7705,-7.8889,-7.8991,-7.9464,-8.0006,-8.0073,-8.0107,-8.0175,-8.0209,-8.0209,-8.0209,-8.0209,-8.0209,-8.0209,-8.0209,-8.0209,-8.0209,-8.0209,-8.0158,-8.0107,-8.0107,-8.0006,-7.9801,-7.9647,-7.9355,-7.9008,-7.8883,-7.8724,-7.8544,-7.8511,-7.8511,-7.8511,-7.8511,-7.8511,-7.8511,-7.8511,-7.8511,-7.8511,-7.8511,-7.8511,-7.8378,-7.7848,-7.7119,-7.6324,-7.5761,-7.5098,-7.4288,-7.4221,-7.4221,-7.4221,-7.4354,-7.4387,-7.437,-7.4502,-7.4767,-7.4966,-7.4734,-7.4686,-7.5132,-7.5628,-7.596,-7.6225,-7.6258,-7.6622,-7.7219,-7.7318,-7.7649,-7.8113,-7.8391,-7.8378,-7.8444,-7.8511,-7.8511,-7.8511,-7.8511,-7.8511,-7.8511,-7.8511,-7.8511,-7.8511,-7.8511,-7.8511,-7.8511,-7.8908,-7.9007,-7.9935,-8.0498,-8.1161,-8.1956,-8.2419,-8.2718,-8.2784,-8.2883,-8.2883,-8.2883,-8.2883,-8.2883,-8.2883,-8.2883,-8.2883,-8.2883,-8.2883,-8.2883,-8.2883,-8.2883,-8.2883,-8.2883,-8.2883,-8.2883,-8.2883,-8.2883,-8.2883,-7.7435,-7.8247,-7.828,-7.8585,-7.916,-7.96,-7.9938,-8.0175,-8.0209,-8.0209,-8.0209,-8.0209,-8.0209,-8.0209,-8.0209,-8.0209,-8.0209,-8.0209,-8.0209,-8.0209,-8.0209,-8.0209,-8.0209,-8.0209,-8.0158,-8.0006,-7.9904,-7.975,-7.9459,-7.9146,-7.885,-7.8724,-7.8597,-7.8511,-7.8511,-7.8511,-7.8511,-7.8511,-7.8511,-7.8511,-7.8511,-7.8511,-7.8511,-7.8444,-7.7815,-7.7053,-7.6324,-7.5628,-7.4933,-7.4403,-7.4288,-7.4288,-7.4403,-7.4719,-7.4833,-7.49,-7.5132,-7.5529,-7.5695,-7.533,-7.5198,-7.5761,-7.6192,-7.6523,-7.692,-7.6987,-7.7384,-7.7815,-7.8047,-7.8246,-7.8378,-7.8511,-7.8477,-7.8511,-7.8511,-7.8511,-7.8511,-7.8511,-7.8511,-7.8511,-7.8511,-7.8511,-7.8511,-7.8511,-7.8511,-7.8544,-7.9007,-7.9571,-8.0498,-8.1293,-8.1856,-8.2221,-8.2651,-8.2817,-8.2883,-8.2883,-8.2883,-8.2883,-8.2883,-8.2883,-8.2883,-8.2883,-8.2883,-8.2883,-8.2883,-8.2883,-8.2883,-8.2883,-8.2883,-8.2883,-8.2883,-8.2883,-8.2883,-8.2883,-8.2883,-7.8179,-7.9126,-7.9363,-7.9431,-7.9498,-7.9972,-8.0209,-8.0209,-8.0209,-8.0209,-8.0209,-8.0209,-8.0209,-8.0209,-8.0209,-8.0209,-8.0209,-8.0209,-8.0209,-8.0209,-8.0209,-8.0209,-8.0209,-8.0209,-8.0209,-8.0124,-8.0057,-7.9904,-7.975,-7.9355,-7.9094,-7.8883,-7.8724,-7.8617,-7.8511,-7.8511,-7.8511,-7.8511,-7.8511,-7.8511,-7.8511,-7.8511,-7.8511,-7.8411,-7.7815,-7.7285,-7.6556,-7.5894,-7.5297,-7.4933,-7.4818,-7.4752,-7.4933,-7.5231,-7.5529,-7.5761,-7.5993,-7.639,-7.6424,-7.6324,-7.6125,-7.6589,-7.6987,-7.7318,-7.7583,-7.7749,-7.8047,-7.8312,-7.8477,-7.8511,-7.8511,-7.8511,-7.8511,-7.8511,-7.8511,-7.8511,-7.8511,-7.8511,-7.8511,-7.8511,-7.8511,-7.8544,-7.8656,-7.8809,-7.9107,-7.9339,-8.0067,-8.0564,-8.1161,-8.1823,-8.232,-8.2585,-8.2817,-8.2883,-8.2883,-8.2883,-8.2883,-8.2883,-8.2883,-8.2883,-8.2883,-8.2883,-8.2883,-8.2883,-8.2883,-8.2883,-8.2883,-8.2883,-8.2883,-8.2883,-8.2883,-8.2883,-8.2883,-8.2883,-8.2883,-7.9058,-7.9194,-7.987,-8.0141,-8.0107,-8.0175,-8.0209,-8.0209,-8.0209,-8.0209,-8.0209,-8.0209,-8.0209,-8.0209,-8.0209,-8.0209,-8.0209,-8.0209,-8.0209,-8.0209,-8.0209,-8.0209,-8.0209,-8.0209,-8.0209,-8.0209,-8.0158,-8.0006,-7.9853,-7.9699,-7.9407,-7.916,-7.9036,-7.8823,-7.8544,-7.8511,-7.8511,-7.8511,-7.8511,-7.8511,-7.8511,-7.8511,-7.8511,-7.8345,-7.7815,-7.7318,-7.6987,-7.6059,-7.5628,-7.5761,-7.543,-7.5496,-7.5894,-7.6125,-7.6291,-7.6357,-7.6424,-7.6788,-7.7285,-7.7318,-7.7351,-7.7417,-7.7749,-7.8146,-7.8378,-7.8444,-7.8378,-7.8511,-7.8511,-7.8511,-7.8511,-7.8511,-7.8511,-7.8511,-7.8511,-7.8511,-7.8511,-7.8511,-7.8511,-7.8511,-7.8511,-7.8577,-7.8788,-7.9086,-7.9604,-8.0167,-8.1061,-8.1624,-8.1956,-8.2254,-8.2651,-8.2751,-8.2883,-8.2883,-8.2883,-8.2883,-8.2883,-8.2883,-8.2883,-8.2883,-8.2883,-8.2883,-8.2883,-8.2883,-8.2883,-8.2883,-8.2883,-8.2883,-8.2883,-8.2883,-8.2883,-8.2883,-8.2883,-8.2883,-8.2883,-7.9397,-7.987,-8.0107,-8.0209,-8.0209,-8.0209,-8.0209,-8.0209,-8.0209,-8.0209,-8.0209,-8.0209,-8.0209,-8.0209,-8.0209,-8.0209,-8.0209,-8.0209,-8.0209,-8.0209,-8.0209,-8.0209,-8.0209,-8.0209,-8.0209,-8.0209,-8.0209,-8.0175,-8.0107,-7.9955,-7.975,-7.9526,-7.9508,-7.9209,-7.8697,-7.8511,-7.8511,-7.8511,-7.8511,-7.8511,-7.8511,-7.8511,-7.8511,-7.8477,-7.7815,-7.7517,-7.745,-7.6424,-7.6225,-7.6424,-7.6092,-7.6159,-7.6523,-7.6722,-7.7053,-7.7185,-7.7351,-7.7848,-7.8113,-7.8146,-7.8146,-7.8212,-7.8312,-7.8511,-7.8511,-7.8511,-7.8511,-7.8511,-7.8511,-7.8511,-7.8511,-7.8511,-7.8511,-7.8511,-7.8511,-7.8511,-7.8511,-7.8511,-7.8511,-7.8511,-7.8511,-7.9007,-7.9339,-8.0034,-8.0531,-8.0863,-8.1658,-8.2088,-8.2419,-8.2552,-8.2817,-8.2817,-8.2883,-8.2883,-8.2883,-8.2883,-8.2883,-8.2883,-8.2883,-8.2883,-8.2883,-8.2883,-8.2883,-8.2883,-8.2883,-8.2883,-8.2883,-8.2883,-8.2883,-8.2883,-8.2883,-8.2883,-8.2883,-8.2883,-8.2883,-7.9769,-8.0175,-8.0209,-8.0209,-8.0209,-8.0209,-8.0209,-8.0209,-8.0209,-8.0209,-8.0209,-8.0209,-8.0209,-8.0209,-8.0209,-8.0209,-8.0209,-8.0209,-8.0209,-8.0209,-8.0209,-8.0209,-8.0209,-8.0209,-8.0209,-8.0209,-8.0209,-8.0209,-8.0158,-8.0023,-7.997,-8.0114,-8.0248,-8.0061,-7.9525,-7.9372,-7.9206,-7.914,-7.9007,-7.8809,-7.8643,-7.8511,-7.8511,-7.8411,-7.8113,-7.7848,-7.7616,-7.7219,-7.6788,-7.6887,-7.6854,-7.6821,-7.7119,-7.745,-7.7782,-7.798,-7.8146,-7.8477,-7.8477,-7.8477,-7.8411,-7.8477,-7.8511,-7.8511,-7.8511,-7.8511,-7.8511,-7.8511,-7.8511,-7.8511,-7.8511,-7.8511,-7.8511,-7.8511,-7.8511,-7.8511,-7.8511,-7.8511,-7.8511,-7.8511,-7.8941,-7.9438,-8.0101,-8.0863,-8.1591,-8.1856,-8.2188,-8.2519,-8.2784,-8.285,-8.2883,-8.2883,-8.2883,-8.2883,-8.2883,-8.2883,-8.2883,-8.2883,-8.2883,-8.2883,-8.2883,-8.2883,-8.2883,-8.2883,-8.2883,-8.2883,-8.2883,-8.2883,-8.2883,-8.2883,-8.2883,-8.2883,-8.2883,-8.2883,-8.2883,-8.0209,-8.0209,-8.0209,-8.0209,-8.0209,-8.0209,-8.0209,-8.0209,-8.0209,-8.0209,-8.0209,-8.0209,-8.0209,-8.0209,-8.0209,-8.0209,-8.0209,-8.0209,-8.0209,-8.0209,-8.0209,-8.0209,-8.0209,-8.0209,-8.0209,-8.0209,-8.0209,-8.0209,-8.0209,-8.0361,-8.0443,-8.0666,-8.1049,-8.0992,-8.0807,-8.0697,-8.0332,-7.9902,-7.9438,-7.9173,-7.8854,-7.8577,-7.8544,-7.8444,-7.8378,-7.8312,-7.8146,-7.7782,-7.7848,-7.7881,-7.7815,-7.798,-7.8212,-7.8477,-7.8511,-7.8511,-7.8477,-7.8511,-7.8511,-7.8511,-7.8511,-7.8511,-7.8511,-7.8511,-7.8511,-7.8511,-7.8511,-7.8511,-7.8511,-7.8511,-7.8511,-7.8511,-7.8511,-7.8511,-7.8511,-7.8511,-7.8511,-7.8511,-7.8511,-7.8776,-7.9339,-8.0001,-8.1028,-8.1856,-8.2188,-8.2386,-8.2552,-8.2618,-8.285,-8.285,-8.2883,-8.2883,-8.2883,-8.2883,-8.2883,-8.2883,-8.2883,-8.2883,-8.2883,-8.2883,-8.2883,-8.2883,-8.2883,-8.2883,-8.2883,-8.2883,-8.2883,-8.2883,-8.2883,-8.2883,-8.2883,-8.2883,-8.2883,-8.2883,-8.2883,-8.0209,-8.0209,-8.0209,-8.0209,-8.0209,-8.0209,-8.0209,-8.0209,-8.0209,-8.0209,-8.0209,-8.0209,-8.0209,-8.0209,-8.0209,-8.0209,-8.0209,-8.0209,-8.0209,-8.0209,-8.0209,-8.0209,-8.0209,-8.0209,-8.0209,-8.0209,-8.0209,-8.0209,-8.0344,-8.0581,-8.1016,-8.1283,-8.1892,-8.2066,-8.2156,-8.2221,-8.1393,-8.0631,-8.0101,-7.9604,-7.9119,-7.8788,-7.8676,-7.8544,-7.8511,-7.8511,-7.8378,-7.8279,-7.8345,-7.8312,-7.8312,-7.8411,-7.8444,-7.8511,-7.8511,-7.8511,-7.8511,-7.8511,-7.8511,-7.8511,-7.8511,-7.8511,-7.8511,-7.8511,-7.8511,-7.8511,-7.8511,-7.8511,-7.8511,-7.8511,-7.8511,-7.8511,-7.8511,-7.8511,-7.8511,-7.8511,-7.8511,-7.8511,-7.8577,-7.914,-7.9736,-8.0697,-8.1757,-8.2287,-8.2585,-8.2784,-8.2883,-8.2883,-8.2883,-8.2883,-8.2883,-8.2883,-8.2883,-8.2883,-8.2883,-8.2883,-8.2883,-8.2883,-8.2883,-8.2883,-8.2883,-8.2883,-8.2883,-8.2883,-8.2883,-8.2883,-8.2883,-8.2883,-8.2883,-8.2883,-8.2883,-8.2883,-8.2883,-8.2883,-8.2883,-8.0209,-8.0209,-8.0209,-8.0209,-8.0209,-8.0209,-8.0209,-8.0209,-8.0209,-8.0209,-8.0209,-8.0209,-8.0209,-8.0209,-8.0209,-8.0209,-8.0209,-8.0209,-8.0209,-8.0209,-8.0209,-8.0209,-8.0209,-8.0209,-8.0209,-8.0209,-8.0209,-8.0209,-8.0513,-8.1206,-8.1724,-8.1585,-8.2502,-8.2888,-8.2886,-8.2684,-8.2386,-8.1624,-8.0929,-8.0233,-7.967,-7.9152,-7.8908,-7.8643,-7.8577,-7.8577,-7.8577,-7.8577,-7.8577,-7.8544,-7.8511,-7.8511,-7.8511,-7.8511,-7.8511,-7.8511,-7.8511,-7.8511,-7.8511,-7.8511,-7.8511,-7.8511,-7.8511,-7.8511,-7.8511,-7.8511,-7.8511,-7.8511,-7.8511,-7.8511,-7.8511,-7.8511,-7.8511,-7.8511,-7.8511,-7.8511,-7.8511,-7.8511,-7.8941,-7.9537,-8.0332,-8.1326,-8.2088,-8.2585,-8.2883,-8.2883,-8.2883,-8.2883,-8.2883,-8.2883,-8.2883,-8.2883,-8.2883,-8.2883,-8.2883,-8.2883,-8.2883,-8.2883,-8.2883,-8.2883,-8.2883,-8.2883,-8.2883,-8.2883,-8.2883,-8.2883,-8.2883,-8.2883,-8.2883,-8.2883,-8.2883,-8.2883,-8.2883,-8.2883,-8.2883,-8.0209,-8.0209,-8.0209,-8.0209,-8.0209,-8.0209,-8.0209,-8.0209,-8.0209,-8.0209,-8.0209,-8.0209,-8.0209,-8.0209,-8.0209,-8.0209,-8.0209,-8.0209,-8.0209,-8.0209,-8.0209,-8.0209,-8.0209,-8.0276,-8.0479,-8.0378,-8.0479,-8.0851,-8.0919,-8.1679,-8.2248,-8.1752,-8.2971,-8.3432,-8.2963,-8.2883,-8.2684,-8.2486,-8.1889,-8.126,-8.0266,-7.9736,-7.9405,-7.8941,-7.8842,-7.8809,-7.8809,-7.8742,-7.8676,-7.8709,-7.8742,-7.8842,-7.8709,-7.8709,-7.8709,-7.8511,-7.8511,-7.8511,-7.8511,-7.8511,-7.8511,-7.8511,-7.8511,-7.8511,-7.8511,-7.8511,-7.8511,-7.8511,-7.8511,-7.8511,-7.8511,-7.8511,-7.8511,-7.8511,-7.8511,-7.8511,-7.8511,-7.8742,-7.9339,-8.0001,-8.0829,-8.1757,-8.2386,-8.2883,-8.2883,-8.2883,-8.2883,-8.2883,-8.2883,-8.2883,-8.2883,-8.2883,-8.2883,-8.2883,-8.2883,-8.2883,-8.2883,-8.2883,-8.2883,-8.2883,-8.2883,-8.2883,-8.2883,-8.2883,-8.2883,-8.2883,-8.2883,-8.2883,-8.2883,-8.2883,-8.2883,-8.2883,-8.2883,-8.2883,-8.2883,-8.0209,-8.0209,-8.0209,-8.0209,-8.0209,-8.0209,-8.0209,-8.0209,-8.0209,-8.0209,-8.0209,-8.0209,-8.0209,-8.0209,-8.0209,-8.0209,-8.0209,-8.0209,-8.0209,-8.0209,-8.0209,-8.031,-8.0378,-8.0716,-8.0919,-8.1224,-8.1494,-8.1731,-8.19,-8.2558,-8.299,-8.2556,-8.3406,-8.3499,-8.294,-8.2883,-8.2883,-8.2883,-8.2618,-8.2088,-8.1326,-8.0697,-8.0266,-8.0101,-8.0067,-8.0001,-8.0001,-8.0067,-8.0101,-8.0167,-8.0167,-7.9902,-7.9384,-7.9372,-7.9074,-7.8676,-7.861,-7.861,-7.8511,-7.8511,-7.8511,-7.8511,-7.8511,-7.8511,-7.8511,-7.8511,-7.8511,-7.8511,-7.8577,-7.8577,-7.8544,-7.8544,-7.8544,-7.8544,-7.8511,-7.8511,-7.8544,-7.914,-7.9736,-8.0498,-8.1326,-8.2022,-8.2684,-8.2883,-8.2883,-8.2883,-8.2883,-8.2883,-8.2883,-8.2883,-8.2883,-8.2883,-8.2883,-8.2883,-8.2883,-8.2883,-8.2883,-8.2883,-8.2883,-8.2883,-8.2883,-8.2883,-8.2883,-8.2883,-8.2883,-8.2883,-8.2883,-8.2883,-8.2883,-8.2883,-8.2883,-8.2883,-8.2883,-8.2883,-8.2883,-8.0209,-8.0209,-8.0209,-8.0209,-8.0209,-8.0209,-8.0209,-8.0209,-8.0209,-8.0209,-8.0209,-8.0209,-8.0209,-8.0209,-8.0209,-8.0209,-8.0209,-8.0209,-8.0209,-8.0209,-8.0276,-8.0479,-8.075,-8.1156,-8.1494,-8.1799,-8.2103,-8.2374,-8.2644,-8.2998,-8.3226,-8.2945,-8.3406,-8.3499,-8.2996,-8.2883,-8.2883,-8.2883,-8.2883,-8.2618,-8.2154,-8.1624,-8.0962,-8.0863,-8.0697,-8.073,-8.0664,-8.0664,-8.0664,-8.0664,-8.0598,-8.0498,-8.0167,-8.0101,-7.9703,-7.9272,-7.9007,-7.8875,-7.8676,-7.8544,-7.8544,-7.8511,-7.8511,-7.8511,-7.8511,-7.8511,-7.8511,-7.8577,-7.8987,-7.9086,-7.8842,-7.8776,-7.8709,-7.8676,-7.8577,-7.8511,-7.8908,-7.9504,-8.0034,-8.0564,-8.1459,-8.2419,-8.2883,-8.2883,-8.2883,-8.2883,-8.2883,-8.2883,-8.2883,-8.2883,-8.2883,-8.2883,-8.2883,-8.2883,-8.2883,-8.2883,-8.2883,-8.2883,-8.2883,-8.2883,-8.2883,-8.2883,-8.2883,-8.2883,-8.2883,-8.2883,-8.2883,-8.2916,-8.2883,-8.2883,-8.2883,-8.2883,-8.2883,-8.2883,-8.2883,-8.0209,-8.0209,-8.0209,-8.0209,-8.0209,-8.0209,-8.0209,-8.0209,-8.0209,-8.0209,-8.0209,-8.0209,-8.0209,-8.0209,-8.0209,-8.0209,-8.0209,-8.0209,-8.0209,-8.0242,-8.0378,-8.0682,-8.1122,-8.1562,-8.2205,-8.2611,-8.2915,-8.2949,-8.3016,-8.3437,-8.3563,-8.3113,-8.3196,-8.3499,-8.3052,-8.2883,-8.2883,-8.2883,-8.2883,-8.2883,-8.2585,-8.232,-8.1724,-8.1227,-8.0962,-8.0962,-8.0962,-8.0995,-8.0995,-8.1061,-8.1194,-8.1061,-8.0929,-8.0796,-8.0366,-7.9935,-7.9504,-7.9239,-7.8875,-7.861,-7.8544,-7.8511,-7.8511,-7.8511,-7.8511,-7.8511,-7.8511,-7.8742,-7.9185,-7.9318,-7.9074,-7.8875,-7.8809,-7.8709,-7.861,-7.8511,-7.9107,-7.9703,-8.0167,-8.0631,-8.1558,-8.2552,-8.285,-8.2883,-8.2883,-8.2883,-8.2883,-8.2883,-8.2883,-8.2883,-8.2883,-8.2883,-8.2883,-8.2883,-8.2883,-8.2883,-8.2883,-8.2883,-8.2883,-8.2883,-8.2883,-8.2883,-8.2883,-8.2883,-8.2883,-8.2983,-8.3016,-8.3049,-8.2983,-8.3082,-8.2883,-8.2883,-8.2883,-8.2883,-8.2883,-8.0209,-8.0209,-8.0209,-8.0209,-8.0209,-8.0209,-8.0209,-8.0209,-8.0209,-8.0209,-8.0209,-8.0209,-8.0209,-8.0209,-8.0209,-8.0209,-8.0209,-8.0242,-8.0242,-8.0242,-8.0851,-8.1156,-8.1663,-8.2543,-8.3422,-8.3795,-8.3964,-8.4133,-8.3795,-8.4046,-8.4083,-8.3595,-8.3574,-8.3499,-8.2996,-8.2883,-8.2883,-8.2883,-8.2883,-8.2883,-8.2883,-8.2718,-8.2718,-8.2486,-8.2486,-8.2486,-8.2486,-8.2486,-8.2486,-8.2486,-8.2353,-8.2022,-8.1757,-8.1525,-8.1161,-8.0631,-8.0167,-7.9703,-7.9339,-7.8908,-7.8776,-7.8511,-7.8511,-7.8511,-7.8511,-7.8511,-7.8544,-7.8643,-7.9007,-7.9119,-7.892,-7.8842,-7.8742,-7.8643,-7.8511,-7.8511,-7.8809,-7.9405,-7.9968,-8.0631,-8.1393,-8.2254,-8.2883,-8.2883,-8.2883,-8.2883,-8.2883,-8.2883,-8.2883,-8.2883,-8.2883,-8.2883,-8.2883,-8.2883,-8.2883,-8.2883,-8.2883,-8.2883,-8.2883,-8.2883,-8.2883,-8.2883,-8.2916,-8.3082,-8.3148,-8.3215,-8.3248,-8.3546,-8.3546,-8.3612,-8.3115,-8.2916,-8.295,-8.2983,-8.3049]},{"header":{"parameterUnit":"m.s-1","parameterCategory":1,"la1":31.0,"la2":29.5877,"lo1":-88.7671,"lo2":-86.6584,"dx":0.0162,"dy":0.0185,"nx":115,"ny":88,"refTime":"2023-01-14T06:00:00:Z","depth":0,"parameterNumber":3,"parameterNumberName":"V-component_of_WINDS"},"data":[0.0,0.0,0.0,0.0,0.0,0.0,0.0,0.0,0.0,0.0,0.0,0.0,0.0,0.0,0.0,0.0,0.0,0.0,0.0,0.0,0.0,0.0,0.0,0.0,0.0,0.0,0.0,0.0,0.0,0.0,0.0,0.0,0.0,0.0,0.0,0.0,0.0,0.0,0.0,0.0,0.0,0.0,0.0,0.0,0.0,0.0,0.0,0.0,0.0,0.0,0.0,0.0,0.0,0.0,0.0,0.0,0.0,0.0,0.0,0.0,0.0,0.0,0.0,0.0,0.0,0.0,0.0,0.0,0.0,0.0,0.0,0.0,0.0,0.0,0.0,0.0,0.0,0.0,0.0,0.0,0.0,0.0,0.0,0.0,0.0,0.0,0.0,0.0,0.0,0.0,0.0,0.0,0.0,0.0,0.0,0.0,0.0,0.0,0.0,0.0,0.0,0.0,0.0,0.0,0.0,0.0,0.0,0.0,0.0,0.0,0.0,0.0,0.0,0.0,0.0,0.0,0.0,0.0,0.0,0.0,0.0,0.0,0.0,0.0,0.0,0.0,0.0,0.0,0.0,0.0,0.0,0.0,0.0,0.0,0.0,0.0,0.0,0.0,0.0,0.0,0.0,0.0,0.0,0.0,0.0,0.0,0.0,0.0,0.0,0.0,0.0,0.0,0.0,0.0,0.0,0.0,0.0,0.0,0.0,0.0,0.0,0.0,0.0,0.0,0.0,0.0,0.0,0.0,0.0,0.0,0.0,0.0,0.0,0.0,0.0,0.0,0.0,0.0,0.0,0.0,0.0,0.0,0.0,0.0,0.0,0.0,0.0,0.0,0.0,0.0,0.0,0.0,0.0,0.0,0.0,0.0,0.0,0.0,0.0,0.0,0.0,0.0,0.0,0.0,0.0,0.0,0.0,0.0,0.0,0.0,0.0,0.0,0.0,0.0,0.0,0.0,0.0,0.0,0.0,0.0,0.0,0.0,0.0,0.0,0.0,0.0,0.0,0.0,0.0,0.0,0.0,0.0,0.0,0.0,0.0,0.0,0.0,0.0,0.0,0.0,0.0,0.0,0.0,0.0,0.0,0.0,0.0,0.0,0.0,0.0,0.0,0.0,0.0,0.0,0.0,0.0,0.0,0.0,0.0,0.0,0.0,0.0,0.0,0.0,0.0,0.0,0.0,0.0,0.0,0.0,0.0,0.0,0.0,0.0,0.0,0.0,0.0,0.0,0.0,0.0,0.0,0.0,0.0,0.0,0.0,0.0,0.0,0.0,0.0,0.0,0.0,0.0,0.0,0.0,0.0,0.0,0.0,0.0,0.0,0.0,0.0,0.0,0.0,0.0,0.0,0.0,0.0,0.0,0.0,0.0,0.0,0.0,0.0,0.0,0.0,0.0,0.0,0.0,0.0,0.0,0.0,0.0,0.0,0.0,0.0,0.0,0.0,0.0,0.0,0.0,0.0,0.0,0.0,0.0,0.0,0.0,0.0,0.0,0.0,0.0,0.0,0.0,0.0,0.0,0.0,0.0,0.0,0.0,0.0,0.0,0.0,0.0,0.0,0.0,0.0,0.0,0.0,0.0,0.0,0.0,0.0,0.0,0.0,0.0,0.0,0.0,0.0,0.0,0.0,0.0,0.0,0.0,0.0,0.0,0.0,0.0,0.0,0.0,0.0,0.0,0.0,0.0,0.0,0.0,0.0,0.0,0.0,0.0,0.0,0.0,0.0,0.0,0.0,0.0,0.0,0.0,0.0,0.0,0.0,0.0,0.0,0.0,0.0,0.0,0.0,0.0,0.0,0.0,0.0,0.0,0.0,0.0,0.0,0.0,0.0,0.0,0.0,0.0,0.0,0.0,0.0,0.0,0.0,0.0,0.0,0.0,0.0,0.0,0.0,0.0,0.0,0.0,0.0,0.0,0.0,0.0,0.0,0.0,0.0,0.0,0.0,0.0,0.0,0.0,0.0,0.0,0.0,0.0,0.0,0.0,0.0,0.0,0.0,0.0,0.0,0.0,0.0,0.0,0.0,0.0,0.0,0.0,0.0,0.0,0.0,0.0,0.0,0.0,0.0,0.0,0.0,0.0,0.0,0.0,0.0,0.0,0.0,0.0,0.0,0.0,0.0,0.0,0.0,0.0,0.0,0.0,0.0,0.0,0.0,0.0,0.0,0.0,0.0,0.0,0.0,0.0,0.0,0.0,0.0,0.0,0.0,0.0,0.0,0.0,0.0,0.0,0.0,0.0,0.0,0.0,0.0,0.0,0.0,0.0,0.0,0.0,0.0,0.0,0.0,0.0,0.0,0.0,0.0,0.0,0.0,0.0,0.0,0.0,0.0,0.0,0.0,0.0,0.0,0.0,0.0,0.0,0.0,0.0,0.0,0.0,0.0,0.0,0.0,0.0,0.0,0.0,0.0,0.0,0.0,0.0,0.0,0.0,0.0,0.0,0.0,0.0,0.0,0.0,0.0,0.0,0.0,0.0,0.0,0.0,0.0,0.0,0.0,0.0,0.0,0.0,0.0,0.0,0.0,0.0,0.0,0.0,0.0,0.0,0.0,0.0,0.0,0.0,0.0,0.0,0.0,0.0,0.0,0.0,0.0,0.0,0.0,0.0,0.0,0.0,0.0,0.0,0.0,0.0,0.0,0.0,0.0,0.0,0.0,0.0,0.0,0.0,0.0,0.0,0.0,0.0,0.0,0.0,0.0,0.0,0.0,0.0,0.0,0.0,0.0,0.0,0.0,0.0,0.0,0.0,0.0,0.0,0.0,0.0,0.0,0.0,0.0,0.0,0.0,0.0,0.0,0.0,0.0,0.0,0.0,0.0,0.0,0.0,0.0,0.0,0.0,0.0,0.0,0.0,0.0,0.0,0.0,0.0,0.0,0.0,0.0,0.0,0.0,0.0,0.0,0.0,0.0,0.0,0.0,0.0,0.0,0.0,0.0,0.0,0.0,0.0,0.0,0.0,0.0,0.0,0.0,0.0,0.0,0.0,0.0,0.0,0.0,0.0,0.0,0.0,0.0,0.0,0.0,0.0,0.0,0.0,0.0,0.0,0.0,0.0,0.0,0.0,0.0,0.0,0.0,0.0,0.0,0.0,0.0,0.0,0.0,0.0,0.0,0.0,0.0,0.0,0.0,0.0,0.0,0.0,0.0,0.0,0.0,0.0,0.0,0.0,0.0,0.0,0.0,0.0,0.0,0.0,0.0,0.0,0.0,0.0,0.0,0.0,0.0,0.0,0.0,0.0,0.0,0.0,0.0,0.0,0.0,0.0,0.0,0.0,0.0,0.0,0.0,0.0,0.0,0.0,0.0,0.0,0.0,0.0,0.0,0.0,0.0,0.0,0.0,0.0,0.0,0.0,0.0,0.0,0.0,0.0,0.0,0.0,0.0,0.0,0.0,0.0,0.0,0.0,0.0,0.0,0.0,0.0,0.0,0.0,0.0,0.0,0.0,0.0,0.0,0.0,0.0,0.0,0.0,0.0,0.0,0.0,0.0,0.0,0.0,0.0,0.0,0.0,0.0,0.0,0.0,0.0,0.0,0.0,0.0,0.0,0.0,0.0,0.0,0.0,0.0,0.0,0.0,0.0,0.0,0.0,0.0,0.0,0.0,0.0,0.0,0.0,0.0,0.0,0.0,0.0,0.0,0.0,0.0,0.0,0.0,0.0,0.0,0.0,0.0,0.0,0.0,0.0,0.0,0.0,0.0,0.0,0.0,0.0,0.0,0.0,0.0,0.0,0.0,0.0,0.0,0.0,0.0,0.0,0.0,0.0,0.0,0.0,0.0,0.0,0.0,0.0,0.0,0.0,0.0,0.0,0.0,0.0,0.0,0.0,0.0,0.0,0.0,0.0,0.0,0.0,0.0,0.0,0.0,0.0,0.0,0.0,0.0,0.0,0.0,0.0,0.0,0.0,0.0,0.0,0.0,0.0,0.0,0.0,0.0,0.0,0.0,0.0,0.0,0.0,0.0,0.0,0.0,0.0,0.0,0.0,0.0,0.0,0.0,0.0,0.0,0.0,0.0,0.0,0.0,0.0,0.0,0.0,0.0,0.0,0.0,0.0,0.0,0.0,0.0,0.0,0.0,0.0,0.0,0.0,0.0,0.0,0.0,0.0,0.0,0.0,0.0,0.0,0.0,0.0,0.0,0.0,0.0,0.0,0.0,0.0,0.0,0.0,0.0,0.0,0.0,0.0,0.0,0.0,0.0,0.0,0.0,0.0,0.0,0.0,0.0,0.0,0.0,0.0,0.0,0.0,-2.6065,0.0,0.0,0.0,0.0,0.0,0.0,0.0,0.0,0.0,0.0,0.0,0.0,0.0,0.0,0.0,0.0,0.0,0.0,0.0,0.0,0.0,0.0,0.0,0.0,0.0,0.0,0.0,0.0,0.0,0.0,0.0,0.0,0.0,0.0,0.0,0.0,0.0,0.0,0.0,0.0,0.0,0.0,0.0,0.0,0.0,0.0,0.0,0.0,0.0,0.0,0.0,0.0,0.0,0.0,0.0,0.0,0.0,0.0,0.0,0.0,0.0,0.0,0.0,0.0,0.0,0.0,0.0,0.0,0.0,0.0,0.0,0.0,0.0,0.0,0.0,0.0,0.0,0.0,0.0,0.0,0.0,0.0,0.0,0.0,0.0,0.0,0.0,0.0,0.0,0.0,0.0,0.0,0.0,0.0,0.0,0.0,0.0,0.0,0.0,0.0,0.0,0.0,0.0,0.0,0.0,0.0,0.0,0.0,0.0,0.0,-2.6832,-2.6625,-2.6584,-2.6584,-2.6667,0.0,0.0,0.0,0.0,0.0,0.0,0.0,0.0,0.0,0.0,0.0,0.0,0.0,0.0,0.0,0.0,0.0,0.0,0.0,0.0,0.0,0.0,0.0,0.0,0.0,0.0,0.0,0.0,0.0,0.0,0.0,0.0,0.0,0.0,0.0,0.0,0.0,0.0,0.0,0.0,0.0,0.0,0.0,0.0,0.0,0.0,0.0,0.0,0.0,0.0,0.0,0.0,0.0,0.0,0.0,0.0,0.0,0.0,0.0,0.0,0.0,0.0,0.0,0.0,0.0,0.0,0.0,0.0,0.0,0.0,0.0,0.0,0.0,0.0,0.0,0.0,0.0,0.0,0.0,0.0,0.0,0.0,0.0,0.0,0.0,0.0,0.0,0.0,0.0,0.0,0.0,0.0,0.0,0.0,0.0,0.0,0.0,0.0,0.0,0.0,0.0,0.0,0.0,0.0,0.0,0.0,0.0,0.0,0.0,0.0,0.0,0.0,-2.6376,-2.6563,-2.7247,0.0,0.0,0.0,0.0,0.0,0.0,0.0,0.0,0.0,0.0,0.0,0.0,0.0,0.0,0.0,0.0,0.0,0.0,0.0,0.0,0.0,0.0,0.0,0.0,0.0,0.0,0.0,0.0,0.0,0.0,0.0,0.0,0.0,0.0,0.0,0.0,0.0,0.0,0.0,0.0,0.0,0.0,0.0,0.0,0.0,0.0,0.0,0.0,0.0,0.0,0.0,0.0,0.0,0.0,0.0,0.0,0.0,0.0,0.0,0.0,0.0,0.0,0.0,0.0,0.0,0.0,0.0,0.0,0.0,0.0,0.0,0.0,0.0,0.0,0.0,0.0,0.0,0.0,0.0,0.0,0.0,0.0,0.0,0.0,0.0,0.0,0.0,0.0,0.0,0.0,0.0,0.0,0.0,0.0,0.0,0.0,0.0,0.0,0.0,0.0,0.0,0.0,0.0,0.0,0.0,0.0,0.0,0.0,0.0,0.0,-2.704,-2.6646,-2.6978,0.0,-2.7247,0.0,0.0,0.0,0.0,0.0,0.0,0.0,0.0,0.0,0.0,0.0,0.0,0.0,0.0,0.0,0.0,0.0,0.0,0.0,0.0,0.0,0.0,0.0,0.0,0.0,0.0,0.0,0.0,0.0,0.0,0.0,0.0,0.0,0.0,0.0,0.0,0.0,0.0,0.0,0.0,0.0,0.0,0.0,0.0,0.0,0.0,0.0,0.0,0.0,0.0,0.0,0.0,0.0,0.0,0.0,0.0,0.0,0.0,0.0,0.0,0.0,0.0,0.0,0.0,0.0,0.0,0.0,0.0,0.0,0.0,0.0,0.0,0.0,0.0,0.0,0.0,0.0,0.0,0.0,0.0,0.0,0.0,0.0,0.0,0.0,0.0,0.0,0.0,0.0,0.0,0.0,0.0,0.0,0.0,0.0,0.0,0.0,0.0,0.0,0.0,0.0,0.0,0.0,0.0,0.0,0.0,0.0,0.0,0.0,0.0,-2.7226,-2.704,-2.7206,-2.7232,0.0,0.0,0.0,0.0,0.0,0.0,0.0,0.0,0.0,0.0,0.0,0.0,0.0,0.0,0.0,0.0,0.0,0.0,0.0,0.0,0.0,0.0,0.0,0.0,0.0,0.0,0.0,0.0,0.0,0.0,0.0,0.0,0.0,0.0,0.0,0.0,0.0,0.0,0.0,0.0,0.0,0.0,0.0,0.0,0.0,0.0,0.0,0.0,0.0,0.0,0.0,0.0,0.0,0.0,0.0,0.0,0.0,0.0,0.0,0.0,0.0,0.0,0.0,0.0,0.0,0.0,0.0,0.0,0.0,0.0,0.0,0.0,0.0,0.0,0.0,0.0,0.0,0.0,0.0,0.0,0.0,0.0,0.0,0.0,0.0,0.0,0.0,0.0,0.0,0.0,0.0,0.0,0.0,0.0,0.0,0.0,0.0,0.0,0.0,0.0,0.0,0.0,0.0,0.0,0.0,0.0,0.0,0.0,0.0,0.0,-2.7573,-2.7357,-2.7309,-2.7357,-2.7332,-2.7159,0.0,0.0,0.0,0.0,0.0,0.0,0.0,0.0,0.0,0.0,0.0,0.0,0.0,0.0,0.0,0.0,0.0,0.0,0.0,0.0,0.0,0.0,0.0,0.0,0.0,0.0,0.0,0.0,0.0,0.0,0.0,0.0,0.0,0.0,0.0,0.0,0.0,0.0,0.0,0.0,0.0,0.0,0.0,0.0,0.0,0.0,0.0,0.0,0.0,0.0,0.0,0.0,0.0,0.0,0.0,0.0,0.0,0.0,0.0,0.0,0.0,0.0,0.0,0.0,0.0,0.0,0.0,0.0,0.0,0.0,0.0,0.0,0.0,0.0,0.0,0.0,0.0,0.0,0.0,0.0,0.0,0.0,0.0,0.0,0.0,0.0,0.0,0.0,0.0,0.0,0.0,0.0,0.0,0.0,0.0,0.0,0.0,0.0,0.0,0.0,0.0,0.0,0.0,0.0,0.0,0.0,0.0,0.0,0.0,-2.7715,-2.7499,-2.7309,-2.7499,-2.7573,0.0,0.0,0.0,0.0,0.0,0.0,0.0,0.0,0.0,0.0,0.0,0.0,0.0,0.0,0.0,0.0,0.0,0.0,0.0,0.0,0.0,0.0,0.0,0.0,0.0,0.0,0.0,0.0,0.0,0.0,0.0,0.0,0.0,0.0,0.0,0.0,0.0,0.0,0.0,0.0,0.0,0.0,0.0,0.0,0.0,0.0,0.0,0.0,0.0,0.0,0.0,0.0,0.0,0.0,0.0,0.0,0.0,0.0,0.0,0.0,0.0,0.0,0.0,0.0,0.0,0.0,0.0,0.0,0.0,0.0,0.0,0.0,0.0,0.0,0.0,0.0,0.0,0.0,0.0,0.0,0.0,0.0,0.0,0.0,0.0,0.0,0.0,0.0,0.0,0.0,0.0,0.0,0.0,0.0,0.0,0.0,0.0,0.0,0.0,0.0,0.0,0.0,0.0,0.0,0.0,0.0,0.0,0.0,0.0,-2.8513,-2.7904,-2.7547,-2.7499,-2.7547,-2.7831,0.0,0.0,0.0,0.0,0.0,0.0,0.0,0.0,0.0,0.0,0.0,0.0,0.0,0.0,0.0,0.0,0.0,0.0,0.0,0.0,0.0,0.0,0.0,0.0,0.0,0.0,0.0,0.0,0.0,0.0,0.0,0.0,0.0,0.0,0.0,0.0,0.0,0.0,0.0,0.0,0.0,0.0,0.0,0.0,0.0,0.0,0.0,0.0,0.0,0.0,0.0,0.0,0.0,0.0,0.0,0.0,0.0,0.0,0.0,0.0,0.0,0.0,0.0,0.0,0.0,0.0,0.0,0.0,0.0,0.0,0.0,0.0,0.0,0.0,0.0,0.0,0.0,0.0,0.0,0.0,0.0,0.0,0.0,0.0,0.0,0.0,0.0,0.0,0.0,0.0,0.0,0.0,0.0,0.0,0.0,0.0,0.0,0.0,0.0,0.0,0.0,0.0,0.0,0.0,0.0,0.0,0.0,0.0,0.0,-2.8814,0.0,-2.7736,-2.7715,-2.7904,-2.8233,0.0,0.0,0.0,0.0,0.0,0.0,0.0,0.0,0.0,0.0,0.0,0.0,0.0,0.0,0.0,0.0,0.0,0.0,0.0,0.0,0.0,0.0,0.0,0.0,0.0,0.0,0.0,0.0,0.0,0.0,0.0,0.0,0.0,0.0,0.0,0.0,0.0,0.0,0.0,0.0,0.0,0.0,0.0,0.0,0.0,0.0,0.0,0.0,0.0,0.0,0.0,0.0,0.0,0.0,0.0,0.0,0.0,0.0,0.0,0.0,0.0,0.0,0.0,0.0,0.0,0.0,0.0,0.0,0.0,0.0,0.0,0.0,0.0,0.0,0.0,0.0,0.0,0.0,0.0,0.0,0.0,0.0,0.0,0.0,0.0,0.0,0.0,0.0,0.0,0.0,0.0,0.0,0.0,0.0,0.0,0.0,0.0,0.0,0.0,0.0,0.0,0.0,0.0,0.0,0.0,0.0,0.0,0.0,-2.9737,-2.8861,-2.8322,-2.8062,-2.8066,-2.8556,-2.8814,0.0,0.0,0.0,0.0,0.0,0.0,0.0,0.0,0.0,0.0,0.0,0.0,0.0,0.0,0.0,0.0,0.0,0.0,0.0,0.0,0.0,0.0,0.0,0.0,0.0,0.0,0.0,0.0,0.0,0.0,0.0,0.0,0.0,0.0,0.0,0.0,0.0,0.0,0.0,0.0,0.0,0.0,0.0,0.0,0.0,0.0,0.0,0.0,0.0,0.0,0.0,0.0,0.0,0.0,0.0,0.0,0.0,0.0,0.0,0.0,0.0,0.0,0.0,0.0,0.0,0.0,0.0,0.0,0.0,0.0,0.0,0.0,0.0,0.0,0.0,0.0,0.0,0.0,0.0,0.0,0.0,0.0,0.0,0.0,0.0,0.0,0.0,0.0,0.0,0.0,0.0,0.0,0.0,0.0,0.0,0.0,0.0,0.0,0.0,0.0,0.0,0.0,0.0,0.0,0.0,0.0,0.0,0.0,0.0,-2.9318,-2.924,-2.9246,-2.9246,-2.928,-2.9532,0.0,0.0,0.0,0.0,0.0,0.0,0.0,0.0,0.0,0.0,0.0,0.0,0.0,0.0,0.0,0.0,0.0,0.0,0.0,0.0,0.0,0.0,0.0,0.0,0.0,0.0,0.0,0.0,0.0,0.0,0.0,0.0,0.0,0.0,0.0,0.0,0.0,0.0,0.0,0.0,0.0,0.0,0.0,0.0,0.0,0.0,0.0,0.0,0.0,0.0,0.0,0.0,0.0,0.0,0.0,0.0,0.0,0.0,0.0,0.0,0.0,0.0,0.0,0.0,0.0,0.0,0.0,0.0,0.0,0.0,0.0,0.0,0.0,0.0,0.0,0.0,0.0,0.0,0.0,0.0,0.0,0.0,0.0,0.0,0.0,0.0,0.0,0.0,0.0,0.0,0.0,0.0,0.0,0.0,0.0,0.0,0.0,0.0,0.0,0.0,0.0,0.0,0.0,0.0,0.0,0.0,0.0,0.0,0.0,-3.0496,-3.0122,-2.9943,-2.9943,-2.9825,-3.0036,-3.0578,0.0,0.0,0.0,0.0,0.0,0.0,0.0,0.0,0.0,0.0,0.0,0.0,0.0,0.0,0.0,0.0,0.0,0.0,0.0,0.0,0.0,0.0,0.0,0.0,0.0,0.0,0.0,0.0,0.0,0.0,0.0,0.0,0.0,0.0,0.0,0.0,0.0,0.0,0.0,0.0,0.0,0.0,0.0,0.0,0.0,0.0,0.0,0.0,0.0,0.0,0.0,0.0,0.0,0.0,0.0,0.0,0.0,0.0,0.0,0.0,0.0,0.0,0.0,0.0,0.0,0.0,0.0,0.0,0.0,0.0,0.0,0.0,0.0,0.0,0.0,0.0,0.0,0.0,0.0,0.0,0.0,0.0,0.0,0.0,0.0,0.0,0.0,0.0,0.0,0.0,0.0,0.0,0.0,0.0,0.0,0.0,0.0,0.0,0.0,0.0,0.0,0.0,0.0,0.0,0.0,0.0,0.0,0.0,-3.226,-3.1096,-3.046,-3.0395,-3.0367,-3.0433,0.0,0.0,0.0,0.0,0.0,0.0,0.0,0.0,0.0,0.0,0.0,0.0,0.0,0.0,0.0,0.0,0.0,0.0,0.0,0.0,0.0,0.0,0.0,0.0,0.0,0.0,0.0,0.0,0.0,0.0,0.0,0.0,0.0,0.0,0.0,0.0,0.0,0.0,0.0,0.0,0.0,0.0,0.0,0.0,0.0,0.0,0.0,0.0,0.0,0.0,0.0,0.0,0.0,0.0,0.0,0.0,0.0,0.0,0.0,0.0,0.0,0.0,0.0,0.0,0.0,0.0,0.0,0.0,0.0,0.0,0.0,0.0,0.0,0.0,0.0,0.0,0.0,0.0,0.0,0.0,0.0,0.0,0.0,0.0,0.0,0.0,0.0,0.0,0.0,0.0,0.0,0.0,0.0,0.0,0.0,0.0,0.0,0.0,0.0,0.0,0.0,0.0,0.0,0.0,0.0,0.0,0.0,0.0,0.0,-3.4324,-3.3874,-3.3107,-3.2184,-3.1961,-3.1915,0.0,0.0,0.0,0.0,0.0,0.0,0.0,0.0,0.0,0.0,0.0,0.0,0.0,0.0,0.0,0.0,0.0,0.0,0.0,0.0,0.0,0.0,0.0,0.0,0.0,0.0,0.0,0.0,0.0,0.0,0.0,0.0,0.0,0.0,0.0,0.0,0.0,0.0,0.0,0.0,0.0,0.0,0.0,0.0,0.0,0.0,0.0,0.0,0.0,0.0,0.0,0.0,0.0,0.0,0.0,0.0,0.0,0.0,0.0,0.0,0.0,0.0,0.0,0.0,0.0,0.0,0.0,0.0,0.0,0.0,0.0,0.0,0.0,0.0,0.0,0.0,0.0,0.0,0.0,0.0,0.0,0.0,0.0,0.0,0.0,0.0,0.0,0.0,0.0,0.0,0.0,0.0,0.0,0.0,0.0,0.0,0.0,0.0,0.0,0.0,0.0,0.0,0.0,0.0,0.0,0.0,0.0,0.0,-3.4534,-3.5338,-3.523,-3.4848,-3.4143,-3.3426,-3.2948,0.0,0.0,0.0,0.0,0.0,0.0,0.0,0.0,0.0,0.0,0.0,0.0,0.0,0.0,0.0,0.0,0.0,0.0,0.0,0.0,0.0,0.0,0.0,0.0,0.0,0.0,0.0,0.0,0.0,0.0,0.0,0.0,0.0,0.0,0.0,0.0,0.0,0.0,0.0,0.0,0.0,0.0,0.0,0.0,0.0,0.0,0.0,0.0,0.0,0.0,0.0,0.0,0.0,0.0,0.0,0.0,0.0,0.0,0.0,0.0,0.0,0.0,0.0,0.0,0.0,0.0,0.0,0.0,0.0,0.0,0.0,0.0,0.0,0.0,0.0,0.0,0.0,0.0,0.0,0.0,0.0,0.0,0.0,0.0,0.0,0.0,0.0,0.0,0.0,0.0,0.0,0.0,0.0,0.0,0.0,0.0,0.0,0.0,0.0,0.0,0.0,0.0,0.0,0.0,0.0,0.0,0.0,0.0,-3.512,-3.5812,-3.5836,-3.5967,-3.6101,-3.4701,-3.3728,0.0,0.0,0.0,0.0,0.0,0.0,0.0,0.0,0.0,0.0,0.0,0.0,0.0,0.0,0.0,0.0,0.0,0.0,0.0,0.0,0.0,0.0,0.0,0.0,0.0,0.0,0.0,0.0,0.0,0.0,0.0,0.0,0.0,0.0,0.0,0.0,0.0,0.0,0.0,0.0,0.0,0.0,0.0,0.0,0.0,0.0,0.0,0.0,0.0,0.0,0.0,0.0,0.0,0.0,0.0,0.0,0.0,0.0,0.0,0.0,0.0,0.0,0.0,0.0,0.0,0.0,0.0,0.0,0.0,0.0,0.0,0.0,0.0,0.0,0.0,0.0,0.0,0.0,0.0,0.0,0.0,0.0,0.0,0.0,0.0,0.0,0.0,0.0,0.0,0.0,0.0,0.0,0.0,0.0,0.0,0.0,0.0,0.0,0.0,0.0,0.0,0.0,0.0,0.0,0.0,0.0,0.0,0.0,-3.7115,-3.7455,-3.7479,-3.7392,-3.7242,-3.5901,-3.506,0.0,0.0,0.0,0.0,0.0,0.0,0.0,0.0,0.0,0.0,0.0,0.0,0.0,0.0,0.0,0.0,0.0,0.0,0.0,0.0,0.0,0.0,0.0,0.0,0.0,0.0,0.0,0.0,0.0,0.0,0.0,0.0,0.0,0.0,0.0,0.0,0.0,0.0,0.0,0.0,0.0,0.0,0.0,0.0,0.0,0.0,0.0,0.0,-3.455,0.0,0.0,0.0,0.0,0.0,0.0,0.0,0.0,0.0,0.0,0.0,0.0,0.0,0.0,0.0,0.0,0.0,0.0,0.0,0.0,0.0,0.0,0.0,0.0,0.0,0.0,0.0,0.0,0.0,0.0,0.0,0.0,0.0,0.0,0.0,0.0,0.0,0.0,0.0,0.0,0.0,0.0,0.0,0.0,0.0,0.0,0.0,0.0,0.0,0.0,0.0,0.0,0.0,0.0,0.0,0.0,0.0,0.0,0.0,-3.8408,-3.8785,-3.881,-3.8717,-3.8582,-3.748,-3.6528,0.0,0.0,0.0,0.0,0.0,0.0,0.0,0.0,0.0,0.0,0.0,0.0,0.0,0.0,0.0,0.0,0.0,0.0,0.0,0.0,0.0,0.0,0.0,0.0,0.0,0.0,0.0,0.0,0.0,0.0,0.0,0.0,0.0,0.0,0.0,0.0,0.0,0.0,0.0,0.0,0.0,0.0,0.0,0.0,0.0,0.0,0.0,0.0,0.0,0.0,0.0,0.0,0.0,0.0,0.0,0.0,0.0,0.0,0.0,0.0,0.0,0.0,0.0,0.0,0.0,0.0,0.0,0.0,0.0,0.0,0.0,0.0,0.0,0.0,0.0,0.0,0.0,0.0,0.0,0.0,0.0,0.0,0.0,0.0,0.0,0.0,0.0,0.0,0.0,0.0,0.0,0.0,0.0,0.0,0.0,0.0,0.0,0.0,0.0,0.0,0.0,0.0,0.0,0.0,0.0,0.0,0.0,-3.8358,-3.929,-3.9652,-3.9775,-3.9828,-3.973,-3.898,-3.794,-3.6678,0.0,0.0,0.0,0.0,0.0,0.0,0.0,0.0,0.0,0.0,0.0,0.0,0.0,0.0,0.0,0.0,0.0,0.0,0.0,0.0,0.0,0.0,0.0,0.0,0.0,0.0,0.0,0.0,0.0,0.0,0.0,0.0,0.0,0.0,0.0,0.0,0.0,0.0,-3.4173,-3.4751,0.0,0.0,0.0,0.0,0.0,0.0,0.0,0.0,-3.7387,0.0,0.0,0.0,0.0,0.0,0.0,0.0,0.0,0.0,0.0,0.0,0.0,0.0,0.0,0.0,0.0,0.0,0.0,0.0,0.0,0.0,0.0,0.0,0.0,0.0,0.0,0.0,0.0,0.0,0.0,0.0,0.0,0.0,0.0,0.0,0.0,0.0,0.0,0.0,0.0,0.0,0.0,0.0,0.0,0.0,0.0,0.0,0.0,0.0,0.0,0.0,0.0,0.0,0.0,0.0,0.0,-3.7444,-3.9057,-3.9844,-3.9677,-4.0173,-4.0256,-4.0025,-3.9457,-3.8714,-3.7766,0.0,0.0,0.0,0.0,0.0,0.0,0.0,0.0,0.0,0.0,0.0,0.0,0.0,0.0,0.0,0.0,0.0,0.0,0.0,0.0,0.0,0.0,0.0,0.0,0.0,0.0,0.0,0.0,0.0,0.0,0.0,0.0,0.0,0.0,0.0,0.0,0.0,0.0,0.0,-3.6433,-3.696,0.0,0.0,0.0,0.0,0.0,0.0,0.0,0.0,-3.7713,0.0,0.0,0.0,0.0,0.0,0.0,0.0,0.0,0.0,0.0,0.0,0.0,0.0,0.0,0.0,0.0,0.0,0.0,0.0,0.0,0.0,0.0,0.0,0.0,0.0,0.0,0.0,0.0,0.0,0.0,0.0,0.0,0.0,0.0,0.0,0.0,0.0,0.0,0.0,0.0,0.0,0.0,0.0,0.0,0.0,0.0,0.0,0.0,0.0,0.0,0.0,0.0,0.0,0.0,0.0,-3.8691,-4.004,-4.081,-4.0977,-4.125,-4.1305,-4.1193,-4.0392,-3.9442,0.0,0.0,0.0,0.0,0.0,0.0,0.0,0.0,0.0,0.0,0.0,0.0,0.0,0.0,0.0,0.0,0.0,0.0,0.0,0.0,0.0,0.0,0.0,0.0,0.0,0.0,0.0,0.0,0.0,0.0,0.0,0.0,0.0,0.0,0.0,0.0,0.0,0.0,0.0,0.0,-3.6835,-3.7387,-3.7939,0.0,0.0,0.0,0.0,0.0,0.0,-3.8693,-3.8592,0.0,0.0,0.0,0.0,0.0,0.0,0.0,0.0,0.0,0.0,0.0,0.0,0.0,0.0,0.0,0.0,0.0,0.0,0.0,0.0,0.0,0.0,0.0,0.0,0.0,0.0,0.0,0.0,0.0,0.0,0.0,0.0,0.0,0.0,0.0,0.0,0.0,0.0,0.0,0.0,0.0,0.0,0.0,0.0,0.0,0.0,0.0,0.0,0.0,0.0,0.0,0.0,0.0,0.0,0.0,-3.9672,-4.0724,-4.1605,-4.2187,-4.2313,-4.2313,-4.2187,-4.1204,-4.0124,0.0,0.0,0.0,0.0,0.0,0.0,0.0,0.0,0.0,0.0,0.0,0.0,0.0,0.0,0.0,0.0,0.0,0.0,0.0,0.0,0.0,0.0,0.0,0.0,0.0,0.0,0.0,0.0,0.0,0.0,0.0,0.0,0.0,0.0,0.0,0.0,0.0,0.0,0.0,0.0,0.0,-3.7764,-3.8417,-3.8517,0.0,0.0,0.0,0.0,-3.912,-3.9396,0.0,0.0,0.0,0.0,0.0,0.0,0.0,0.0,0.0,0.0,0.0,0.0,0.0,0.0,0.0,0.0,0.0,0.0,0.0,0.0,0.0,0.0,0.0,0.0,0.0,0.0,0.0,0.0,0.0,0.0,0.0,0.0,0.0,0.0,0.0,0.0,0.0,0.0,0.0,0.0,0.0,0.0,0.0,0.0,0.0,0.0,0.0,0.0,0.0,0.0,0.0,0.0,0.0,0.0,0.0,0.0,-3.9647,-4.0777,-4.1605,-4.2187,-4.2635,-4.266,-4.2213,-4.1555,-4.0501,0.0,0.0,0.0,0.0,0.0,0.0,0.0,0.0,0.0,0.0,0.0,0.0,0.0,0.0,0.0,0.0,0.0,0.0,0.0,0.0,0.0,0.0,0.0,0.0,0.0,0.0,0.0,0.0,0.0,0.0,0.0,0.0,0.0,0.0,0.0,0.0,0.0,0.0,0.0,0.0,0.0,-3.9044,-4.0074,-4.0224,-4.0049,0.0,0.0,-4.0149,-3.9672,-3.9647,0.0,0.0,0.0,0.0,0.0,0.0,0.0,0.0,0.0,0.0,0.0,0.0,0.0,0.0,0.0,0.0,0.0,0.0,0.0,0.0,0.0,0.0,0.0,0.0,0.0,0.0,0.0,0.0,0.0,0.0,0.0,0.0,0.0,0.0,0.0,0.0,0.0,0.0,0.0,0.0,0.0,0.0,0.0,0.0,0.0,0.0,0.0,0.0,0.0,0.0,0.0,0.0,0.0,0.0,0.0,-3.8642,-4.0551,-4.105,-4.1756,-4.264,-4.2861,-4.2916,-4.2665,-4.1781,-4.0852,0.0,0.0,0.0,0.0,0.0,0.0,0.0,0.0,0.0,0.0,0.0,0.0,0.0,0.0,0.0,0.0,0.0,0.0,0.0,0.0,0.0,0.0,0.0,0.0,0.0,0.0,0.0,0.0,0.0,0.0,0.0,0.0,0.0,0.0,0.0,0.0,0.0,0.0,0.0,0.0,0.0,0.0,-4.0375,-4.0526,0.0,0.0,0.0,-4.0749,-4.0249,0.0,0.0,0.0,0.0,0.0,0.0,0.0,0.0,0.0,0.0,0.0,0.0,0.0,0.0,0.0,0.0,0.0,0.0,0.0,0.0,0.0,0.0,0.0,0.0,0.0,0.0,0.0,0.0,0.0,0.0,0.0,0.0,0.0,0.0,0.0,0.0,0.0,0.0,0.0,0.0,0.0,0.0,0.0,0.0,0.0,0.0,0.0,0.0,0.0,0.0,0.0,0.0,0.0,0.0,0.0,0.0,0.0,-4.1225,-4.1275,-4.1882,-4.2936,-4.2986,-4.2986,-4.2961,-4.1907,0.0,0.0,0.0,0.0,0.0,0.0,0.0,0.0,0.0,0.0,0.0,0.0,0.0,0.0,0.0,0.0,0.0,0.0,0.0,0.0,0.0,0.0,0.0,0.0,0.0,0.0,0.0,-3.4148,0.0,0.0,0.0,0.0,0.0,0.0,0.0,0.0,0.0,0.0,0.0,0.0,0.0,0.0,-3.9898,-4.0978,-4.1003,-4.1028,0.0,0.0,-4.1354,-4.0802,-4.0674,-4.045,0.0,0.0,0.0,0.0,0.0,0.0,0.0,0.0,0.0,0.0,0.0,0.0,0.0,0.0,0.0,0.0,0.0,0.0,0.0,0.0,0.0,0.0,0.0,0.0,0.0,0.0,0.0,0.0,0.0,0.0,0.0,0.0,0.0,0.0,0.0,0.0,0.0,0.0,0.0,0.0,0.0,0.0,0.0,0.0,0.0,0.0,0.0,0.0,0.0,0.0,0.0,0.0,0.0,0.0,0.0,-4.1175,-4.1275,-4.1882,-4.2936,-4.2986,-4.2986,-4.2961,-4.1907,-4.1025,0.0,0.0,0.0,0.0,0.0,0.0,0.0,0.0,0.0,0.0,0.0,0.0,0.0,0.0,0.0,0.0,0.0,0.0,0.0,0.0,0.0,0.0,0.0,0.0,0.0,0.0,0.0,0.0,0.0,0.0,0.0,0.0,0.0,0.0,0.0,0.0,0.0,0.0,0.0,0.0,0.0,-4.158,-4.266,-4.2439,-4.1882,0.0,0.0,-4.1961,-4.1326,-4.1225,-4.12,-4.1125,0.0,0.0,0.0,0.0,0.0,0.0,0.0,0.0,0.0,0.0,0.0,0.0,0.0,0.0,0.0,0.0,0.0,0.0,0.0,0.0,0.0,0.0,0.0,0.0,0.0,0.0,0.0,0.0,0.0,0.0,0.0,0.0,0.0,0.0,0.0,0.0,0.0,0.0,0.0,0.0,0.0,0.0,0.0,0.0,0.0,0.0,0.0,0.0,0.0,0.0,0.0,0.0,0.0,-3.9798,-4.125,-4.1681,-4.2208,-4.2936,-4.2986,-4.2986,-4.2986,-4.2233,-4.158,0.0,0.0,0.0,0.0,0.0,0.0,0.0,0.0,0.0,0.0,0.0,0.0,0.0,0.0,0.0,0.0,0.0,0.0,0.0,0.0,0.0,0.0,0.0,0.0,0.0,0.0,0.0,0.0,-3.8191,-3.8617,-3.8894,0.0,0.0,0.0,0.0,0.0,0.0,0.0,0.0,0.0,0.0,-4.2007,-4.2464,-4.2338,0.0,0.0,-4.2534,-4.2484,-4.1932,-4.1831,-4.1856,-4.1831,-4.1204,0.0,0.0,0.0,0.0,0.0,0.0,0.0,0.0,0.0,0.0,0.0,0.0,0.0,0.0,0.0,0.0,0.0,0.0,0.0,0.0,0.0,0.0,0.0,0.0,0.0,0.0,0.0,0.0,0.0,0.0,0.0,0.0,0.0,0.0,0.0,0.0,0.0,0.0,0.0,0.0,0.0,0.0,0.0,0.0,0.0,0.0,0.0,0.0,0.0,0.0,0.0,0.0,-4.0224,-4.1275,-4.1882,-4.2489,-4.3017,-4.2986,-4.2986,-4.2961,-4.2489,-4.2037,0.0,0.0,0.0,0.0,0.0,0.0,0.0,0.0,0.0,0.0,0.0,0.0,0.0,0.0,0.0,0.0,0.0,0.0,0.0,0.0,0.0,0.0,0.0,0.0,0.0,0.0,0.0,0.0,-3.9019,-3.922,-3.8894,0.0,0.0,0.0,0.0,0.0,0.0,0.0,0.0,0.0,0.0,-4.2514,-4.2665,-4.269,-4.2841,-4.3162,-4.3363,-4.3338,-4.2961,-4.2886,-4.2886,-4.2886,0.0,0.0,0.0,0.0,0.0,0.0,0.0,0.0,0.0,0.0,0.0,0.0,0.0,0.0,0.0,0.0,0.0,0.0,0.0,0.0,0.0,0.0,0.0,0.0,0.0,0.0,0.0,0.0,0.0,0.0,-3.2816,0.0,0.0,0.0,0.0,0.0,0.0,0.0,0.0,0.0,0.0,0.0,0.0,0.0,0.0,0.0,0.0,0.0,0.0,0.0,0.0,0.0,0.0,-4.0249,-4.1275,-4.1907,-4.2489,-4.2961,-4.2986,-4.2986,-4.2961,-4.2489,-4.2213,-4.2187,0.0,0.0,0.0,0.0,0.0,0.0,0.0,0.0,0.0,0.0,0.0,0.0,0.0,0.0,0.0,0.0,0.0,0.0,0.0,0.0,0.0,0.0,0.0,0.0,0.0,0.0,-3.9572,-4.0124,-4.0023,0.0,0.0,0.0,0.0,0.0,0.0,0.0,0.0,0.0,0.0,-4.2992,-4.3162,-4.3689,-4.3765,-4.374,-4.379,-4.4217,-4.4568,-4.4518,-4.4543,-4.4568,0.0,0.0,0.0,0.0,0.0,0.0,0.0,0.0,0.0,0.0,0.0,0.0,0.0,0.0,0.0,0.0,0.0,0.0,0.0,0.0,0.0,0.0,0.0,0.0,0.0,0.0,0.0,-3.18,-3.2225,0.0,0.0,0.0,0.0,0.0,0.0,0.0,0.0,0.0,0.0,0.0,-3.8843,-3.8668,0.0,0.0,0.0,0.0,0.0,0.0,0.0,0.0,0.0,0.0,0.0,0.0,-4.1153,-4.1882,-4.2434,-4.2785,-4.2986,-4.2986,-4.2986,-4.2986,-4.2841,-4.259,-4.2213,0.0,0.0,0.0,0.0,0.0,0.0,0.0,0.0,0.0,0.0,0.0,0.0,0.0,0.0,0.0,0.0,0.0,0.0,0.0,0.0,0.0,0.0,0.0,0.0,0.0,-3.9094,0.0,0.0,0.0,0.0,0.0,0.0,0.0,0.0,0.0,0.0,0.0,-4.3112,-4.3463,-4.4166,-4.4568,-4.4392,-4.4342,-4.4342,0.0,0.0,0.0,0.0,0.0,0.0,0.0,0.0,0.0,0.0,0.0,0.0,0.0,0.0,-4.2181,-4.0322,-3.9467,-3.8931,-3.8504,0.0,0.0,0.0,0.0,0.0,0.0,0.0,0.0,0.0,0.0,0.0,0.0,0.0,0.0,-3.3166,0.0,-3.3724,0.0,0.0,0.0,0.0,0.0,0.0,0.0,0.0,-4.03,-4.0651,-4.0827,-4.0827,-4.0827,0.0,-4.1003,-4.0526,0.0,0.0,0.0,0.0,0.0,0.0,0.0,0.0,-4.1806,-4.2213,-4.274,-4.2986,-4.2986,-4.2986,-4.2986,-4.2986,-4.2986,-4.2766,-4.2213,-4.148,-4.0852,0.0,0.0,0.0,0.0,0.0,0.0,0.0,0.0,0.0,0.0,0.0,0.0,0.0,0.0,0.0,0.0,0.0,0.0,0.0,0.0,0.0,0.0,0.0,-3.9672,0.0,0.0,0.0,0.0,0.0,0.0,0.0,0.0,0.0,-4.1907,-4.3011,-4.3865,-4.4066,-4.4719,-4.5045,-4.4694,0.0,0.0,0.0,0.0,0.0,0.0,0.0,-4.6451,-4.6803,-4.6878,-4.6979,-4.7355,-4.6797,-4.6266,-4.6081,0.0,0.0,-4.2353,-4.1349,-4.0678,-4.0105,-3.9516,-3.9001,-3.8872,-3.8904,-3.8837,0.0,0.0,0.0,0.0,0.0,0.0,0.0,0.0,-3.4298,-3.4953,0.0,-3.5276,0.0,0.0,0.0,0.0,0.0,-4.0137,0.0,0.0,-4.2007,-4.2564,-4.2986,-4.3011,-4.3011,-4.3011,-4.2539,-4.2288,-4.2238,-4.1681,0.0,0.0,0.0,0.0,0.0,0.0,-4.2213,-4.2288,-4.2816,-4.3011,-4.3037,-4.3037,-4.3037,-4.3062,-4.3037,-4.2816,-4.2313,-4.2238,-4.1932,-4.1326,-4.0612,0.0,0.0,0.0,0.0,0.0,0.0,0.0,0.0,0.0,0.0,0.0,0.0,0.0,0.0,0.0,0.0,0.0,0.0,0.0,0.0,-4.0224,0.0,0.0,0.0,0.0,0.0,0.0,0.0,0.0,0.0,0.0,-4.3062,-4.3539,-4.4066,-4.4618,0.0,0.0,0.0,0.0,-4.6351,-4.6351,-4.723,-4.7883,-4.7883,-4.7908,-4.7908,-4.7908,0.0,0.0,-4.7971,-4.772,-4.7519,-4.7494,-4.6719,-4.5438,-4.3742,-4.3223,-4.2662,-4.1727,-4.1305,-4.0908,-4.0356,-4.0465,-4.0591,-3.3927,0.0,0.0,0.0,0.0,-3.3473,-3.4253,-3.5163,-3.5771,-3.6443,-3.7155,-3.7381,0.0,0.0,0.0,0.0,0.0,0.0,-4.3162,-4.3689,-4.384,-4.3991,-4.4141,-4.4166,-4.4141,-4.4141,-4.3991,-4.3915,-4.3915,-4.3765,-4.283,-4.1326,0.0,0.0,0.0,0.0,-4.259,-4.3288,-4.3489,-4.3765,-4.4141,-4.4141,-4.4141,-4.4141,-4.3765,-4.3489,-4.3338,-4.2936,-4.2484,-4.1986,-4.19,0.0,0.0,0.0,0.0,0.0,0.0,0.0,0.0,0.0,0.0,0.0,0.0,0.0,0.0,0.0,0.0,0.0,0.0,0.0,-4.0827,-4.0974,-4.11,0.0,0.0,0.0,0.0,0.0,0.0,0.0,0.0,0.0,-4.4669,-4.4895,-4.5196,0.0,0.0,-4.6491,-4.6903,-4.7255,-4.7431,-4.7456,-4.7707,0.0,-4.7908,-4.8259,-4.851,-4.8535,-4.9188,-4.9751,-4.9891,-4.9661,-4.933,-4.904,-4.8305,-4.74,-4.6417,-4.4817,-4.3534,-4.2784,-4.2414,-4.2103,-4.1649,-4.1719,-4.1814,-3.5728,-3.4693,-3.4051,-3.4051,-3.4505,-3.5005,-3.5728,-3.655,-3.7101,-3.7789,-3.8535,-3.8847,-3.9477,-4.0482,-4.1106,0.0,0.0,0.0,-4.4327,-4.497,-4.497,-4.507,-4.5271,-4.5296,-4.5397,-4.5538,-4.5397,-4.5397,-4.5623,-4.5623,-4.4844,-4.3281,0.0,0.0,-4.3137,-4.3137,-4.3463,-4.4091,-4.4116,-4.4292,-4.4618,-4.4618,-4.4618,-4.4618,-4.4292,-4.4141,-4.4116,-4.3614,-4.3162,-4.2811,-4.2684,-4.2217,0.0,0.0,0.0,0.0,0.0,0.0,0.0,0.0,0.0,0.0,0.0,-3.9102,-4.0032,0.0,0.0,0.0,-4.1028,-4.1379,-4.1957,-4.1806,0.0,0.0,0.0,0.0,0.0,0.0,0.0,-4.3288,-4.4166,-4.5045,-4.5723,-4.6175,-4.6502,-4.6627,-4.7104,-4.7556,-4.7857,0.0,-4.8335,-4.8535,-4.8761,-4.8987,-4.9213,-4.954,-4.9766,-4.9766,-5.0293,-5.0688,-5.068,-5.0443,-5.0063,-4.9631,-4.8879,-4.8121,-4.7538,-4.6261,-4.483,-4.3731,-4.3236,-4.2852,-4.2293,-4.25,-4.2787,-3.6908,-3.6846,-3.5997,-3.5852,-3.6163,-3.6478,-3.7045,-3.7848,-3.8165,-3.8848,-3.9622,-3.9837,-4.057,-4.1752,-4.2951,0.0,-4.3979,-4.4333,-4.4901,-4.5673,-4.5673,-4.5949,-4.6426,-4.6426,-4.6702,-4.7118,-4.6677,-4.6702,-4.7093,-4.7118,-4.6867,-4.6426,-4.5397,-4.4819,-4.4636,-4.4644,-4.4644,-4.4694,-4.4694,-4.4719,-4.4769,-4.4769,-4.4744,-4.4769,-4.4719,-4.4694,-4.4669,-4.4166,-4.384,-4.3765,-4.3113,-4.2696,-4.2569,0.0,0.0,0.0,0.0,0.0,0.0,0.0,0.0,0.0,0.0,0.0,0.0,0.0,0.0,0.0,-4.2057,0.0,-4.3062,-4.2715,0.0,0.0,0.0,-4.2911,-4.2464,-4.3689,-4.4443,-4.4066,0.0,0.0,-4.6426,-4.733,-4.7807,-4.738,-4.7707,-4.8008,-4.8109,-4.8586,-4.9088,-4.964,-5.0142,-5.0645,-5.0971,-5.1122,-5.1147,-5.1222,-5.1348,-5.1239,-5.0886,-5.0573,-5.021,-4.9825,-4.8815,-4.8053,-4.774,-4.7409,-4.6595,-4.4568,-4.3876,-4.3405,-4.2823,-4.318,-4.3718,-3.786,-3.7839,-3.7612,-3.7198,-3.6639,-3.6958,-3.7465,-3.7994,-3.853,-3.9131,-3.9715,-4.0553,-4.1865,-4.3535,-4.4981,-4.5792,-4.6191,-4.6501,-4.6922,-4.733,-4.733,-4.7405,-4.7531,-4.7531,-4.7581,-4.7707,-4.7581,-4.7606,-4.7707,-4.7732,-4.7657,-4.7506,-4.7255,-4.6502,-4.5296,-4.4844,-4.4844,-4.5271,-4.5271,-4.5497,-4.5899,-4.5924,-4.5899,-4.5899,-4.5497,-4.5296,-4.5271,-4.4744,-4.4242,-4.3815,-4.3595,-4.326,-4.2645,-4.1915,0.0,0.0,0.0,0.0,0.0,0.0,0.0,0.0,0.0,-4.0947,-4.2641,0.0,-4.3212,0.0,-4.3966,-4.4091,-4.4217,-4.4116,0.0,0.0,-4.4141,-4.4192,-4.4066,-4.4392,-4.4895,-4.5648,-4.6075,-4.6627,-4.7431,-4.8134,-4.8686,-4.8962,-4.8761,-4.8862,-4.9665,-4.9916,-5.0218,-5.0745,-5.0971,-5.1122,-5.1272,-5.1272,-5.1448,-5.185,-5.1925,-5.1847,-5.1561,-5.1496,-5.1219,-5.0521,-4.9723,-4.8989,-4.8315,-4.7948,-4.7135,-4.5632,-4.5392,-4.532,-4.4494,-4.4505,-4.467,-3.8295,-3.8481,-3.8481,-3.8295,-3.8005,-3.7788,-3.7942,-3.8369,-3.9105,-3.9624,-4.0146,-4.1723,-4.3142,-4.4542,-4.5662,-4.6357,-4.6675,-4.7016,-4.737,-4.7683,-4.7845,-4.7908,-4.7908,-4.7908,-4.8033,-4.8284,-4.8284,-4.841,-4.8661,-4.8661,-4.8661,-4.8661,-4.841,-4.7832,-4.6979,-4.6376,-4.6125,-4.62,-4.5974,-4.5999,-4.6301,-4.6326,-4.6326,-4.6301,-4.6024,-4.5849,-4.5849,-4.5296,-4.4869,-4.4568,-4.4317,-4.3947,-4.3512,-4.284,-4.2366,0.0,0.0,0.0,0.0,0.0,0.0,0.0,0.0,0.0,0.0,0.0,-4.4443,-4.5296,-4.492,-4.4719,-4.4995,-4.4769,-4.4618,-4.4618,-4.4844,-4.5095,-4.5347,-4.5538,-4.6075,-4.6928,-4.7255,-4.7631,-4.8234,-4.8987,-4.9615,-4.9916,-4.9916,-5.0117,-5.0645,-5.0795,-5.0996,-5.1548,-5.1649,-5.1749,-5.195,-5.2026,-5.2101,-5.2377,-5.2316,-5.2167,-5.1841,-5.1656,-5.1306,-5.0767,-5.0033,-4.9221,-4.8546,-4.8129,-4.7401,-4.6105,-4.589,-4.5877,-4.5138,-4.5147,-4.5291,-3.8585,-3.8869,-3.8869,-3.9096,-3.9406,-3.8688,-3.8558,-3.8891,-3.958,-4.022,-4.0776,-4.2903,-4.4252,-4.493,-4.5715,-4.6255,-4.664,-4.6895,-4.7277,-4.7656,-4.7946,-4.8071,-4.8134,-4.8109,-4.841,-4.8962,-4.8987,-4.9264,-4.9791,-4.9816,-4.9816,-4.9791,-4.9339,-4.9063,-4.8962,-4.8485,-4.7908,-4.7168,-4.6753,-4.6502,-4.6527,-4.6502,-4.6527,-4.6527,-4.6502,-4.6476,-4.6401,-4.5949,-4.5623,-4.5497,-4.4995,-4.4694,-4.4618,-4.3941,-4.3523,0.0,-4.2325,0.0,0.0,0.0,0.0,0.0,0.0,0.0,0.0,-4.4694,-4.5799,-4.6276,-4.5422,-4.507,-4.5648,-4.5246,-4.497,-4.507,-4.5497,-4.5999,-4.6476,-4.6954,-4.7431,-4.7958,-4.846,-4.8786,-4.9012,-4.9841,-5.0419,-5.0645,-5.1021,-5.1348,-5.1498,-5.1448,-5.1574,-5.2126,-5.2201,-5.2352,-5.2729,-5.281,-5.281,-5.2767,-5.2535,-5.2238,-5.1796,-5.1446,-5.1095,-5.0696,-5.0033,-4.9221,-4.8546,-4.8129,-4.7423,-4.5919,-4.6018,-4.6004,-4.5279,-4.5354,-4.5664,-3.9261,-3.9344,-3.9344,-3.9385,-3.9447,-3.9282,-3.9288,-3.9357,-3.983,-4.0622,-4.159,-4.3287,-4.4428,-4.5162,-4.6291,-4.7143,-4.7644,-4.78,-4.8101,-4.8774,-4.8814,-4.9007,-4.9264,-4.9289,-4.9565,-5.0092,-5.0117,-5.0393,-5.0946,-5.0946,-5.0971,-5.0946,-5.0845,-5.0569,-5.0117,0.0,0.0,0.0,-4.7657,-4.7606,-4.7606,-4.7606,-4.7606,-4.7606,-4.7606,0.0,-4.7004,-4.6878,-4.6401,-4.5547,-4.5397,0.0,0.0,0.0,0.0,0.0,0.0,0.0,0.0,0.0,0.0,0.0,-4.45,-4.5053,-4.5045,-4.5723,-4.62,-4.6301,-4.61,-4.6225,-4.6778,-4.6728,-4.6828,-4.723,-4.738,-4.7506,-4.7606,-4.7707,-4.7983,-4.8535,-4.8711,-4.9113,-4.9902,-5.0293,-5.077,-5.1506,-5.1875,-5.2126,-5.2528,-5.2201,-5.2176,-5.2653,-5.2779,-5.2804,-5.2836,-5.2886,-5.2842,-5.2585,-5.2421,-5.2074,-5.1492,-5.1306,-5.1095,-5.0791,-5.0033,-4.9268,-4.8569,-4.8129,-4.7481,-4.6326,-4.6464,-4.6384,-4.5242,-4.5354,-4.5685,-3.9612,0.0,-3.9889,-3.9992,0.0,-4.0199,-4.0199,-4.0179,-4.0389,-4.1172,-4.2489,-4.3826,-4.4754,-4.5226,-4.6445,-4.7165,-4.7497,-4.7828,-4.837,-4.8944,-4.9142,-4.9553,-5.0131,-5.0131,-5.0347,-5.0845,-5.0845,-5.0996,-5.1272,-5.1272,-5.1272,-5.1272,-5.1272,-5.1122,-5.0845,-5.0569,-4.9741,-4.836,-4.8058,-4.7908,-4.7908,-4.7908,-4.7908,-4.7908,-4.7908,0.0,0.0,0.0,0.0,0.0,0.0,0.0,0.0,0.0,0.0,-4.4644,-4.4367,-4.4091,-4.3815,-4.4066,-4.4443,-4.502,-4.605,-4.6577,-4.6301,-4.6552,-4.6828,-4.7079,-4.7104,-4.7205,-4.7481,-4.7506,-4.7631,-4.7883,-4.7908,-4.8008,-4.8284,-4.8209,-4.8432,-4.9182,-4.9137,-4.937,-5.0124,-5.0563,-5.0911,-5.1482,-5.1805,-5.2054,-5.2278,-5.2473,-5.2703,-5.3206,-5.3306,-5.3306,-5.3237,-5.3123,-5.2859,-5.2521,-5.2074,-5.1632,-5.1282,-5.1313,-5.1199,-5.089,-5.0337,-4.9773,-4.8987,-4.8224,-4.7312,-4.6476,-4.6266,-4.598,-4.5221,-4.5519,-4.6016,-3.9992,-4.0344,-4.0344,-4.053,-4.0882,-4.0882,-4.0882,-4.0912,0.0,0.0,0.0,-4.4043,-4.48,-4.5256,-4.6388,-4.6974,-4.7175,-4.7804,-4.8403,-4.895,-4.9242,-4.9798,-5.0553,-5.0687,-5.0896,-5.1356,-5.1423,-5.1473,-5.1574,-5.1574,-5.1574,-5.1574,-5.1574,-5.1523,-5.1398,-5.087,-5.0067,-4.9088,-4.851,-4.8209,-4.8209,-4.8209,-4.8209,-4.8209,-4.8209,-4.8159,-4.8058,-4.8058,-4.8008,-4.7908,-4.7506,-4.7218,-4.723,-4.6401,-4.5924,-4.5899,-4.5472,-4.5196,-4.5196,-4.5196,-4.5538,-4.6406,-4.7282,-4.767,-4.7244,-4.728,-4.7394,-4.782,-4.7783,-4.7833,-4.7871,-4.7871,-4.7921,-4.7996,-4.8096,-4.8371,-4.8796,-4.8739,-4.8992,-4.976,-4.9618,-4.9639,-5.0247,-5.069,-5.1058,-5.1181,-5.1595,-5.187,-5.2013,-5.2456,-5.2978,-5.3453,-5.3578,-5.3578,-5.3578,-5.3392,-5.3052,-5.2544,-5.1975,-5.1503,-5.1364,-5.1464,-5.1369,-5.0862,-5.0581,-5.0002,-4.9269,-4.8262,-4.718,-4.6492,-4.5968,-4.5598,-4.535,-4.5809,-4.6264,-4.0717,-4.0779,-4.08,-4.082,-4.0882,-4.0882,-4.0882,-4.0933,-4.1268,-4.1693,-4.2229,-4.3001,-4.3905,-4.4891,-4.5806,-4.6769,-4.7678,-4.8175,-4.8824,-4.9509,-4.9577,-4.9762,-5.0216,-5.0553,-5.0936,-5.1451,-5.184,-5.2226,-5.2653,-5.2678,-5.2703,-5.2678,-5.2703,-5.2452,-5.2,-5.1448,-5.0845,-5.0193,-4.964,-4.9364,-4.9364,-4.9339,-4.9339,-4.9364,-4.9339,-4.9138,-4.8661,-4.8661,-4.841,-4.7933,-4.7832,-4.7807,-4.7782,-4.7631,-4.7556,-4.7556,-4.7481,-4.7456,-4.7431,-4.7456,-4.7407,-4.7246,-4.7358,-4.7533,-4.7745,-4.7807,-4.7708,-4.7495,-4.757,-4.7505,-4.7671,-4.777,-4.7991,-4.8435,-4.8879,-4.9175,-4.9249,-4.9552,-4.9805,-5.0026,-5.0051,-5.0204,-5.072,-5.0916,-5.1137,-5.1505,-5.1586,-5.1947,-5.2413,-5.258,-5.2872,-5.3316,-5.3439,-5.3439,-5.3511,-5.3439,-5.315,-5.2838,-5.2597,-5.2163,-5.1657,-5.1582,-5.1334,-5.0647,-5.0192,-4.9638,-4.8883,-4.798,-4.7276,-4.6819,-4.6453,-4.6162,-4.5975,-4.6142,-4.6244,-4.0882,-4.0882,-4.0882,-4.0882,-4.0903,-4.1203,-4.14,-4.1679,-4.1845,-4.1988,-4.2116,-4.3111,-4.3947,-4.4683,-4.5914,-4.6773,-4.7282,-4.8163,-4.8815,-4.9424,-4.9655,-5.0077,-5.0689,-5.0896,-5.1319,-5.1979,-5.221,-5.2473,-5.2836,-5.2861,-5.2861,-5.2861,-5.2861,-5.2653,-5.2126,-5.185,-5.1448,-5.0896,-5.0318,-4.9891,-4.9615,-4.959,-4.959,-4.959,-4.959,-4.949,-4.9238,-4.9213,-4.9088,-4.8837,-4.8535,-4.8322,-4.8133,-4.7795,-4.7558,-4.737,-4.737,-4.737,-4.737,-4.7643,-4.7753,-4.7562,-4.7858,-4.8219,-4.8595,-4.8139,-4.7877,-4.8071,-4.8031,-4.8189,-4.8551,-4.8559,-4.878,-4.9387,-4.959,-4.9713,-4.9738,-4.9707,-4.9932,-5.0201,-5.0113,-5.0194,-5.0753,-5.0825,-5.0804,-5.0954,-5.1101,-5.1776,-5.2962,-5.3011,-5.3059,-5.3667,-5.3861,-5.3861,-5.3788,-5.3643,-5.3351,-5.2865,-5.2453,-5.2065,-5.1673,-5.1544,-5.1161,-5.0683,-5.0163,-4.9679,-4.8908,-4.8052,-4.7476,-4.6971,-4.6598,-4.6322,-4.6306,-4.6266,-4.6264,-4.0882,-4.0882,-4.0986,-4.1089,-4.1214,-4.1565,-4.1938,-4.2322,-4.2322,-4.2271,-4.2386,-4.3293,-4.3946,-4.4611,-4.589,-4.6575,-4.6952,-4.8006,-4.8779,-4.9251,-4.9696,-5.0263,-5.0906,-5.1141,-5.1492,-5.2074,-5.2283,-5.2565,-5.2942,-5.3036,-5.3181,-5.3281,-5.3181,-5.2904,-5.2452,-5.2352,-5.2026,-5.1473,-5.1021,-5.0544,-4.9992,-4.9992,-4.9967,-4.9967,-4.9992,-4.9967,-4.9837,-4.9837,-4.9837,-4.9681,-4.9307,-4.8953,-4.8695,-4.8234,-4.7922,-4.7666,-4.7602,-4.7602,-4.7626,-4.7995,-4.8215,-4.8175,-4.8567,-4.8918,-4.9011,-4.8401,-4.815,-4.8739,-4.8812,-4.8984,-4.9102,-4.9108,-4.9304,-4.9718,-4.9796,-4.9733,-4.9733,-4.9624,-4.9704,-5.0114,-4.9953,-5.0028,-5.0436,-5.0699,-5.0771,-5.0674,-5.0933,-5.1911,-5.3016,-5.3067,-5.3245,-5.3666,-5.3961,-5.3961,-5.3961,-5.374,-5.3275,-5.284,-5.2178,-5.1781,-5.153,-5.1338,-5.0918,-5.0452,-4.9984,-4.9462,-4.8864,-4.8071,-4.7411,-4.7031,-4.6608,-4.6326,-4.6326,-4.6266,-4.6266,-4.0882,-4.0944,-4.1338,-4.1825,-4.2177,-4.226,-4.2302,-4.2364,-4.2343,-4.2476,-4.2874,-4.2889,-4.3547,-4.4482,-4.5209,-4.6039,-4.6978,-4.7938,-4.8601,-4.8961,-4.9724,-5.0127,-5.0317,-5.086,-5.1211,-5.1446,-5.203,-5.265,-5.3168,-5.3448,-5.3884,-5.4285,-5.3884,-5.3607,-5.3507,-5.308,-5.2603,-5.2051,-5.1975,-5.1674,-5.1172,-5.1122,-5.1122,-5.1122,-5.1122,-5.0989,-5.0555,-5.0605,-5.0404,-5.0093,-4.9995,-4.9928,-4.9903,-4.9878,-4.9762,-4.9738,-4.9762,-4.9811,-4.9762,-4.9836,-4.9609,-4.9455,-4.9363,-4.9189,-4.8669,-4.8505,-4.8731,-4.9257,-4.9485,-4.9301,-4.9125,-4.8807,-4.8648,-4.8815,-4.8847,-4.8803,-4.8921,-4.9227,-4.951,-4.9557,-4.9605,-4.9721,-5.0286,-5.0613,-5.106,-5.1483,-5.1615,-5.1996,-5.2217,-5.2382,-5.2599,-5.2873,-5.3275,-5.3576,-5.3401,-5.3299,-5.3029,-5.2604,-5.2196,-5.1745,-5.1416,-5.1002,-5.0543,-4.9808,-4.9271,-4.8806,-4.8352,-4.7715,-4.7073,-4.6933,-4.659,-4.6266,-4.6266,-4.6308,-4.6308,-4.1762,-4.171,-4.197,-4.2228,-4.2621,-4.2642,-4.2807,-4.3056,-4.3056,-4.3159,-4.3284,-4.3289,-4.3635,-4.44,-4.5261,-4.5992,-4.6455,-4.7558,-4.8232,-4.8644,-4.915,-4.9652,-5.0104,-5.0388,-5.0887,-5.1673,-5.2051,-5.2558,-5.331,-5.3644,-5.3982,-5.4252,-5.424,-5.421,-5.4185,-5.4009,-5.3783,-5.3557,-5.3231,-5.2792,-5.2379,-5.1707,-5.1206,-5.098,-5.0913,-5.0779,-5.0376,-5.0376,-5.0308,-5.0106,-5.0106,-5.0038,-4.9835,-4.9835,-4.9699,-4.9563,-4.929,-4.9084,-4.8786,-4.8786,-4.8717,-4.8603,-4.8579,-4.8491,-4.831,-4.8287,-4.8451,-4.8756,-4.8682,-4.8629,-4.8776,-4.8497,-4.8381,-4.8685,-4.8658,-4.8511,-4.8511,-4.8951,-4.9252,-4.9252,-4.9507,-4.9878,-5.0267,-5.0394,-5.0802,-5.1508,-5.1601,-5.1293,-5.1824,-5.1993,-5.1901,-5.1924,-5.223,-5.2535,-5.2688,-5.2612,-5.2459,-5.2154,-5.1693,-5.1176,-5.1021,-5.0221,-4.9538,-4.9223,-4.8591,-4.8034,-4.7554,-4.7314,-4.6933,-4.6712,-4.653,-4.6266,-4.6266,-4.6493,-4.6638,-4.2322,-4.2364,-4.2373,-4.2704,-4.3097,-4.3118,-4.3304,-4.3594,-4.3615,-4.3615,-4.3615,-4.3615,-4.3746,-4.4125,-4.5106,-4.5555,-4.5779,-4.6817,-4.7502,-4.7794,-4.8492,-4.9119,-4.9816,-5.0101,-5.077,-5.1729,-5.2018,-5.2597,-5.3543,-5.4029,-5.4295,-5.4295,-5.4434,-5.4502,-5.4477,-5.4377,-5.4277,-5.4227,-5.3853,-5.3512,-5.3176,-5.2391,-5.1619,-5.1049,-5.1024,-5.082,-5.0387,-5.0318,-5.0206,-5.0137,-4.9976,-4.9838,-4.9562,-4.9562,-4.9424,-4.9078,-4.8753,-4.8474,-4.8053,-4.8053,-4.8053,-4.8053,-4.8053,-4.8051,-4.7998,-4.7924,-4.7961,-4.8009,-4.7751,-4.7857,-4.8448,-4.8349,-4.8364,-4.871,-4.8603,-4.8424,-4.8322,-4.8617,-4.8724,-4.8695,-4.8907,-4.957,-5.0091,-5.0062,-5.0254,-5.0962,-5.0568,-5.0129,-5.1162,-5.1103,-5.0898,-5.1076,-5.1076,-5.1385,-5.1924,-5.1847,-5.1693,-5.1385,-5.0844,-5.04,-5.0322,-4.9302,-4.867,-4.841,-4.7853,-4.7453,-4.7234,-4.6993,-4.6897,-4.6635,-4.6616,-4.6699,-4.6823,-4.7051,-4.7175,-4.2322,-4.2331,-4.2725,-4.3159,-4.3573,-4.3553,-4.3573,-4.3615,-4.3615,-4.3615,-4.3615,-4.3615,-4.3615,-4.3691,-4.4167,-4.4525,-4.4955,-4.5726,-4.6195,-4.6462,-4.7827,-4.8697,-4.9186,-4.9994,-5.0818,-5.1602,-5.1968,-5.2768,-5.4059,-5.4672,-5.4967,-5.4918,-5.45,-5.4278,-5.4204,-5.3835,-5.3515,-5.3685,-5.3587,-5.3394,-5.3369,-5.3271,-5.2656,-5.1775,-5.1747,-5.1513,-5.1138,-5.0787,-5.0505,-5.0104,-4.9771,-4.9486,-4.951,-4.9463,-4.9296,-4.8938,-4.8866,-4.8673,-4.8384,-4.8289,-4.8335,-4.8286,-4.8263,-4.8186,-4.7744,-4.7451,-4.7284,-4.7334,-4.7043,-4.7217,-4.8054,-4.8231,-4.831,-4.8401,-4.8509,-4.8258,-4.8044,-4.7967,-4.7881,-4.7718,-4.7958,-4.8649,-4.9526,-4.9621,-4.9613,-4.9781,-4.9657,-4.9583,-4.9627,-4.9595,-4.9729,-4.9987,-5.0143,-5.0377,-5.0789,-5.0789,-5.0633,-5.0299,-4.9908,-4.946,-4.9065,-4.8591,-4.8193,-4.7816,-4.7399,-4.7098,-4.6954,-4.6876,-4.6862,-4.6906,-4.7258,-4.7382,-4.7279,-4.7527,-4.7651,-4.3118,-4.3139,-4.3284,-4.347,-4.3594,-4.3615,-4.3615,-4.3615,-4.3615,-4.3615,-4.3615,-4.3615,-4.3615,-4.3635,-4.4078,-4.4343,-4.4491,-4.5276,-4.5934,-4.6526,-4.7418,-4.8244,-4.9169,-4.9801,-5.0503,-5.1306,-5.1777,-5.2485,-5.351,-5.4274,-5.4645,-5.462,-5.4696,-5.4746,-5.4648,-5.4574,-5.4451,-5.4353,-5.4131,-5.3789,-5.3473,-5.3229,-5.2622,-5.1778,-5.1898,-5.1898,-5.1489,-5.0837,-5.0423,-5.0276,-4.9607,-4.9275,-4.9229,-4.8974,-4.8595,-4.8209,-4.8209,-4.8064,-4.7721,-4.7648,-4.7637,-4.7708,-4.7678,-4.7514,-4.7232,-4.7017,-4.6855,-4.6625,-4.6514,-4.6615,-4.6877,-4.7247,-4.741,-4.7356,-4.7258,-4.7103,-4.697,-4.7109,-4.7225,-4.7176,-4.7712,-4.8377,-4.857,-4.878,-4.878,-4.8758,-4.8522,-4.8365,-4.8294,-4.8309,-4.8389,-4.849,-4.8547,-4.8547,-4.8727,-4.928,-4.9438,-4.9201,-4.8886,-4.8453,-4.8055,-4.7901,-4.7521,-4.7737,-4.7352,-4.7212,-4.7172,-4.738,-4.7258,-4.7361,-4.7713,-4.7858,-4.7672,-4.7962,-4.8107,-4.3615,-4.3615,-4.3615,-4.3615,-4.3615,-4.3615,-4.3615,-4.3615,-4.3615,-4.3615,-4.3635,-4.376,-4.3842,-4.3905,-4.4319,-4.4535,-4.4552,-4.523,-4.5818,-4.6397,-4.6927,-4.7838,-4.8781,-4.9297,-5.0079,-5.0987,-5.1641,-5.2207,-5.2816,-5.3521,-5.3798,-5.3798,-5.4122,-5.4197,-5.4221,-5.4367,-5.4463,-5.4415,-5.427,-5.4023,-5.3726,-5.3437,-5.2872,-5.2325,-5.2206,-5.1828,-5.1231,-5.0592,-5.0146,-4.995,-4.9227,-4.8695,-4.8501,-4.823,-4.7901,-4.753,-4.7455,-4.7306,-4.6911,-4.6858,-4.6915,-4.692,-4.6963,-4.6811,-4.6652,-4.6463,-4.6372,-4.6245,-4.6073,-4.6095,-4.6242,-4.652,-4.6692,-4.6762,-4.6727,-4.6599,-4.6541,-4.6738,-4.6891,-4.7023,-4.7238,-4.7677,-4.7846,-4.7761,-4.7698,-4.7677,-4.7403,-4.7234,-4.7373,-4.7373,-4.7453,-4.7613,-4.7693,-4.7858,-4.8067,-4.8575,-4.8836,-4.8575,-4.8575,-4.8051,-4.7691,-4.743,-4.7394,-4.7524,-4.765,-4.7506,-4.7589,-4.7796,-4.7879,-4.79,-4.8169,-4.8396,-4.8355,-4.8417,-4.85,-4.3615,-4.3656,-4.3635,-4.3656,-4.3677,-4.3677,-4.3635,-4.3615,-4.3635,-4.3698,-4.376,-4.4112,-4.4298,-4.4401,-4.4795,-4.4981,-4.5117,-4.5493,-4.5749,-4.5905,-4.6563,-4.7404,-4.8187,-4.8715,-4.954,-5.0698,-5.1516,-5.1901,-5.2,-5.2506,-5.2758,-5.2635,-5.2806,-5.2952,-5.2735,-5.3253,-5.3488,-5.3535,-5.3794,-5.3975,-5.4038,-5.3905,-5.3623,-5.32,-5.2493,-5.1562,-5.0526,-4.9985,-4.9631,-4.9209,-4.8405,-4.7849,-4.7477,-4.7411,-4.7247,-4.6874,-4.6862,-4.6652,-4.6322,-4.6279,-4.6313,-4.6308,-4.623,-4.6351,-4.6245,-4.601,-4.5901,-4.6158,-4.6003,-4.591,-4.6241,-4.6283,-4.6459,-4.6844,-4.7072,-4.7124,-4.6968,-4.6972,-4.6999,-4.6904,-4.6718,-4.6575,-4.6782,-4.676,-4.6613,-4.6592,-4.655,-4.659,-4.6912,-4.6993,-4.7153,-4.7415,-4.75,-4.7589,-4.78,-4.8072,-4.8093,-4.8195,-4.8277,-4.8033,-4.7956,-4.7815,-4.7713,-4.788,-4.8046,-4.8003,-4.8065,-4.8252,-4.8355,-4.8438,-4.8707,-4.8831,-4.881,-4.879,-4.8873,-4.3801,-4.407,-4.4091,-4.4091,-4.4091,-4.4091,-4.3925,-4.3677,-4.3925,-4.407,-4.4174,-4.4567,-4.4774,-4.4877,-4.525,-4.5478,-4.5498,-4.5906,-4.6087,-4.6216,-4.6653,-4.7241,-4.7819,-4.8244,-4.8943,-4.9808,-5.0432,-5.0844,-5.1245,-5.1908,-5.2279,-5.2348,-5.2548,-5.2686,-5.2686,-5.2871,-5.2964,-5.2987,-5.3102,-5.3195,-5.3195,-5.3195,-5.3036,-5.256,-5.2002,-5.1243,-5.0364,-4.9584,-4.9174,-4.8974,-4.7909,-4.7039,-4.6704,-4.6618,-4.6541,-4.6364,-4.6386,-4.6386,-4.623,-4.6174,-4.6266,-4.6242,-4.6248,-4.6258,-4.6271,-4.6132,-4.6114,-4.628,-4.614,-4.6223,-4.6225,-4.6266,-4.6345,-4.6462,-4.6587,-4.6751,-4.659,-4.6509,-4.649,-4.6492,-4.6349,-4.643,-4.6513,-4.6287,-4.6266,-4.6266,-4.6287,-4.6469,-4.653,-4.6673,-4.6675,-4.7046,-4.721,-4.7459,-4.7773,-4.8024,-4.8169,-4.8273,-4.8273,-4.8273,-4.8192,-4.815,-4.815,-4.8191,-4.8439,-4.85,-4.8562,-4.8645,-4.8728,-4.879,-4.8914,-4.8997,-4.9038,-4.91,-4.9162,-4.4298,-4.4546,-4.4546,-4.4567,-4.4567,-4.4567,-4.4401,-4.4174,-4.4422,-4.4567,-4.465,-4.5043,-4.525,-4.5354,-4.5726,-4.5912,-4.5975,-4.6223,-4.6283,-4.6316,-4.6584,-4.6993,-4.7373,-4.7773,-4.8359,-4.9046,-4.9443,-5.0028,-5.0624,-5.1312,-5.1708,-5.1934,-5.2184,-5.232,-5.2366,-5.2502,-5.2593,-5.2616,-5.2775,-5.2946,-5.2866,-5.2704,-5.2484,-5.2056,-5.139,-5.0753,-5.0033,-4.9178,-4.8704,-4.8488,-4.7523,-4.6743,-4.629,-4.6211,-4.6269,-4.6269,-4.6211,-4.6211,-4.629,-4.6253,-4.6237,-4.6271,-4.6333,-4.6257,-4.6285,-4.6266,-4.6266,-4.6266,-4.6246,-4.6266,-4.6266,-4.6266,-4.6266,-4.6266,-4.6347,-4.6266,-4.6266,-4.6266,-4.6347,-4.6287,-4.6266,-4.6266,-4.6266,-4.6266,-4.6266,-4.6347,-4.6492,-4.6596,-4.6637,-4.6782,-4.701,-4.7196,-4.734,-4.7672,-4.7942,-4.8108,-4.8232,-4.8274,-4.8378,-4.8483,-4.8503,-4.8481,-4.8564,-4.8647,-4.8769,-4.879,-4.8852,-4.8893,-4.8976,-4.9059,-4.91,-4.9059,-4.91,-4.9328,-4.9431,-4.4923,-4.4944,-4.4944,-4.4964,-4.4964,-4.5022,-4.4981,-4.494,-4.5022,-4.5022,-4.5126,-4.5519,-4.5726,-4.5809,-4.6119,-4.6184,-4.6246,-4.6246,-4.6326,-4.6326,-4.6409,-4.6694,-4.7119,-4.742,-4.7873,-4.8375,-4.8742,-4.9362,-5.0131,-5.0608,-5.0999,-5.1366,-5.1455,-5.1536,-5.1589,-5.196,-5.2057,-5.2123,-5.254,-5.2718,-5.2741,-5.2431,-5.2015,-5.1638,-5.0873,-5.0158,-4.9677,-4.892,-4.8352,-4.8174,-4.7406,-4.6751,-4.6407,-4.6266,-4.6324,-4.6304,-4.6306,-4.6264,-4.6306,-4.6262,-4.6324,-4.6264,-4.6264,-4.6266,-4.6347,-4.6266,-4.6266,-4.6266,-4.6266,-4.6266,-4.6266,-4.6266,-4.6266,-4.6266,-4.6266,-4.6266,-4.6266,-4.6266,-4.6266,-4.6266,-4.6266,-4.6266,-4.6266,-4.6308,-4.6349,-4.6432,-4.6721,-4.703,-4.7113,-4.7279,-4.7589,-4.7713,-4.7734,-4.7982,-4.8314,-4.8438,-4.8541,-4.8583,-4.8624,-4.8666,-4.8707,-4.879,-4.8831,-4.8935,-4.908,-4.91,-4.91,-4.9142,-4.9204,-4.9266,-4.9224,-4.9121,-4.9307,-4.9638,-4.9783,-4.4237,-4.4621,-4.4861,-4.5021,-4.5101,-4.5339,-4.5312,-4.5064,-4.5374,-4.5498,-4.5602,-4.5975,-4.614,-4.6182,-4.6184,-4.6266,-4.6266,-4.6266,-4.6266,-4.6409,-4.6638,-4.6844,-4.7028,-4.711,-4.7564,-4.827,-4.8415,-4.8725,-4.9368,-4.9876,-5.0109,-5.0235,-5.066,-5.0749,-5.0752,-5.0879,-5.0882,-5.0882,-5.1052,-5.116,-5.116,-5.1076,-5.0907,-5.0717,-5.0188,-4.9892,-4.9596,-4.886,-4.7984,-4.7421,-4.7172,-4.6781,-4.6389,-4.6266,-4.6266,-4.6266,-4.6266,-4.6266,-4.6266,-4.6266,-4.6266,-4.6266,-4.6266,-4.6266,-4.6266,-4.6266,-4.6266,-4.6266,-4.6266,-4.6266,-4.6266,-4.6266,-4.6266,-4.6266,-4.6266,-4.6266,-4.6266,-4.6266,-4.6266,-4.6266,-4.6266,-4.6308,-4.637,-4.6658,-4.6844,-4.6845,-4.7196,-4.7527,-4.7568,-4.7693,-4.7962,-4.8127,-4.8231,-4.8479,-4.8707,-4.8831,-4.8914,-4.8955,-4.8955,-4.8955,-4.8997,-4.9017,-4.9017,-4.9059,-4.9266,-4.9349,-4.9328,-4.9349,-4.9411,-4.9556,-4.9721,-4.9825,-4.999,-5.0239,-5.0239,-4.4442,-4.4683,-4.4906,-4.4987,-4.5068,-4.531,-4.5328,-4.5345,-4.5589,-4.5793,-4.5936,-4.6142,-4.6266,-4.6266,-4.6266,-4.6266,-4.6368,-4.6473,-4.6555,-4.6638,-4.7113,-4.7299,-4.732,-4.732,-4.7714,-4.8254,-4.838,-4.8756,-4.93,-4.9554,-4.9744,-5.0039,-5.0273,-5.04,-5.0442,-5.04,-5.04,-5.0379,-5.04,-5.04,-5.04,-5.0231,-5.0146,-5.0061,-4.9657,-4.9486,-4.9359,-4.896,-4.8252,-4.7506,-4.7134,-4.6741,-4.6328,-4.6266,-4.6266,-4.6266,-4.6266,-4.6266,-4.6266,-4.6266,-4.6266,-4.6266,-4.6266,-4.6266,-4.6266,-4.6266,-4.6266,-4.6266,-4.6266,-4.6266,-4.6266,-4.6266,-4.6266,-4.6266,-4.6266,-4.6266,-4.6266,-4.6266,-4.6266,-4.6308,-4.6432,-4.6555,-4.6576,-4.703,-4.7258,-4.7403,-4.7693,-4.7879,-4.8003,-4.8127,-4.8272,-4.8479,-4.8603,-4.879,-4.8873,-4.8955,-4.9059,-4.9121,-4.9373,-4.9373,-4.9411,-4.9411,-4.9473,-4.9514,-4.9576,-4.9618,-4.968,-4.9763,-4.9928,-5.0115,-5.0342,-5.0425,-5.0487,-5.0694,-5.0715,-4.4882,-4.4882,-4.4964,-4.4964,-4.4944,-4.4964,-4.523,-4.5515,-4.5576,-4.5739,-4.6003,-4.6084,-4.6104,-4.6266,-4.6288,-4.637,-4.6471,-4.6906,-4.7134,-4.7299,-4.7589,-4.7796,-4.79,-4.7796,-4.8024,-4.846,-4.8459,-4.8899,-4.9342,-4.9594,-4.9785,-5.0019,-5.0125,-5.0231,-5.0146,-5.0146,-5.0231,-5.0146,-5.0146,-5.0061,-5.0061,-4.9827,-4.9657,-4.9572,-4.9401,-4.9144,-4.9124,-4.8914,-4.85,-4.7713,-4.732,-4.6885,-4.6471,-4.6266,-4.6266,-4.6266,-4.6266,-4.6266,-4.6266,-4.6266,-4.6266,-4.6266,-4.6266,-4.6266,-4.6266,-4.6266,-4.6266,-4.6266,-4.6266,-4.6266,-4.6266,-4.6266,-4.6266,-4.6266,-4.6266,-4.6266,-4.6328,-4.6308,-4.6287,-4.643,-4.6823,-4.6907,-4.7196,-4.7444,-4.7755,-4.7817,-4.8127,-4.8376,-4.8479,-4.8583,-4.8728,-4.8873,-4.8955,-4.9017,-4.9038,-4.9059,-4.9227,-4.931,-4.958,-4.9746,-4.9949,-5.0032,-5.0094,-5.0115,-5.0011,-5.0052,-5.0197,-5.0301,-5.0466,-5.0591,-5.0777,-5.0715,-5.0673,-5.1025,-5.117,-4.3958,-4.4041,-4.437,-4.4534,-4.4616,-4.4882,-4.5046,-4.5127,-4.5127,-4.5209,-4.5291,-4.5291,-4.5556,-4.582,-4.625,-4.6557,-4.6783,-4.7258,-4.7713,-4.8086,-4.8148,-4.8459,-4.8583,-4.8396,-4.8479,-4.879,-4.8914,-4.9061,-4.923,-4.9315,-4.9315,-4.9401,-4.9486,-4.9401,-4.9401,-4.9486,-4.9401,-4.9401,-4.9401,-4.9486,-4.9486,-4.9401,-4.923,-4.923,-4.9144,-4.9144,-4.8976,-4.8707,-4.8252,-4.7817,-4.7527,-4.7113,-4.6513,-4.6266,-4.6266,-4.6266,-4.6266,-4.6266,-4.6266,-4.6266,-4.6266,-4.6266,-4.6266,-4.6266,-4.6266,-4.6266,-4.6266,-4.6266,-4.6266,-4.6266,-4.6266,-4.6266,-4.6266,-4.6266,-4.6308,-4.6432,-4.674,-4.6473,-4.6452,-4.6823,-4.701,-4.7175,-4.7506,-4.7941,-4.8189,-4.8272,-4.8521,-4.8852,-4.8955,-4.8997,-4.9017,-4.9059,-4.9059,-4.908,-4.91,-4.9183,-4.939,-4.9597,-4.9866,-5.0073,-5.0384,-5.057,-5.0611,-5.0508,-5.0342,-5.0487,-5.0715,-5.0818,-5.0963,-5.1087,-5.1191,-5.1212,-5.1294,-5.1522,-5.1564,-4.3691,-4.3711,-4.3958,-4.4041,-4.4123,-4.4288,-4.4534,-4.4698,-4.4718,-4.4882,-4.5004,-4.5247,-4.545,-4.5737,-4.6142,-4.6449,-4.68,-4.7399,-4.8104,-4.8603,-4.8707,-4.8916,-4.8976,-4.8852,-4.8937,-4.9059,-4.9059,-4.9059,-4.9059,-4.9059,-4.9144,-4.9059,-4.9059,-4.9144,-4.9059,-4.9059,-4.9144,-4.9144,-4.9059,-4.9059,-4.9059,-4.9059,-4.9059,-4.9059,-4.9059,-4.9059,-4.9038,-4.8624,-4.8169,-4.7755,-4.7465,-4.7072,-4.6411,-4.6266,-4.6266,-4.6266,-4.6266,-4.6266,-4.6266,-4.6266,-4.6266,-4.6266,-4.6266,-4.6266,-4.6266,-4.6266,-4.6266,-4.6266,-4.6266,-4.6266,-4.6266,-4.6266,-4.6266,-4.6308,-4.6473,-4.6782,-4.6927,-4.6823,-4.6844,-4.7258,-4.7568,-4.7755,-4.8065,-4.8396,-4.8603,-4.8686,-4.8707,-4.8997,-4.8997,-4.9038,-4.9038,-4.9059,-4.9059,-4.908,-4.9142,-4.9328,-4.968,-4.999,-5.0384,-5.0591,-5.0818,-5.0984,-5.1129,-5.1005,-5.0922,-5.1087,-5.1294,-5.1398,-5.1398,-5.1481,-5.1564,-5.1729,-5.1771,-5.1708,-5.1688,-4.3691,-4.3691,-4.3691,-4.3691,-4.3691,-4.3691,-4.3958,-4.4288,-4.4367,-4.4611,-4.4918,-4.538,-4.556,-4.5744,-4.6105,-4.6305,-4.676,-4.7257,-4.8131,-4.8764,-4.8805,-4.8932,-4.9038,-4.9017,-4.9017,-4.9059,-4.9059,-4.9059,-4.9059,-4.9059,-4.9059,-4.9059,-4.9059,-4.9059,-4.9059,-4.9059,-4.9059,-4.9059,-4.9059,-4.9059,-4.9059,-4.9059,-4.9059,-4.9059,-4.9059,-4.9059,-4.8935,-4.8541,-4.8065,-4.7693,-4.7196,-4.6679,-4.639,-4.6266,-4.6266,-4.6266,-4.6266,-4.6266,-4.6266,-4.6266,-4.6266,-4.6266,-4.6266,-4.6266,-4.6266,-4.6266,-4.6266,-4.6266,-4.6266,-4.6266,-4.6266,-4.6266,-4.6389,-4.6513,-4.6741,-4.6969,-4.7217,-4.7237,-4.7465,-4.7713,-4.7982,-4.8169,-4.8459,-4.8748,-4.8935,-4.9059,-4.9059,-4.9059,-4.9059,-4.9059,-4.9059,-4.9059,-4.9059,-4.9352,-4.9435,-4.968,-5.0011,-5.0404,-5.0818,-5.1005,-5.1212,-5.1357,-5.1481,-5.1605,-5.1626,-5.1667,-5.1646,-5.1626,-5.1667,-5.1791,-5.1791,-5.1791,-5.1791,-5.1791,-5.1791,-4.3691,-4.3691,-4.3691,-4.3691,-4.3691,-4.3691,-4.3793,-4.3852,-4.4288,-4.4444,-4.4587,-4.498,-4.543,-4.5718,-4.614,-4.6669,-4.7253,-4.7586,-4.7926,-4.8458,-4.8544,-4.863,-4.8973,-4.8973,-4.9059,-4.9059,-4.9059,-4.9059,-4.9059,-4.9059,-4.9059,-4.9059,-4.9059,-4.9059,-4.9059,-4.9059,-4.9059,-4.9059,-4.9059,-4.9059,-4.9059,-4.9059,-4.9059,-4.9059,-4.9059,-4.9038,-4.8831,-4.8272,-4.7755,-4.761,-4.6906,-4.6432,-4.6287,-4.6266,-4.6266,-4.6266,-4.6266,-4.6266,-4.6266,-4.6266,-4.6266,-4.6266,-4.6266,-4.6266,-4.6266,-4.6266,-4.6266,-4.6266,-4.6266,-4.6266,-4.6266,-4.6328,-4.6575,-4.6803,-4.7072,-4.7382,-4.7879,-4.8086,-4.8107,-4.8252,-4.8396,-4.85,-4.8748,-4.8935,-4.8997,-4.9059,-4.9059,-4.9059,-4.9059,-4.9059,-4.9059,-4.9059,-4.9059,-4.9435,-4.9684,-5.0052,-5.0446,-5.0818,-5.115,-5.1294,-5.1481,-5.1667,-5.1791,-5.1791,-5.1791,-5.175,-5.1771,-5.1791,-5.1791,-5.1791,-5.1791,-5.1791,-5.1791,-5.1791,-5.1791,-4.3691,-4.3691,-4.3691,-4.3691,-4.3691,-4.3691,-4.3848,-4.4082,-4.4297,-4.4531,-4.4805,-4.5156,-4.5437,-4.5726,-4.6146,-4.6741,-4.7208,-4.7354,-4.7615,-4.7961,-4.8047,-4.8286,-4.8716,-4.8716,-4.8887,-4.9059,-4.9059,-4.9059,-4.9059,-4.9059,-4.9059,-4.9059,-4.9059,-4.9059,-4.9059,-4.9059,-4.9059,-4.9059,-4.9059,-4.9059,-4.9059,-4.9059,-4.9059,-4.9059,-4.9038,-4.8955,-4.8603,-4.8107,-4.7589,-4.7279,-4.6638,-4.6328,-4.6266,-4.6266,-4.6266,-4.6266,-4.6266,-4.6266,-4.6266,-4.6266,-4.6266,-4.6266,-4.6266,-4.6266,-4.6266,-4.6266,-4.6266,-4.6266,-4.6287,-4.637,-4.6597,-4.6617,-4.6927,-4.7299,-4.7548,-4.7879,-4.8272,-4.8562,-4.8666,-4.8686,-4.8748,-4.8831,-4.8914,-4.9038,-4.9059,-4.9059,-4.9059,-4.9059,-4.9059,-4.9059,-4.908,-4.9245,-4.9349,-4.9825,-5.0135,-5.0508,-5.086,-5.1191,-5.1398,-5.1543,-5.1646,-5.175,-5.1791,-5.1791,-5.1791,-5.1791,-5.1791,-5.1791,-5.1791,-5.1791,-5.1791,-5.1791,-5.1791,-5.1791,-5.1791,-4.3691,-4.3691,-4.3691,-4.375,-4.3848,-4.3848,-4.4101,-4.4473,-4.4648,-4.4863,-4.5176,-4.5586,-4.5801,-4.5879,-4.6181,-4.6571,-4.6832,-4.6832,-4.7181,-4.7441,-4.7528,-4.7768,-4.8113,-4.8286,-4.8458,-4.8802,-4.8887,-4.8973,-4.9059,-4.9059,-4.9059,-4.9059,-4.9059,-4.9059,-4.9059,-4.9059,-4.9059,-4.9059,-4.9059,-4.9059,-4.9059,-4.9059,-4.9059,-4.9059,-4.9059,-4.8852,-4.8438,-4.7962,-4.7486,-4.7092,-4.6637,-4.6266,-4.6266,-4.6266,-4.6266,-4.6266,-4.6266,-4.6266,-4.6266,-4.6266,-4.6266,-4.6266,-4.6266,-4.6266,-4.6266,-4.6266,-4.6308,-4.637,-4.6432,-4.672,-4.7072,-4.7175,-4.7403,-4.7755,-4.8127,-4.8417,-4.8583,-4.879,-4.8935,-4.8997,-4.9059,-4.9059,-4.9059,-4.9059,-4.9059,-4.9059,-4.9059,-4.9059,-4.9059,-4.9059,-4.9142,-4.9411,-4.9742,-5.0342,-5.0736,-5.1005,-5.1294,-5.1522,-5.1626,-5.1688,-5.175,-5.1791,-5.1791,-5.1791,-5.1791,-5.1791,-5.1791,-5.1791,-5.1791,-5.1791,-5.1791,-5.1791,-5.1791,-5.1791,-5.1791,-4.3691,-4.3691,-4.3711,-4.3945,-4.4277,-4.4297,-4.4551,-4.498,-4.5312,-4.5547,-4.5625,-4.6016,-4.6191,-4.6211,-4.625,-4.6308,-4.6396,-4.6483,-4.6658,-4.7007,-4.7094,-4.7354,-4.7701,-4.7788,-4.8027,-4.8458,-4.8544,-4.8716,-4.8973,-4.9059,-4.9059,-4.9059,-4.9059,-4.9059,-4.9059,-4.9059,-4.9059,-4.9059,-4.9059,-4.9059,-4.9059,-4.9059,-4.9059,-4.9059,-4.9038,-4.881,-4.8334,-4.7879,-4.7465,-4.701,-4.6493,-4.6287,-4.6266,-4.6266,-4.6266,-4.6266,-4.6266,-4.6266,-4.6266,-4.6266,-4.6266,-4.6266,-4.6266,-4.6266,-4.6328,-4.637,-4.6493,-4.6845,-4.6947,-4.7154,-4.7506,-4.761,-4.7858,-4.8107,-4.8396,-4.8666,-4.8852,-4.8873,-4.9038,-4.9059,-4.9059,-4.9059,-4.9059,-4.9059,-4.9059,-4.9059,-4.9059,-4.9059,-4.9121,-4.9142,-4.9514,-4.9866,-5.0177,-5.0736,-5.1087,-5.1419,-5.1564,-5.1791,-5.1791,-5.1791,-5.1791,-5.1791,-5.1791,-5.1791,-5.1791,-5.1791,-5.1791,-5.1791,-5.1791,-5.1791,-5.1791,-5.1791,-5.1791,-5.1791,-5.1791,-4.3691,-4.373,-4.3984,-4.4219,-4.4414,-4.4648,-4.5,-4.5371,-4.5586,-4.582,-4.6035,-4.6211,-4.6308,-4.6308,-4.6308,-4.6308,-4.6308,-4.6308,-4.6396,-4.6571,-4.6658,-4.6832,-4.7181,-4.7354,-4.7528,-4.7941,-4.8286,-4.8458,-4.8716,-4.8973,-4.9059,-4.9059,-4.9059,-4.9059,-4.9059,-4.9059,-4.9059,-4.9059,-4.9059,-4.9059,-4.9059,-4.9059,-4.9059,-4.9059,-4.9059,-4.8666,-4.8127,-4.7838,-4.732,-4.6803,-4.6328,-4.6266,-4.6266,-4.6266,-4.6266,-4.6266,-4.6266,-4.6266,-4.6266,-4.6266,-4.6266,-4.6287,-4.6308,-4.639,-4.6555,-4.6679,-4.6927,-4.7361,-4.7403,-4.761,-4.7962,-4.8065,-4.8334,-4.8583,-4.8686,-4.881,-4.8976,-4.9017,-4.9059,-4.9059,-4.9059,-4.9059,-4.9059,-4.9059,-4.9059,-4.9059,-4.908,-4.91,-4.9224,-4.939,-4.9887,-5.0529,-5.0798,-5.1129,-5.1398,-5.1667,-5.1646,-5.1791,-5.1791,-5.1791,-5.1791,-5.1791,-5.1791,-5.1791,-5.1791,-5.1791,-5.1791,-5.1791,-5.1791,-5.1791,-5.1791,-5.1791,-5.1791,-5.1791,-5.1791,-4.3867,-4.3906,-4.4258,-4.4512,-4.4746,-4.5058,-4.543,-4.5801,-4.584,-4.6016,-4.623,-4.6308,-4.6308,-4.6308,-4.6308,-4.6308,-4.6308,-4.6308,-4.6308,-4.6308,-4.6308,-4.6571,-4.6745,-4.6832,-4.7094,-4.7528,-4.7768,-4.8113,-4.8458,-4.8716,-4.8973,-4.9059,-4.9059,-4.9059,-4.9059,-4.9059,-4.9059,-4.9059,-4.9059,-4.9059,-4.9059,-4.9059,-4.9059,-4.9038,-4.8893,-4.8521,-4.7817,-4.7527,-4.7072,-4.6554,-4.6287,-4.6266,-4.6266,-4.6266,-4.6266,-4.6266,-4.6266,-4.643,-4.6451,-4.639,-4.6349,-4.6432,-4.6678,-4.6927,-4.7113,-4.7217,-4.7382,-4.7817,-4.7858,-4.8107,-4.8396,-4.8541,-4.8686,-4.8873,-4.8997,-4.9038,-4.9059,-4.9059,-4.9059,-4.9059,-4.9059,-4.9059,-4.9059,-4.9059,-4.9059,-4.9059,-4.908,-4.9142,-4.9411,-4.9721,-5.0239,-5.0922,-5.1212,-5.1419,-5.1584,-5.1771,-5.1791,-5.1791,-5.1791,-5.1791,-5.1791,-5.1791,-5.1791,-5.1791,-5.1791,-5.1791,-5.1791,-5.1791,-5.1791,-5.1791,-5.1791,-5.1791,-5.1791,-5.1791,-5.1791,-4.4355,-4.4355,-4.4414,-4.4863,-4.5547,-4.5605,-4.5879,-4.6191,-4.623,-4.625,-4.6289,-4.6308,-4.6308,-4.6308,-4.6308,-4.6308,-4.6308,-4.6308,-4.6308,-4.6308,-4.6308,-4.6396,-4.6483,-4.6483,-4.6658,-4.7007,-4.7268,-4.7681,-4.8179,-4.8458,-4.8716,-4.908,-4.9059,-4.9059,-4.9059,-4.9059,-4.9059,-4.9059,-4.9059,-4.9059,-4.9059,-4.9059,-4.9059,-4.8976,-4.8645,-4.8189,-4.7693,-4.7341,-4.6927,-4.6308,-4.6266,-4.6266,-4.6266,-4.6349,-4.637,-4.6471,-4.6554,-4.672,-4.6844,-4.6699,-4.6555,-4.6947,-4.7258,-4.7465,-4.7631,-4.7651,-4.7879,-4.8252,-4.8314,-4.8521,-4.881,-4.9103,-4.8976,-4.9017,-4.9059,-4.9059,-4.9059,-4.9059,-4.9059,-4.9059,-4.9059,-4.9059,-4.9059,-4.9059,-4.9059,-4.9059,-4.9307,-4.9369,-4.9949,-5.0301,-5.0715,-5.1212,-5.1501,-5.1688,-5.1729,-5.1791,-5.1791,-5.1791,-5.1791,-5.1791,-5.1791,-5.1791,-5.1791,-5.1791,-5.1791,-5.1791,-5.1791,-5.1791,-5.1791,-5.1791,-5.1791,-5.1791,-5.1791,-5.1791,-5.1791,-4.4707,-4.5176,-4.5195,-4.5371,-4.5703,-4.5957,-4.6152,-4.6289,-4.6308,-4.6308,-4.6308,-4.6308,-4.6308,-4.6308,-4.6308,-4.6308,-4.6308,-4.6308,-4.6308,-4.6308,-4.6308,-4.6308,-4.6308,-4.6308,-4.6396,-4.6658,-4.6832,-4.7094,-4.7508,-4.8027,-4.8437,-4.8716,-4.8994,-4.9059,-4.9059,-4.9059,-4.9059,-4.9059,-4.9059,-4.9059,-4.9059,-4.9059,-4.9059,-4.9017,-4.8624,-4.8148,-4.7693,-4.7258,-4.6823,-4.6492,-4.6308,-4.6308,-4.6492,-4.6576,-4.6761,-4.6803,-4.6947,-4.7196,-4.7299,-4.7072,-4.6989,-4.7341,-4.761,-4.7817,-4.8065,-4.8107,-4.8355,-4.8624,-4.8769,-4.8893,-4.8976,-4.9059,-4.9038,-4.9059,-4.9059,-4.9059,-4.9059,-4.9059,-4.9059,-4.9059,-4.9059,-4.9059,-4.9059,-4.9059,-4.9059,-4.908,-4.9369,-4.9721,-5.0301,-5.0798,-5.115,-5.1377,-5.1646,-5.175,-5.1791,-5.1791,-5.1791,-5.1791,-5.1791,-5.1791,-5.1791,-5.1791,-5.1791,-5.1791,-5.1791,-5.1791,-5.1791,-5.1791,-5.1791,-5.1791,-5.1791,-5.1791,-5.1791,-5.1791,-5.1791,-4.5137,-4.5683,-4.582,-4.5859,-4.5898,-4.6172,-4.6308,-4.6308,-4.6308,-4.6308,-4.6308,-4.6308,-4.6308,-4.6308,-4.6308,-4.6308,-4.6308,-4.6308,-4.6308,-4.6308,-4.6308,-4.6308,-4.6308,-4.6308,-4.6308,-4.6376,-4.6571,-4.6832,-4.7094,-4.7681,-4.8113,-4.8458,-4.8716,-4.8887,-4.9059,-4.9059,-4.9059,-4.9059,-4.9059,-4.9059,-4.9059,-4.9059,-4.9059,-4.8997,-4.8624,-4.8293,-4.7838,-4.7424,-4.7051,-4.6823,-4.6638,-4.6597,-4.6823,-4.701,-4.7196,-4.7341,-4.7486,-4.7734,-4.7755,-4.7693,-4.7568,-4.7858,-4.8107,-4.8314,-4.8479,-4.8583,-4.8769,-4.8935,-4.9038,-4.9059,-4.9059,-4.9059,-4.9059,-4.9059,-4.9059,-4.9059,-4.9059,-4.9059,-4.9059,-4.9059,-4.9059,-4.908,-4.9269,-4.9245,-4.9431,-4.9576,-5.0032,-5.0342,-5.0715,-5.1129,-5.1439,-5.1605,-5.175,-5.1791,-5.1791,-5.1791,-5.1791,-5.1791,-5.1791,-5.1791,-5.1791,-5.1791,-5.1791,-5.1791,-5.1791,-5.1791,-5.1791,-5.1791,-5.1791,-5.1791,-5.1791,-5.1791,-5.1791,-5.1791,-5.1791,-4.5644,-4.5723,-4.6113,-4.6269,-4.625,-4.6289,-4.6308,-4.6308,-4.6308,-4.6308,-4.6308,-4.6308,-4.6308,-4.6308,-4.6308,-4.6308,-4.6308,-4.6308,-4.6308,-4.6308,-4.6308,-4.6308,-4.6308,-4.6308,-4.6308,-4.6308,-4.6396,-4.6658,-4.692,-4.7181,-4.7595,-4.8154,-4.8433,-4.8777,-4.908,-4.9059,-4.9059,-4.9059,-4.9059,-4.9059,-4.9059,-4.9059,-4.9059,-4.8955,-4.8624,-4.8314,-4.8107,-4.7527,-4.7258,-4.7341,-4.7134,-4.7175,-4.7424,-4.7568,-4.7672,-4.7713,-4.7755,-4.7982,-4.8293,-4.8314,-4.8334,-4.8376,-4.8583,-4.8831,-4.8976,-4.9017,-4.8976,-4.9059,-4.9059,-4.9059,-4.9059,-4.9059,-4.9059,-4.9059,-4.9059,-4.9059,-4.9059,-4.9059,-4.9059,-4.9059,-4.9059,-4.91,-4.9352,-4.9538,-4.9742,-5.0094,-5.0653,-5.1005,-5.1212,-5.1398,-5.1646,-5.1708,-5.1791,-5.1791,-5.1791,-5.1791,-5.1791,-5.1791,-5.1791,-5.1791,-5.1791,-5.1791,-5.1791,-5.1791,-5.1791,-5.1791,-5.1791,-5.1791,-5.1791,-5.1791,-5.1791,-5.1791,-5.1791,-5.1791,-5.1791,-4.584,-4.6113,-4.625,-4.6308,-4.6308,-4.6308,-4.6308,-4.6308,-4.6308,-4.6308,-4.6308,-4.6308,-4.6308,-4.6308,-4.6308,-4.6308,-4.6308,-4.6308,-4.6308,-4.6308,-4.6308,-4.6308,-4.6308,-4.6308,-4.6308,-4.6308,-4.6308,-4.6289,-4.6483,-4.6745,-4.7094,-4.7548,-4.8484,-4.8897,-4.9056,-4.9059,-4.9059,-4.9059,-4.9059,-4.9059,-4.9059,-4.9059,-4.9059,-4.9038,-4.8624,-4.8438,-4.8396,-4.7755,-4.7631,-4.7755,-4.7548,-4.7589,-4.7817,-4.7941,-4.8148,-4.8231,-4.8334,-4.8645,-4.881,-4.8831,-4.8831,-4.8873,-4.8935,-4.9059,-4.9059,-4.9059,-4.9059,-4.9059,-4.9059,-4.9059,-4.9059,-4.9059,-4.9059,-4.9059,-4.9059,-4.9059,-4.9059,-4.9059,-4.9059,-4.9059,-4.9059,-4.9369,-4.9576,-5.0011,-5.0322,-5.0529,-5.1025,-5.1294,-5.1501,-5.1584,-5.175,-5.175,-5.1791,-5.1791,-5.1791,-5.1791,-5.1791,-5.1791,-5.1791,-5.1791,-5.1791,-5.1791,-5.1791,-5.1791,-5.1791,-5.1791,-5.1791,-5.1791,-5.1791,-5.1791,-5.1791,-5.1791,-5.1791,-5.1791,-5.1791,-4.6055,-4.6289,-4.6308,-4.6308,-4.6308,-4.6308,-4.6308,-4.6308,-4.6308,-4.6308,-4.6308,-4.6308,-4.6308,-4.6308,-4.6308,-4.6308,-4.6308,-4.6308,-4.6308,-4.6308,-4.6308,-4.6308,-4.6308,-4.6308,-4.6308,-4.6308,-4.6308,-4.6308,-4.6396,-4.6551,-4.7106,-4.7781,-4.8696,-4.9302,-4.9572,-4.9597,-4.9494,-4.9452,-4.9369,-4.9245,-4.9142,-4.9059,-4.9059,-4.8997,-4.881,-4.8645,-4.85,-4.8252,-4.7982,-4.8045,-4.8024,-4.8003,-4.8189,-4.8396,-4.8603,-4.8728,-4.8831,-4.9038,-4.9038,-4.9038,-4.8997,-4.9038,-4.9059,-4.9059,-4.9059,-4.9059,-4.9059,-4.9059,-4.9059,-4.9059,-4.9059,-4.9059,-4.9059,-4.9059,-4.9059,-4.9059,-4.9059,-4.9059,-4.9059,-4.9059,-4.9328,-4.9638,-5.0052,-5.0529,-5.0984,-5.115,-5.1357,-5.1564,-5.1729,-5.1771,-5.1791,-5.1791,-5.1791,-5.1791,-5.1791,-5.1791,-5.1791,-5.1791,-5.1791,-5.1791,-5.1791,-5.1791,-5.1791,-5.1791,-5.1791,-5.1791,-5.1791,-5.1791,-5.1791,-5.1791,-5.1791,-5.1791,-5.1791,-5.1791,-5.1791,-4.6308,-4.6308,-4.6308,-4.6308,-4.6308,-4.6308,-4.6308,-4.6308,-4.6308,-4.6308,-4.6308,-4.6308,-4.6308,-4.6308,-4.6308,-4.6308,-4.6308,-4.6308,-4.6308,-4.6308,-4.6308,-4.6308,-4.6308,-4.6308,-4.6308,-4.6308,-4.6308,-4.6308,-4.6308,-4.6513,-4.7148,-4.823,-4.9182,-4.9875,-5.0249,-5.0425,-5.0197,-4.9928,-4.9638,-4.9473,-4.9393,-4.91,-4.908,-4.9017,-4.8976,-4.8935,-4.8831,-4.8603,-4.8645,-4.8666,-4.8624,-4.8728,-4.8873,-4.9038,-4.9059,-4.9059,-4.9038,-4.9059,-4.9059,-4.9059,-4.9059,-4.9059,-4.9059,-4.9059,-4.9059,-4.9059,-4.9059,-4.9059,-4.9059,-4.9059,-4.9059,-4.9059,-4.9059,-4.9059,-4.9059,-4.9059,-4.9059,-4.9059,-4.9059,-4.9224,-4.9576,-4.999,-5.0632,-5.115,-5.1357,-5.1481,-5.1584,-5.1626,-5.1771,-5.1771,-5.1791,-5.1791,-5.1791,-5.1791,-5.1791,-5.1791,-5.1791,-5.1791,-5.1791,-5.1791,-5.1791,-5.1791,-5.1791,-5.1791,-5.1791,-5.1791,-5.1791,-5.1791,-5.1791,-5.1791,-5.1791,-5.1791,-5.1791,-5.1791,-5.1791,-4.6308,-4.6308,-4.6308,-4.6308,-4.6308,-4.6308,-4.6308,-4.6308,-4.6308,-4.6308,-4.6308,-4.6308,-4.6308,-4.6308,-4.6308,-4.6308,-4.6308,-4.6308,-4.6308,-4.6308,-4.6308,-4.6308,-4.6308,-4.6308,-4.6308,-4.6308,-4.6308,-4.6308,-4.6387,-4.6523,-4.7484,-4.8719,-4.9449,-5.029,-5.0964,-5.1377,-5.086,-5.0384,-5.0052,-4.9742,-4.9559,-4.9352,-4.9162,-4.908,-4.9059,-4.9059,-4.8976,-4.8914,-4.8955,-4.8935,-4.8935,-4.8997,-4.9017,-4.9059,-4.9059,-4.9059,-4.9059,-4.9059,-4.9059,-4.9059,-4.9059,-4.9059,-4.9059,-4.9059,-4.9059,-4.9059,-4.9059,-4.9059,-4.9059,-4.9059,-4.9059,-4.9059,-4.9059,-4.9059,-4.9059,-4.9059,-4.9059,-4.9059,-4.91,-4.9452,-4.9825,-5.0425,-5.1087,-5.1419,-5.1605,-5.1729,-5.1791,-5.1791,-5.1791,-5.1791,-5.1791,-5.1791,-5.1791,-5.1791,-5.1791,-5.1791,-5.1791,-5.1791,-5.1791,-5.1791,-5.1791,-5.1791,-5.1791,-5.1791,-5.1791,-5.1791,-5.1791,-5.1791,-5.1791,-5.1791,-5.1791,-5.1791,-5.1791,-5.1791,-5.1791,-4.6308,-4.6308,-4.6308,-4.6308,-4.6308,-4.6308,-4.6308,-4.6308,-4.6308,-4.6308,-4.6308,-4.6308,-4.6308,-4.6308,-4.6308,-4.6308,-4.6308,-4.6308,-4.6308,-4.6308,-4.6308,-4.6308,-4.6308,-4.6308,-4.6308,-4.6308,-4.6308,-4.6308,-4.6484,-4.7003,-4.7899,-4.89,-4.9572,-5.0669,-5.1417,-5.1667,-5.1481,-5.1005,-5.057,-5.0135,-4.9783,-4.958,-4.9307,-4.9142,-4.91,-4.91,-4.91,-4.91,-4.91,-4.908,-4.9059,-4.9059,-4.9059,-4.9059,-4.9059,-4.9059,-4.9059,-4.9059,-4.9059,-4.9059,-4.9059,-4.9059,-4.9059,-4.9059,-4.9059,-4.9059,-4.9059,-4.9059,-4.9059,-4.9059,-4.9059,-4.9059,-4.9059,-4.9059,-4.9059,-4.9059,-4.9059,-4.9059,-4.9328,-4.9701,-5.0197,-5.0818,-5.1294,-5.1605,-5.1791,-5.1791,-5.1791,-5.1791,-5.1791,-5.1791,-5.1791,-5.1791,-5.1791,-5.1791,-5.1791,-5.1791,-5.1791,-5.1791,-5.1791,-5.1791,-5.1791,-5.1791,-5.1791,-5.1791,-5.1791,-5.1791,-5.1791,-5.1791,-5.1791,-5.1791,-5.1791,-5.1791,-5.1791,-5.1791,-5.1791,-4.6308,-4.6308,-4.6308,-4.6308,-4.6308,-4.6308,-4.6308,-4.6308,-4.6308,-4.6308,-4.6308,-4.6308,-4.6308,-4.6308,-4.6308,-4.6308,-4.6308,-4.6308,-4.6308,-4.6308,-4.6308,-4.6308,-4.6308,-4.6348,-4.6465,-4.6406,-4.6465,-4.668,-4.6719,-4.7277,-4.8086,-4.9,-4.9854,-5.0752,-5.159,-5.1791,-5.1667,-5.1543,-5.117,-5.0777,-5.0156,-4.9825,-4.9618,-4.9328,-4.9266,-4.9245,-4.9245,-4.9204,-4.9162,-4.9183,-4.9204,-4.9266,-4.9183,-4.9183,-4.9183,-4.9059,-4.9059,-4.9059,-4.9059,-4.9059,-4.9059,-4.9059,-4.9059,-4.9059,-4.9059,-4.9059,-4.9059,-4.9059,-4.9059,-4.9059,-4.9059,-4.9059,-4.9059,-4.9059,-4.9059,-4.9059,-4.9059,-4.9204,-4.9576,-4.999,-5.0508,-5.1087,-5.1481,-5.1791,-5.1791,-5.1791,-5.1791,-5.1791,-5.1791,-5.1791,-5.1791,-5.1791,-5.1791,-5.1791,-5.1791,-5.1791,-5.1791,-5.1791,-5.1791,-5.1791,-5.1791,-5.1791,-5.1791,-5.1791,-5.1791,-5.1791,-5.1791,-5.1791,-5.1791,-5.1791,-5.1791,-5.1791,-5.1791,-5.1791,-5.1791,-4.6308,-4.6308,-4.6308,-4.6308,-4.6308,-4.6308,-4.6308,-4.6308,-4.6308,-4.6308,-4.6308,-4.6308,-4.6308,-4.6308,-4.6308,-4.6308,-4.6308,-4.6308,-4.6308,-4.6308,-4.6308,-4.6367,-4.6406,-4.6601,-4.6719,-4.6894,-4.7051,-4.7187,-4.7285,-4.7785,-4.852,-4.9482,-5.0116,-5.0793,-5.1701,-5.1791,-5.1791,-5.1791,-5.1626,-5.1294,-5.0818,-5.0425,-5.0156,-5.0052,-5.0032,-4.999,-4.999,-5.0032,-5.0052,-5.0094,-5.0094,-4.9928,-4.9725,-4.9597,-4.9411,-4.9162,-4.9121,-4.9121,-4.9059,-4.9059,-4.9059,-4.9059,-4.9059,-4.9059,-4.9059,-4.9059,-4.9059,-4.9059,-4.91,-4.91,-4.908,-4.908,-4.908,-4.908,-4.9059,-4.9059,-4.908,-4.9452,-4.9825,-5.0301,-5.0818,-5.1253,-5.1667,-5.1791,-5.1791,-5.1791,-5.1791,-5.1791,-5.1791,-5.1791,-5.1791,-5.1791,-5.1791,-5.1791,-5.1791,-5.1791,-5.1791,-5.1791,-5.1791,-5.1791,-5.1791,-5.1791,-5.1791,-5.1791,-5.1791,-5.1791,-5.1791,-5.1791,-5.1791,-5.1791,-5.1791,-5.1791,-5.1791,-5.1791,-5.1791,-4.6308,-4.6308,-4.6308,-4.6308,-4.6308,-4.6308,-4.6308,-4.6308,-4.6308,-4.6308,-4.6308,-4.6308,-4.6308,-4.6308,-4.6308,-4.6308,-4.6308,-4.6308,-4.6308,-4.6308,-4.6348,-4.6465,-4.6621,-4.6855,-4.7051,-4.7226,-4.7402,-4.7558,-4.7715,-4.804,-4.8658,-4.9593,-5.0116,-5.0793,-5.161,-5.1791,-5.1791,-5.1791,-5.1791,-5.1626,-5.1336,-5.1005,-5.0591,-5.0529,-5.0425,-5.0446,-5.0404,-5.0404,-5.0404,-5.0404,-5.0363,-5.0301,-5.0094,-5.0052,-4.9804,-4.9535,-4.9369,-4.9287,-4.9162,-4.908,-4.908,-4.9059,-4.9059,-4.9059,-4.9059,-4.9059,-4.9059,-4.91,-4.9476,-4.9538,-4.9266,-4.9224,-4.9183,-4.9162,-4.91,-4.9059,-4.9307,-4.968,-5.0011,-5.0342,-5.0901,-5.1501,-5.1791,-5.1791,-5.1791,-5.1791,-5.1791,-5.1791,-5.1791,-5.1791,-5.1791,-5.1791,-5.1791,-5.1791,-5.1791,-5.1791,-5.1791,-5.1791,-5.1791,-5.1791,-5.1791,-5.1791,-5.1791,-5.1791,-5.1791,-5.1791,-5.1791,-5.1812,-5.1791,-5.1791,-5.1791,-5.1791,-5.1791,-5.1791,-5.1791,-4.6308,-4.6308,-4.6308,-4.6308,-4.6308,-4.6308,-4.6308,-4.6308,-4.6308,-4.6308,-4.6308,-4.6308,-4.6308,-4.6308,-4.6308,-4.6308,-4.6308,-4.6308,-4.6308,-4.6328,-4.6406,-4.6582,-4.6836,-4.709,-4.7461,-4.7695,-4.7871,-4.7891,-4.793,-4.8294,-4.8855,-4.9693,-5.0237,-5.0793,-5.152,-5.1791,-5.1791,-5.1791,-5.1791,-5.1791,-5.1605,-5.1439,-5.1067,-5.0756,-5.0591,-5.0591,-5.0591,-5.0611,-5.0611,-5.0653,-5.0736,-5.0653,-5.057,-5.0487,-5.0218,-4.9949,-4.968,-4.9514,-4.9287,-4.9121,-4.908,-4.9059,-4.9059,-4.9059,-4.9059,-4.9059,-4.9059,-4.9204,-4.9601,-4.9684,-4.9411,-4.9287,-4.9245,-4.9183,-4.9121,-4.9059,-4.9431,-4.9804,-5.0094,-5.0384,-5.0963,-5.1584,-5.1771,-5.1791,-5.1791,-5.1791,-5.1791,-5.1791,-5.1791,-5.1791,-5.1791,-5.1791,-5.1791,-5.1791,-5.1791,-5.1791,-5.1791,-5.1791,-5.1791,-5.1791,-5.1791,-5.1791,-5.1791,-5.1791,-5.1791,-5.1853,-5.1874,-5.1895,-5.1853,-5.1915,-5.1791,-5.1791,-5.1791,-5.1791,-5.1791,-4.6308,-4.6308,-4.6308,-4.6308,-4.6308,-4.6308,-4.6308,-4.6308,-4.6308,-4.6308,-4.6308,-4.6308,-4.6308,-4.6308,-4.6308,-4.6308,-4.6308,-4.6328,-4.6328,-4.6328,-4.668,-4.6855,-4.7148,-4.7656,-4.8164,-4.8379,-4.8476,-4.8574,-4.8379,-4.8646,-4.9282,-5.0105,-5.0216,-5.0793,-5.161,-5.1791,-5.1791,-5.1791,-5.1791,-5.1791,-5.1791,-5.1688,-5.1688,-5.1543,-5.1543,-5.1543,-5.1543,-5.1543,-5.1543,-5.1543,-5.146,-5.1253,-5.1087,-5.0943,-5.0715,-5.0384,-5.0094,-4.9804,-4.9576,-4.9307,-4.9224,-4.9059,-4.9059,-4.9059,-4.9059,-4.9059,-4.908,-4.9142,-4.9369,-4.9559,-4.9435,-4.9266,-4.9204,-4.9142,-4.9059,-4.9059,-4.9245,-4.9618,-4.997,-5.0384,-5.086,-5.1398,-5.1791,-5.1791,-5.1791,-5.1791,-5.1791,-5.1791,-5.1791,-5.1791,-5.1791,-5.1791,-5.1791,-5.1791,-5.1791,-5.1791,-5.1791,-5.1791,-5.1791,-5.1791,-5.1791,-5.1791,-5.1812,-5.1915,-5.1957,-5.1998,-5.2019,-5.2205,-5.2205,-5.2247,-5.1936,-5.1812,-5.1833,-5.1853,-5.1895]}]]